[[{"header":{"parameterUnit":"m.s-1","parameterCategory":1,"la1":30.6,"la2":29.2853,"lo1":-89.7004,"lo2":-87.6739,"dx":0.0162,"dy":0.0183,"nx":112,"ny":82,"refTime":"2022-11-04T00:00:00:Z","depth":0,"parameterNumber":2,"parameterNumberName":"U-component_of_WINDS"},"data":[0.0,0.0,0.0,0.0,0.0,0.0,0.0,0.0,0.0,0.0,0.0,0.0,0.0,0.0,0.0,0.0,0.0,0.0,0.0,0.0,0.0,0.0,0.0,0.0,0.0,0.0,0.0,0.0,0.0,0.0,0.0,0.0,0.0,0.0,0.0,0.0,0.0,0.0,0.0,0.0,0.0,0.0,0.0,0.0,0.0,0.0,0.0,0.0,0.0,0.0,0.0,0.0,0.0,0.0,0.0,0.0,0.0,0.0,0.0,0.0,0.0,0.0,0.0,0.0,0.0,0.0,0.0,0.0,0.0,0.0,0.0,0.0,0.0,0.0,0.0,0.0,0.0,0.0,0.0,0.0,0.0,0.0,0.0,0.0,0.0,0.0,0.0,0.0,0.0,0.0,1.985,2.0684,2.0917,2.1625,2.316,2.2022,2.1445,2.1997,0.0,0.0,0.0,0.0,0.0,0.0,0.0,0.0,0.0,0.0,0.0,0.0,0.0,0.0,0.0,0.0,0.0,0.0,0.0,0.0,0.0,0.0,0.0,0.0,0.0,0.0,0.0,0.0,0.0,0.0,0.0,0.0,0.0,0.0,0.0,0.0,0.0,0.0,0.0,0.0,0.0,0.0,0.0,0.0,0.0,0.0,0.0,0.0,0.0,0.0,0.0,0.0,0.0,0.0,0.0,0.0,0.0,0.0,0.0,0.0,0.0,0.0,0.0,0.0,0.0,0.0,0.0,0.0,0.0,0.0,0.0,0.0,0.0,0.0,0.0,0.0,0.0,0.0,0.0,0.0,0.0,0.0,0.0,0.0,0.0,0.0,0.0,0.0,0.0,0.0,0.0,0.0,0.0,0.0,0.0,0.0,0.0,0.0,0.0,0.0,0.0,0.0,0.0,0.0,1.8474,2.0051,2.014,2.0483,2.1409,2.1313,2.1344,2.1655,0.0,0.0,0.0,0.0,0.0,0.0,0.0,0.0,0.0,0.0,0.0,0.0,0.0,0.0,0.0,0.0,0.0,0.0,0.0,0.0,0.0,0.0,0.0,0.0,0.0,0.0,0.0,0.0,0.0,0.0,0.0,0.0,0.0,0.0,0.0,0.0,0.0,0.0,0.0,0.0,0.0,0.0,0.0,0.0,0.0,0.0,0.0,0.0,0.0,0.0,0.0,0.0,0.0,0.0,0.0,0.0,0.0,0.0,0.0,0.0,0.0,0.0,0.0,0.0,0.0,0.0,0.0,0.0,0.0,0.0,0.0,0.0,0.0,0.0,0.0,0.0,0.0,0.0,0.0,0.0,0.0,0.0,0.0,0.0,0.0,0.0,0.0,0.0,0.0,0.0,0.0,0.0,0.0,0.0,0.0,0.0,0.0,0.0,0.0,0.0,0.0,0.0,0.0,1.7619,1.8629,2.0,1.9812,1.9905,2.0703,2.0796,2.0674,2.0327,2.1172,0.0,0.0,0.0,0.0,0.0,0.0,0.0,0.0,0.0,0.0,0.0,0.0,0.0,0.0,0.0,0.0,0.0,0.0,0.0,0.0,0.0,0.0,0.0,0.0,0.0,0.0,0.0,0.0,0.0,0.0,0.0,0.0,0.0,0.0,0.0,0.0,0.0,0.0,0.0,0.0,0.0,0.0,0.0,0.0,0.0,0.0,0.0,0.0,0.0,0.0,0.0,0.0,0.0,0.0,0.0,0.0,0.0,0.0,0.0,0.0,0.0,0.0,0.0,0.0,0.0,0.0,0.0,0.0,0.0,0.0,0.0,0.0,0.0,0.0,0.0,0.0,0.0,0.0,0.0,0.0,0.0,0.0,0.0,0.0,0.0,0.0,0.0,0.0,0.0,0.0,0.0,0.0,0.0,0.0,0.0,0.0,0.0,0.0,0.0,0.0,0.0,0.0,1.7591,1.8328,1.9407,1.9189,1.9268,1.997,2.014,1.9966,1.9417,2.0262,0.0,0.0,0.0,0.0,0.0,0.0,0.0,0.0,0.0,0.0,0.0,0.0,0.0,0.0,0.0,0.0,0.0,0.0,0.0,0.0,0.0,0.0,0.0,0.0,0.0,0.0,0.0,0.0,0.0,0.0,0.0,0.0,0.0,0.0,0.0,0.0,0.0,0.0,0.0,0.0,0.0,0.0,0.0,0.0,0.0,0.0,0.0,0.0,0.0,0.0,0.0,0.0,0.0,0.0,0.0,0.0,0.0,0.0,0.0,0.0,0.0,0.0,0.0,0.0,0.0,0.0,0.0,0.0,0.0,0.0,0.0,0.0,0.0,0.0,0.0,0.0,0.0,0.0,0.0,0.0,0.0,0.0,0.0,0.0,0.0,0.0,0.0,0.0,0.0,0.0,0.0,0.0,0.0,0.0,0.0,0.0,0.0,0.0,0.0,0.0,0.0,0.0,1.5652,1.63,1.738,1.7845,1.825,1.8621,1.9091,1.952,1.9827,1.9138,0.0,0.0,0.0,0.0,0.0,0.0,0.0,0.0,0.0,0.0,0.0,0.0,0.0,0.0,0.0,0.0,0.0,0.0,0.0,0.0,0.0,0.0,0.0,0.0,0.0,0.0,0.0,0.0,0.0,0.0,0.0,0.0,0.0,0.0,0.0,0.0,0.0,0.0,0.0,0.0,0.0,0.0,0.0,0.0,0.0,0.0,0.0,0.0,0.0,0.0,0.0,0.0,0.0,0.0,0.0,0.0,0.0,0.0,0.0,0.0,0.0,0.0,0.0,0.0,0.0,0.0,0.0,0.0,0.0,0.0,0.0,0.0,0.0,0.0,0.0,0.0,0.0,0.0,0.0,0.0,0.0,0.0,0.0,0.0,0.0,0.0,0.0,0.0,0.0,0.0,0.0,0.0,0.0,0.0,0.0,0.0,0.0,0.0,0.0,0.0,0.0,0.0,1.409,1.4886,1.5554,1.6177,1.6733,1.7096,1.7954,1.8422,1.8283,0.0,0.0,0.0,0.0,0.0,0.0,0.0,0.0,0.0,0.0,0.0,0.0,0.0,0.0,0.0,0.0,0.0,0.0,0.0,0.0,0.0,0.0,0.0,0.0,0.0,0.0,0.0,0.0,0.0,0.0,0.0,0.0,0.0,0.0,0.0,0.0,0.0,0.0,0.0,0.0,0.0,0.0,0.0,0.0,0.0,0.0,0.0,0.0,0.0,0.0,0.0,0.0,0.0,0.0,0.0,0.0,0.0,0.0,0.0,0.0,0.0,0.0,0.0,0.0,0.0,0.0,0.0,0.0,0.0,0.0,0.0,0.0,0.0,0.0,0.0,0.0,0.0,0.0,0.0,0.0,0.0,0.0,0.0,0.0,0.0,0.0,0.0,0.0,0.0,0.0,0.0,0.0,0.0,0.0,0.0,0.0,0.0,0.0,0.0,0.0,0.0,0.0,1.2238,1.2973,1.3756,1.4354,1.486,1.5419,1.607,1.6821,1.7266,1.7293,0.0,0.0,0.0,0.0,0.0,0.0,0.0,0.0,0.0,0.0,0.0,0.0,0.0,0.0,0.0,0.0,0.0,0.0,0.0,0.0,0.0,0.0,0.0,0.0,0.0,0.0,0.0,0.0,0.0,0.0,0.0,0.0,0.0,0.0,0.0,0.0,0.0,0.0,0.0,0.0,0.0,0.0,0.0,0.0,0.0,0.0,0.0,0.0,0.0,0.0,0.0,0.0,0.0,0.0,0.0,0.0,0.0,0.0,0.0,0.0,0.0,0.0,0.0,0.0,0.0,0.0,0.0,0.0,0.0,0.0,0.0,0.0,0.0,0.0,0.0,0.0,0.0,0.0,0.0,0.0,0.0,0.0,0.0,0.0,0.0,0.0,0.0,0.0,0.0,0.0,0.0,0.0,0.0,0.0,0.0,0.0,0.0,0.0,0.0,0.0,0.0,0.0,1.207,1.2355,1.2871,1.3849,1.3978,1.4441,1.5581,1.5679,1.6128,0.0,0.0,0.0,0.0,0.0,0.0,0.0,0.0,0.0,0.0,0.0,0.0,0.0,0.0,0.0,0.0,0.0,0.0,0.0,0.0,0.0,0.0,0.0,0.0,0.0,0.0,0.0,0.0,0.0,0.0,0.0,0.0,0.0,0.0,0.0,0.0,0.0,0.0,0.0,0.0,0.0,0.0,0.0,0.0,0.0,0.0,0.0,0.0,0.0,0.0,0.0,0.0,0.0,0.0,0.0,0.0,0.0,0.0,0.0,0.0,0.0,0.0,0.0,0.0,0.0,0.0,0.0,0.0,0.0,0.0,0.0,0.0,0.0,0.0,0.0,0.0,0.0,0.0,0.0,0.0,0.0,0.0,0.0,0.0,0.0,0.0,0.0,0.0,0.0,0.0,0.0,0.0,0.0,0.0,0.0,0.0,0.0,0.0,0.0,0.0,0.0,0.0,0.0,1.0409,1.1235,1.1919,1.2076,1.3103,1.3921,1.4258,1.472,1.5329,1.6108,0.0,0.0,0.0,0.0,0.0,0.0,0.0,0.0,0.0,0.0,0.0,0.0,0.0,0.0,0.0,0.0,0.0,0.0,0.0,0.0,0.0,0.0,0.0,0.0,0.0,0.0,0.0,0.0,0.0,0.0,0.0,0.0,0.0,0.0,0.0,0.0,0.0,0.0,0.0,0.0,0.0,0.0,0.0,0.0,0.0,0.0,0.0,0.0,0.0,0.0,0.0,0.0,0.0,0.0,0.0,0.0,0.0,0.0,0.0,0.0,0.0,0.0,0.0,0.0,0.0,0.0,0.0,0.0,0.0,0.0,0.0,0.0,0.0,0.0,0.0,0.0,0.0,0.0,0.0,0.0,0.0,0.0,0.0,0.0,0.0,0.0,0.0,0.0,0.0,0.0,0.0,0.0,0.0,0.0,0.0,0.0,0.0,0.0,0.0,0.0,0.0,0.0,0.8847,0.9882,1.0742,1.0886,1.2186,1.3222,1.3646,1.4068,1.4594,1.5263,0.0,0.0,0.0,0.0,0.0,0.0,0.0,0.0,0.0,0.0,0.0,0.0,0.0,0.0,0.0,0.0,0.0,0.0,0.0,0.0,0.0,0.0,0.0,0.0,0.0,0.0,0.0,0.0,0.0,0.0,0.0,0.0,0.0,0.0,0.0,0.0,0.0,0.0,0.0,0.0,0.0,0.0,0.0,0.0,0.0,0.0,0.0,0.0,0.0,0.0,0.0,0.0,0.0,0.0,0.0,0.0,0.0,0.0,0.0,0.0,0.0,0.0,0.0,0.0,0.0,0.0,0.0,0.0,0.0,0.0,0.0,0.0,0.0,0.0,0.0,0.0,0.0,0.0,0.0,0.0,0.0,0.0,0.0,0.0,0.0,0.0,0.0,0.0,0.0,0.0,0.0,0.0,0.0,0.0,0.0,0.0,0.0,0.0,0.0,0.0,0.0,0.0,0.7559,0.8534,0.949,1.012,1.1144,1.225,1.3392,1.3476,1.3794,1.4573,0.0,0.0,0.0,0.0,0.0,0.0,0.0,0.0,0.0,0.0,0.0,0.0,0.0,0.0,0.0,0.0,0.0,0.0,0.0,0.0,0.0,0.0,0.0,0.0,0.0,0.0,0.0,0.0,0.0,0.0,0.0,0.0,0.0,0.0,0.0,0.0,0.0,0.0,0.0,0.0,0.0,0.0,0.0,0.0,0.0,0.0,0.0,0.0,0.0,0.0,0.0,0.0,0.0,0.0,0.0,0.0,0.0,0.0,0.0,0.0,0.2068,0.2357,0.0,0.0,0.0,0.0,0.0,0.0,0.0,0.0,0.0,0.0,0.0,0.0,0.0,0.0,0.0,0.0,0.0,0.0,0.0,0.0,0.0,0.0,0.0,0.0,0.0,0.0,0.0,0.0,0.0,0.0,0.0,0.0,0.0,0.0,0.0,0.0,0.0,0.0,0.0,0.0,0.7737,0.8457,0.9039,0.9192,0.9879,1.0745,1.1736,1.1822,1.2421,1.3815,1.3426,0.0,0.0,0.0,0.0,0.0,0.0,0.0,0.0,0.0,0.0,0.0,0.0,0.0,0.0,0.0,0.0,0.0,0.0,0.0,0.0,0.0,0.0,0.0,0.0,0.0,0.0,0.0,0.0,0.0,0.0,0.0,0.0,0.0,0.0,0.0,0.0,0.0,0.0,0.0,0.0,0.0,0.0,0.0,0.0,0.0,0.0,0.0,0.0,0.0,0.0,0.0,0.0,0.0,0.0,0.0,0.0,0.0,0.0,0.0,0.1093,0.1344,0.0,0.0,0.0,0.0,0.0,0.0,0.0,0.0,0.0,0.0,0.0,0.0,0.0,0.0,0.0,0.0,0.0,0.0,0.0,0.0,0.0,0.0,0.0,0.0,0.0,0.0,0.0,0.0,0.0,0.0,0.0,0.0,0.0,0.0,0.0,0.0,0.0,0.0,0.0,0.0,0.682,0.7724,0.836,0.836,0.9292,1.0096,1.0604,1.1036,1.1671,1.2485,1.2945,0.0,0.0,0.0,0.0,0.0,0.0,0.0,0.0,0.0,0.0,0.0,0.0,0.0,0.0,0.0,0.0,0.0,0.0,0.0,0.0,0.0,0.0,0.0,0.0,0.0,0.0,0.0,0.0,0.0,0.0,0.0,0.0,0.0,0.0,0.0,0.0,0.0,0.0,0.0,0.0,0.0,0.0,0.0,0.0,0.0,0.0,0.0,0.0,0.0,0.0,0.0,0.0,0.0,-0.0179,-0.0113,-0.0316,-0.009,0.0113,0.0336,0.0454,0.0447,0.0447,0.1404,0.0,0.0,0.0,0.0,0.0,0.0,0.0,0.0,0.0,0.0,0.0,0.0,0.0,0.0,0.0,0.0,0.0,0.0,0.0,0.0,0.0,0.0,0.6952,0.7305,0.7459,0.7465,0.733,0.0,0.0,0.0,0.0,0.0,0.0,0.0,0.0,0.0,0.0,0.0,0.5886,0.6871,0.7614,0.7614,0.8703,0.9466,0.964,1.0366,1.0927,1.1164,1.2552,1.3273,0.0,0.0,0.0,0.0,0.0,0.0,0.0,0.0,0.0,0.0,0.0,0.0,0.0,0.0,0.0,0.0,0.0,0.0,0.0,0.0,0.0,0.0,0.0,0.0,0.0,0.0,0.0,0.0,0.0,0.0,0.0,0.0,-0.2532,-0.2485,0.0,0.0,0.0,0.0,0.0,0.0,0.0,0.0,0.0,0.0,0.0,0.0,0.0,-0.0715,-0.0347,-0.0376,-0.0293,-0.0092,-0.0023,-0.0023,-0.0046,-0.0023,0.0023,0.0045,0.0067,0.0,0.0689,0.1245,0.0,0.0,0.0,0.0,0.0,0.0,0.0,0.0,0.0,0.0,0.0,0.0,0.0,0.0,0.0,0.0,0.0,0.0,0.0,0.0,0.0,0.0,0.5517,0.5741,0.6065,0.6372,0.6509,0.6858,0.7039,0.6636,0.6278,0.6126,0.0,0.0,0.0,0.0,0.0,0.0,0.6302,0.6678,0.6922,0.6922,0.7253,0.7797,0.8601,0.8798,0.9402,1.062,1.1478,1.2106,1.241,1.3363,0.0,0.0,0.0,0.0,0.0,0.0,0.0,0.0,0.0,0.0,0.0,0.0,0.0,0.0,0.0,0.0,0.0,0.0,0.0,0.0,0.0,0.0,0.0,0.0,0.0,0.0,0.0,0.0,0.0,-0.3229,-0.313,-0.3629,-0.4365,-0.4798,0.0,0.0,0.0,0.0,0.0,0.0,0.0,0.0,0.0,-0.1633,-0.1804,-0.135,-0.0133,-0.0156,-0.0113,0.0,0.0,0.0,0.0,0.0,0.0,0.0,0.0,0.0112,0.0337,0.0695,0.0781,0.0752,0.0,0.0,0.0,0.0,0.1773,0.2481,0.2654,0.2892,0.3184,0.3674,0.0,0.0,0.0,0.0,0.0,0.0,0.0,0.4502,0.4502,0.4851,0.5246,0.54,0.5816,0.6114,0.5926,0.6283,0.6603,0.6429,0.6336,0.6254,0.6096,0.583,0.0,0.0,0.0,0.6169,0.6362,0.6634,0.6795,0.6795,0.6988,0.7268,0.7687,0.8301,0.8938,0.9539,1.0452,1.1012,1.1126,1.2047,1.2469,0.0,0.0,0.0,0.0,0.0,0.0,0.0,0.0,0.0,0.0,0.0,0.0,0.0,0.0,0.0,0.0,0.0,0.0,0.0,0.0,0.0,0.0,0.0,0.0,0.0,0.0,0.0,0.0,-0.3421,-0.335,-0.4234,-0.4556,-0.4702,0.0,0.0,0.0,0.0,0.0,0.0,-0.3602,-0.3783,-0.3103,-0.1388,-0.1882,-0.1458,-0.0022,0.0,0.0,0.0,0.0,0.0,0.0,0.0,0.0,0.0,0.0,0.0,0.0022,0.0224,0.0179,0.0022,0.0223,0.0179,0.0,0.0067,0.0765,0.1671,0.1794,0.2065,0.2473,0.3194,0.2796,0.2131,0.2798,0.0,0.0,0.0,0.0,0.3945,0.3945,0.429,0.4697,0.4792,0.5321,0.5714,0.535,0.5819,0.6245,0.6103,0.6222,0.6242,0.5857,0.5719,0.0,0.6252,0.6233,0.6279,0.6539,0.6745,0.6877,0.6877,0.701,0.7098,0.7098,0.7923,0.8488,0.8595,0.9552,1.0117,1.0108,1.0902,1.1413,1.1581,0.0,0.0,0.0,0.0,0.0,0.0,0.0,0.0,0.0,0.0,0.0,0.0,0.0,0.0,0.0,0.0,0.0,0.0,0.0,0.0,0.0,0.0,0.0,0.0,0.0,0.0,0.0,0.0,0.0,-0.3549,-0.3434,0.0,0.0,0.0,0.0,-0.4342,-0.3894,-0.3117,-0.1988,-0.1944,-0.1364,-0.0135,-0.0135,-0.009,0.0,0.0,0.0,0.0,0.0,0.0,0.0,0.0,0.0,0.0,0.0,0.0,0.0,0.0022,0.0022,0.0,0.0022,0.0022,0.0023,0.0294,0.0432,0.0556,0.0991,0.1173,0.1226,0.1533,0.147,0.1304,0.154,0.1469,0.0,0.0,0.1991,0.2417,0.2417,0.2796,0.3195,0.3225,0.4011,0.4747,0.4664,0.5528,0.6138,0.556,0.545,0.5468,0.5502,0.0,0.5708,0.6312,0.639,0.6539,0.7003,0.7076,0.7076,0.7076,0.7098,0.7098,0.7098,0.733,0.7641,0.8014,0.8862,0.9511,0.9895,1.0501,1.0629,1.0204,1.0952,0.0,0.0,0.0,0.0,0.0,0.0,0.0,0.0,0.0,0.0,0.0,0.0,0.0,0.0,0.0,0.0,0.0,0.0,0.0,0.0,0.0,0.0,0.0,0.0,0.0,0.0,0.0,0.0,-0.415,-0.4158,0.0,-0.438,-0.4332,-0.4176,-0.3868,-0.353,-0.3107,-0.2531,-0.2509,-0.2016,-0.0942,-0.0897,-0.0606,0.0,0.0,0.0,0.0,0.0,0.0,0.0,0.0,0.0,0.0,0.0,0.0,0.0,0.0,0.0,0.0,0.0,0.0,0.0023,0.0113,0.0248,0.0432,0.0581,0.0744,0.0882,0.1161,0.1311,0.1406,0.1478,0.1454,0.1406,0.1478,0.1765,0.2075,0.2266,0.2526,0.2835,0.3049,0.3878,0.4634,0.4601,0.5432,0.6112,0.5894,0.579,0.5725,0.5746,0.5697,0.5797,0.6251,0.6378,0.6517,0.6855,0.701,0.7098,0.7098,0.7098,0.7098,0.7098,0.7373,0.7589,0.7738,0.8206,0.8442,0.843,0.9317,1.0025,1.0409,1.1258,1.2085,0.0,0.0,0.0,0.0,0.0,0.0,0.0,0.0,0.0,0.0,0.0,0.0,0.0,0.0,0.0,0.0,0.0,0.0,0.0,0.0,0.0,0.0,0.0,0.0,0.0,-0.3384,-0.3307,-0.415,-0.3823,-0.36,-0.3801,-0.3467,-0.3087,-0.2774,-0.2506,-0.226,-0.2061,-0.2061,-0.1748,-0.1077,-0.1054,-0.0763,-0.0135,-0.0135,-0.009,0.0,0.0,0.0,0.0,0.0,0.0,0.0,0.0,0.0,0.0,0.0,0.0,0.0,0.0,0.0,0.0,0.0,0.0113,0.0273,0.0371,0.061,0.09,0.1087,0.1308,0.1543,0.153,0.1533,0.1533,0.1533,0.1727,0.1994,0.2262,0.2503,0.2745,0.3061,0.3791,0.4437,0.4598,0.5308,0.5942,0.6071,0.6018,0.5964,0.5964,0.5904,0.5968,0.6397,0.648,0.6591,0.6956,0.7066,0.7098,0.7098,0.7098,0.7098,0.7098,0.7561,0.7817,0.7745,0.807,0.8175,0.7947,0.8597,0.9234,0.9807,1.0888,1.2263,1.3931,0.0,0.0,0.0,0.0,0.0,0.0,0.0,0.0,0.0,0.0,0.0,0.0,0.0,0.0,0.0,0.0,0.0,0.0,0.0,0.0,0.0,0.0,0.0,-0.2654,-0.2392,-0.2511,-0.3422,-0.2263,-0.1792,-0.2755,-0.1792,-0.1099,-0.1099,-0.0852,-0.0628,-0.0426,-0.0403,-0.0403,-0.0403,-0.0403,-0.0403,-0.0403,-0.0403,-0.0269,-0.0022,-0.0022,-0.0022,-0.0022,-0.0022,-0.0023,-0.0023,-0.0023,-0.0023,-0.0023,-0.0023,-0.0022,-0.0022,0.0,0.0,0.0,0.0,0.0,0.0046,0.0307,0.0724,0.1182,0.1178,0.1372,0.1579,0.1582,0.1592,0.1592,0.1592,0.1794,0.2071,0.2322,0.2599,0.2876,0.3128,0.3607,0.4139,0.4598,0.5123,0.5635,0.605,0.6123,0.6118,0.6112,0.6107,0.6249,0.672,0.6682,0.0,0.7334,0.7222,0.7112,0.7112,0.7112,0.7105,0.7105,0.7837,0.8201,0.7996,0.8493,0.8743,0.8627,0.8439,0.8372,0.8411,0.9883,1.1542,1.3425,0.0,0.0,0.0,0.0,0.0,0.0,0.0,0.0,0.0,0.0,0.0,0.0,0.0,0.0,0.0,0.0,0.0,0.0,0.0,0.0,0.0,-0.2423,-0.2141,-0.2308,-0.1921,-0.1727,-0.1972,-0.1636,-0.1503,-0.1792,-0.1503,-0.1256,-0.1122,-0.1031,-0.0874,-0.0628,-0.0628,-0.0628,-0.0628,-0.0628,-0.0628,-0.0628,-0.0628,-0.0583,-0.0516,-0.0516,-0.0543,-0.0574,-0.0519,-0.0526,-0.0591,-0.0579,-0.0575,-0.0555,-0.0374,-0.03,-0.0269,-0.0067,0.0,0.0,0.0,0.0,0.0,0.0093,0.0334,0.0614,0.0617,0.0921,0.1305,0.1312,0.144,0.1592,0.1592,0.1794,0.2071,0.2322,0.2599,0.2876,0.3128,0.3607,0.4153,0.4652,0.5196,0.5787,0.6473,0.6615,0.651,0.6163,0.6107,0.6201,0.6532,0.6667,0.6876,0.7203,0.7379,0.7475,0.7475,0.7475,0.7428,0.7319,0.7883,0.8087,0.7809,0.8332,0.8838,0.9227,0.9206,0.9804,1.116,1.2647,1.3662,0.0,0.0,0.0,0.0,0.0,0.0,0.0,0.0,0.0,0.0,0.0,0.0,0.0,0.0,0.0,0.0,0.0,0.0,0.0,0.0,0.0,0.0,-0.2344,-0.2036,-0.188,-0.1592,-0.1391,-0.1391,-0.1391,-0.1391,-0.1391,-0.1391,-0.1346,-0.1234,-0.1234,-0.1122,-0.0874,-0.0874,-0.0874,-0.0874,-0.0874,-0.0874,-0.0874,-0.0874,-0.0807,-0.0695,-0.0695,-0.0729,-0.0796,-0.0763,-0.078,-0.084,-0.0848,-0.0845,-0.0827,-0.0683,-0.0602,-0.0565,0.0,0.0,0.0,0.0,0.0,0.0,0.0,0.026,0.0559,0.0563,0.094,0.1375,0.1361,0.1465,0.1592,0.1592,0.1718,0.192,0.2297,0.2521,0.2725,0.3103,0.343,0.3808,0.4358,0.4885,0.5461,0.6162,0.6492,0.0,0.6282,0.6399,0.6647,0.6912,0.7008,0.7138,0.7417,0.7537,0.7597,0.7597,0.7597,0.761,0.766,0.817,0.0,0.0,0.0,0.975,1.0353,1.0378,0.0,0.0,0.0,1.4009,1.4335,1.4206,0.0,0.0,1.4235,1.4092,0.0,0.0,0.0,0.0,0.0,0.0,0.0,0.0,0.0,0.0,0.0,0.0,0.0,0.0,0.0,0.0,-0.2509,-0.2116,-0.1643,-0.1579,-0.1532,-0.1413,-0.1391,-0.1391,-0.1391,-0.1391,-0.1391,-0.1391,-0.1391,-0.1325,-0.1147,-0.1147,0.0,0.0,0.0,-0.1152,-0.1152,-0.1152,-0.1016,-0.079,-0.079,-0.0831,-0.0888,-0.0886,-0.0914,-0.0936,-0.0971,-0.0947,-0.0882,-0.092,-0.0939,-0.0832,-0.0263,-0.0046,-0.0045,0.0,0.0,0.0,0.0,0.0,0.0,0.0711,0.1084,0.1507,0.1508,0.1541,0.1592,0.1592,0.1617,0.1743,0.2221,0.2372,0.2521,0.3027,0.3153,0.3305,0.3883,0.4383,0.4885,0.5536,0.6037,0.6387,0.6487,0.6861,0.7241,0.7522,0.7488,0.7526,0.7793,0.7726,0.7651,0.7651,0.7651,0.0,0.7954,0.8629,0.9453,1.0454,1.0811,1.1202,1.1749,1.1838,1.2268,1.3114,1.3146,1.3482,1.4124,1.4166,1.4166,1.4179,1.4238,1.3846,0.0,0.0,0.0,0.0,0.0,0.0,0.0,0.0,0.0,0.0,0.0,0.0,0.0,0.0,0.0,-0.3421,-0.3106,-0.2803,-0.2711,-0.2728,-0.2421,-0.1508,-0.1391,-0.1391,-0.1391,-0.1391,-0.1391,-0.1391,-0.1391,-0.1401,-0.1425,-0.1426,-0.1414,-0.1414,-0.1415,-0.1415,-0.1415,-0.1415,-0.139,-0.1343,-0.1343,0.0,-0.1448,-0.145,-0.1361,-0.1247,-0.1458,-0.1268,-0.0832,-0.1102,-0.1098,-0.085,-0.0477,-0.0319,-0.029,-0.0072,0.0,0.0,0.0,0.0074,0.015,0.015,0.0527,0.0955,0.0958,0.1263,0.0,0.1592,0.1768,0.1945,0.2046,0.2246,0.2471,0.2801,0.2876,0.3078,0.383,0.4085,0.4508,0.5691,0.6017,0.6292,0.6936,0.6942,0.6967,0.7241,0.7447,0.7651,0.7923,0.7946,0.7932,0.7932,0.7932,0.7902,0.7852,0.9023,0.9858,1.0011,1.1659,1.2683,1.2811,1.3324,1.3694,1.3886,1.4042,1.4206,1.4342,1.451,1.4573,1.4587,1.4712,1.4774,0.0,0.0,0.0,0.0,0.0,0.0,0.0,0.0,0.0,0.0,0.0,-0.4263,-0.433,0.0,-0.3901,-0.3776,-0.3333,-0.3003,-0.305,-0.2841,-0.2576,-0.2294,-0.201,-0.1849,-0.1849,-0.1619,-0.1457,-0.1457,-0.1457,-0.1464,-0.1502,-0.1504,-0.151,-0.1502,-0.1502,-0.1502,-0.1502,-0.1502,-0.1502,-0.1503,-0.1542,-0.158,-0.164,-0.1639,-0.1522,-0.1313,-0.1627,-0.1486,-0.1054,-0.1226,-0.1136,-0.0879,-0.0533,-0.0389,-0.0374,-0.01,0.0,0.0,0.0,0.0076,0.0205,0.0205,0.0464,0.0831,0.0987,0.1246,0.148,0.1609,0.1738,0.1891,0.2028,0.2149,0.2347,0.2704,0.2801,0.2952,0.3481,0.3808,0.421,0.486,0.5441,0.6062,0.6861,0.721,0.7366,0.721,0.7416,0.7646,0.7796,0.7914,0.7988,0.7988,0.7988,0.8252,0.8852,1.0773,1.1881,1.1708,1.3317,1.4126,1.3811,1.4117,1.4271,1.425,1.4363,1.4454,1.4538,1.4657,1.4699,1.4699,1.5077,1.5257,0.0,0.0,0.0,0.0,0.0,0.0,0.0,-0.4291,-0.4336,-0.431,-0.4332,-0.4402,-0.4452,-0.4452,-0.4344,-0.4084,-0.3629,-0.3305,-0.3257,-0.2906,-0.2745,-0.3085,-0.2633,-0.2309,-0.2309,-0.1811,-0.1502,-0.1502,-0.1502,-0.1504,-0.1511,-0.1511,-0.1514,-0.1519,-0.1519,-0.1519,-0.1519,-0.1519,-0.1519,-0.1519,-0.1569,-0.1637,-0.1697,-0.1693,-0.1547,-0.1318,-0.1542,-0.1542,-0.1402,-0.1318,-0.1224,-0.1045,-0.0641,-0.0488,-0.0464,-0.0128,0.0,0.0,0.0,0.013,0.0315,0.0315,0.066,0.1093,0.12,0.1414,0.1652,0.1677,0.1704,0.1805,0.2249,0.237,0.2544,0.3196,0.3363,0.344,0.377,0.4177,0.4532,0.471,0.5466,0.6351,0.7107,0.7818,0.8131,0.7665,0.7814,0.7995,0.7995,0.8262,0.8492,0.8528,0.8628,0.9233,1.0575,1.2671,1.3918,1.3957,1.4861,1.5202,1.4767,1.4647,1.4583,1.4519,1.4612,1.4718,1.4901,1.4986,1.5014,1.505,1.5533,1.5605,-0.4985,-0.4279,-0.3909,-0.459,-0.4547,-0.4326,0.0,-0.4475,-0.4585,-0.4634,-0.4655,-0.4667,-0.4675,-0.4614,-0.4561,-0.4522,-0.4518,-0.4351,-0.3884,-0.3818,-0.3657,-0.3235,-0.265,-0.2309,-0.2309,-0.1811,-0.1502,-0.1502,-0.1502,-0.1538,-0.1589,-0.1591,-0.1579,-0.1581,-0.1582,-0.1582,-0.1582,-0.1582,-0.1582,-0.1582,-0.1585,-0.1643,-0.17,-0.1703,-0.1547,-0.129,-0.1093,-0.129,-0.1711,-0.143,-0.1457,-0.165,-0.1065,-0.0837,-0.0775,-0.0218,0.0,0.0,0.0,0.0027,0.0054,0.0054,0.0942,0.1915,0.1173,0.1812,0.266,0.1917,0.1704,0.1942,0.3053,0.3342,0.3683,0.5041,0.5378,0.551,0.6008,0.6165,0.6458,0.7223,0.7668,0.8086,0.8666,0.9031,0.9186,0.9011,0.9196,0.9377,0.9377,0.9813,1.0209,1.0465,1.0901,1.1721,1.2995,1.359,1.4414,1.557,1.5506,1.5481,1.5638,1.519,1.4941,1.4923,1.5345,1.5567,1.5589,1.6016,1.6213,1.6213,1.6279,1.6162,-0.425,-0.3842,-0.3767,-0.4403,-0.4451,-0.4379,-0.4496,-0.4585,-0.449,-0.3887,-0.3805,-0.3636,-0.3014,-0.2872,-0.2855,-0.2855,-0.2627,-0.2415,-0.2338,-0.2229,-0.2066,-0.1838,-0.1441,-0.1501,-0.229,-0.1873,-0.1554,-0.1554,-0.1554,-0.1559,-0.1598,-0.1598,-0.1603,-0.1592,-0.1592,-0.1592,-0.1592,-0.1592,-0.1592,-0.1592,-0.1635,-0.1665,-0.1705,-0.175,-0.17,-0.157,-0.1262,-0.129,-0.1458,-0.0813,-0.0533,-0.0449,0.0364,0.0897,0.1092,0.0306,0.0,0.0112,0.0806,0.1054,0.1165,0.1857,0.2508,0.2987,0.277,0.3126,0.3534,0.3373,0.3452,0.369,0.4192,0.4425,0.4736,0.5505,0.5704,0.5809,0.6179,0.6389,0.6574,0.6764,0.7448,0.8131,0.8629,0.9212,0.9766,1.0128,0.9925,0.9721,0.9721,1.0052,1.0467,1.0929,1.1722,1.2567,1.3422,1.4315,1.5077,1.562,1.5681,1.5662,1.5578,1.5549,1.548,1.5425,1.5595,1.5831,1.6111,1.6151,1.6242,1.6396,1.6609,1.663,-0.3344,-0.2993,-0.2844,-0.3448,-0.3575,-0.3582,-0.3701,-0.3784,-0.3607,-0.2835,-0.272,-0.2519,-0.1739,-0.1588,-0.159,-0.1598,-0.127,-0.1042,-0.1047,-0.0819,-0.0614,-0.046,-0.0179,-0.0384,-0.1357,-0.1143,-0.0934,-0.0934,-0.0934,-0.0934,-0.0934,-0.0913,-0.0916,-0.0916,-0.0895,-0.0871,-0.0871,-0.1128,-0.1128,-0.0897,-0.1196,-0.1217,-0.0946,-0.0995,-0.1011,-0.0995,-0.0739,-0.0625,-0.0568,0.0256,0.0682,0.0966,0.1902,0.2527,0.278,0.1532,0.1044,0.1121,0.1987,0.2295,0.2435,0.3329,0.3832,0.4083,0.4027,0.4226,0.4505,0.4589,0.4756,0.4992,0.5397,0.5654,0.5936,0.6448,0.6615,0.6743,0.7018,0.7256,0.7392,0.7365,0.8096,0.8885,0.9309,0.9923,1.0521,1.1071,1.0648,1.0284,1.0238,1.0663,1.1194,1.1784,1.2743,1.3497,1.3886,1.4972,1.564,1.5716,1.5833,1.5834,1.5644,1.5878,1.6104,1.6286,1.6167,1.6551,1.7493,1.7045,1.7048,1.7543,1.7719,1.7803,-0.2258,-0.1443,-0.0598,-0.1388,-0.1495,-0.1434,-0.156,-0.1592,-0.1601,-0.1631,-0.1638,-0.1638,-0.1613,-0.1588,-0.1597,-0.1598,-0.1576,-0.1379,-0.0795,-0.0478,-0.0133,0.0399,0.0744,0.093,0.0903,0.0798,0.0731,0.0731,0.0731,0.0731,0.0731,0.0794,0.0828,0.0828,0.0895,0.093,0.093,0.0027,0.0027,0.0903,0.0,0.0027,0.0925,0.0984,0.0998,0.1027,0.1027,0.1027,0.1086,0.176,0.2052,0.214,0.3076,0.3457,0.3515,0.3691,0.365,0.3497,0.3525,0.3553,0.3553,0.358,0.4393,0.5174,0.4282,0.4812,0.5624,0.5063,0.4892,0.5226,0.6672,0.7038,0.7343,0.8533,0.8945,0.9158,0.9441,0.9617,0.9867,1.0444,1.0847,1.1191,1.1536,1.1677,1.1752,1.178,1.1642,1.1495,1.1375,1.228,1.3119,1.3646,1.4445,1.4938,1.4965,1.5515,1.5994,1.6246,1.6025,1.6006,1.6265,1.6265,1.6787,1.7799,1.7307,1.8124,2.028,1.928,1.9343,2.0365,2.0172,2.011,-0.1068,-0.0785,-0.046,-0.118,-0.1327,-0.1317,-0.1417,-0.1438,-0.1253,-0.0599,-0.0518,-0.0308,0.0462,0.0591,0.0592,0.0596,0.0602,0.0713,0.1118,0.1092,0.1225,0.1757,0.1757,0.1811,0.197,0.1343,0.0941,0.0941,0.0941,0.0941,0.0941,0.0946,0.0976,0.0976,0.0982,0.1018,0.1057,0.0758,0.0763,0.113,0.078,0.0728,0.1011,0.1073,0.1088,0.1117,0.1557,0.1762,0.1851,0.3113,0.364,0.3728,0.461,0.5196,0.5576,0.5668,0.5893,0.6067,0.5257,0.4994,0.5113,0.5923,0.647,0.6718,0.6303,0.6483,0.6779,0.6702,0.6821,0.7121,0.7848,0.8248,0.8598,0.8998,0.922,0.9364,0.9443,0.9629,0.9809,0.9838,1.0243,1.0561,1.0474,1.0802,1.1179,1.1487,1.1557,1.1656,1.1791,1.2106,1.2629,1.3392,1.3696,1.4045,1.4439,1.4654,1.5137,1.5977,1.6119,1.6557,1.7396,1.8117,1.8676,1.9019,1.919,1.9732,2.0671,2.0144,2.0246,2.0914,2.0826,2.09,0.0075,0.0173,0.0272,-0.0123,-0.0223,-0.0251,-0.0282,-0.0285,-0.0105,0.0531,0.0633,0.0836,0.1559,0.1688,0.1692,0.1702,0.1692,0.1766,0.1978,0.1927,0.2008,0.2362,0.2335,0.239,0.2552,0.1981,0.1592,0.1546,0.1544,0.1598,0.1704,0.1725,0.1817,0.1925,0.1977,0.2028,0.2077,0.1702,0.1538,0.1584,0.1925,0.2052,0.2046,0.2071,0.2095,0.2125,0.2542,0.2751,0.284,0.4061,0.4717,0.5015,0.5826,0.6515,0.708,0.708,0.7317,0.7514,0.6632,0.6341,0.6457,0.7251,0.7489,0.7473,0.7397,0.737,0.7411,0.7681,0.7878,0.8076,0.8386,0.8682,0.8953,0.9067,0.9203,0.9339,0.9433,0.965,0.9773,0.9743,1.0038,1.0274,1.0178,1.0427,1.0707,1.0972,1.1153,1.1417,1.18,1.1946,1.2219,1.2772,1.3125,1.3613,1.4428,1.4681,1.5298,1.6444,1.675,1.7252,1.7963,1.8838,1.9513,1.9901,1.9985,2.0543,2.1694,2.108,2.1322,2.2309,2.2265,2.2339,0.1118,0.1391,0.1624,0.1681,0.1689,0.1697,0.17,0.1708,0.1708,0.1708,0.1681,0.1699,0.1697,0.1693,0.1675,0.17,0.1707,0.1729,0.1785,0.2018,0.2188,0.2188,0.2468,0.2666,0.2666,0.2666,0.2602,0.2465,0.251,0.267,0.2993,0.3088,0.3283,0.3591,0.3735,0.3798,0.3798,0.284,0.2386,0.2386,0.3335,0.3834,0.3891,0.3893,0.3889,0.3889,0.3951,0.3951,0.4013,0.4684,0.5325,0.597,0.6644,0.7286,0.7841,0.7903,0.7903,0.787,0.7616,0.7506,0.7506,0.7506,0.7506,0.7506,0.75,0.75,0.7582,0.7898,0.8008,0.8073,0.8341,0.8405,0.8492,0.8813,0.9003,0.9165,0.9499,0.9667,0.9883,1.0186,1.0277,1.0391,1.0732,1.0599,1.0443,1.0338,1.0511,1.0903,1.1505,1.1818,1.1982,1.201,1.2801,1.3769,1.4869,1.5523,1.6377,1.7529,1.7858,1.8042,1.8094,1.8643,1.945,2.0508,1.9828,2.0729,2.3281,2.2126,2.2589,2.4511,2.4382,2.4339,0.1131,0.1404,0.1624,0.1681,0.1704,0.1701,0.1758,0.1783,0.1772,0.1772,0.1589,0.1464,0.1729,0.1565,0.148,0.168,0.1742,0.177,0.179,0.1864,0.1908,0.1908,0.1964,0.202,0.202,0.202,0.2012,0.1995,0.2573,0.2987,0.307,0.3388,0.3597,0.3683,0.3759,0.3798,0.3798,0.3547,0.3423,0.3423,0.3718,0.3875,0.3891,0.3893,0.3889,0.392,0.4438,0.465,0.4711,0.5356,0.5755,0.597,0.6644,0.7011,0.7225,0.7719,0.7903,0.7892,0.7832,0.781,0.781,0.781,0.781,0.7763,0.7682,0.7655,0.7692,0.7921,0.8008,0.8073,0.8341,0.8466,0.8568,0.8657,0.8821,0.8981,0.9048,0.9249,0.9457,0.9548,0.9761,1.0035,1.0368,1.0269,1.0214,1.0406,1.0412,1.0616,1.1216,1.1569,1.1853,1.2051,1.3125,1.3943,1.4236,1.5265,1.6387,1.7516,1.7858,1.8382,1.9231,2.0163,2.0806,2.1088,2.148,2.2164,2.3143,2.2835,2.3425,2.4801,2.4743,2.5064,0.1308,0.1512,0.1644,0.17,0.1729,0.176,0.179,0.17,0.157,0.157,0.1335,0.1213,0.1533,0.1421,0.139,0.17,0.1781,0.1801,0.1797,0.1812,0.18,0.1813,0.1786,0.182,0.1834,0.1978,0.2064,0.2064,0.2461,0.2783,0.2974,0.331,0.3614,0.3787,0.382,0.3812,0.3759,0.3759,0.3773,0.3801,0.3834,0.3878,0.3902,0.3904,0.3889,0.392,0.4287,0.4469,0.4499,0.5172,0.5632,0.597,0.6644,0.7072,0.7378,0.775,0.7903,0.7903,0.7903,0.7903,0.7903,0.7903,0.7903,0.7892,0.7826,0.7774,0.7823,0.7931,0.8008,0.8083,0.8233,0.8362,0.8437,0.8532,0.8634,0.8768,0.8867,0.9098,0.9305,0.9305,0.9937,1.0505,1.0717,1.1213,1.1687,1.1874,1.193,1.2097,1.2419,1.2385,1.2422,1.2736,1.4009,1.503,1.5527,1.6385,1.734,1.8494,1.8935,1.9428,2.0079,2.0818,2.1212,2.1212,2.1657,2.2172,2.2738,2.2738,2.337,2.4571,2.4571,2.4986,0.1522,0.1639,0.1695,0.1697,0.1754,0.1812,0.1789,0.157,0.1374,0.1374,0.1149,0.1033,0.132,0.1341,0.1421,0.1749,0.1804,0.1787,0.1791,0.1798,0.1812,0.1814,0.1817,0.1828,0.1883,0.2211,0.2388,0.2388,0.2354,0.25,0.285,0.3191,0.3539,0.3899,0.3894,0.3839,0.3732,0.3724,0.3754,0.3823,0.3823,0.3856,0.3911,0.3911,0.3911,0.3911,0.3911,0.3911,0.3973,0.4555,0.5139,0.5725,0.6408,0.7024,0.7547,0.7639,0.7736,0.7798,0.7798,0.7859,0.7946,0.7913,0.7903,0.7903,0.7903,0.7903,0.7903,0.7919,0.8001,0.8088,0.8104,0.8155,0.8273,0.8603,0.8668,0.8763,0.9143,0.9455,0.9669,0.97,1.0647,1.1413,1.1413,1.2595,1.3575,1.3575,1.3844,1.4053,1.4113,1.3645,1.3413,1.3709,1.5069,1.6417,1.7431,1.7948,1.8642,1.9677,2.0168,2.0441,2.0496,2.0795,2.0985,2.1039,2.1066,2.1488,2.2247,2.2247,2.29,2.418,2.418,2.4479,0.1517,0.1639,0.1695,0.1697,0.1754,0.1812,0.1789,0.1767,0.1711,0.1711,0.1458,0.1317,0.1648,0.1491,0.1421,0.1749,0.1804,0.1787,0.1791,0.1789,0.1814,0.1874,0.1877,0.188,0.1885,0.2211,0.2388,0.2388,0.2842,0.3128,0.3223,0.3572,0.3842,0.3901,0.3886,0.388,0.3858,0.3809,0.3809,0.3888,0.3888,0.395,0.4064,0.4064,0.4064,0.4064,0.4064,0.4064,0.4064,0.4188,0.4316,0.4476,0.5145,0.5496,0.5655,0.6197,0.6801,0.7309,0.7309,0.7695,0.8107,0.7968,0.7903,0.7903,0.7903,0.7903,0.7924,0.8023,0.8066,0.811,0.8176,0.8188,0.8422,0.9348,0.9564,0.9836,1.0762,1.1227,1.154,1.1823,1.193,1.1949,1.1949,1.2478,1.2877,1.2877,1.3396,1.3844,1.4083,1.4232,1.436,1.4419,1.5616,1.6588,1.7065,1.8117,1.8927,1.936,1.9484,1.9648,1.9937,2.021,2.0456,2.0686,2.0958,2.1421,2.2057,2.2057,2.2715,2.3961,2.3961,2.4294,0.1566,0.165,0.1688,0.17,0.174,0.1805,0.1791,0.1655,0.1542,0.1542,0.129,0.1177,0.1486,0.1421,0.1409,0.1752,0.1804,0.1797,0.1795,0.1835,0.1876,0.1906,0.191,0.1915,0.1962,0.2264,0.2445,0.2445,0.2897,0.3217,0.3339,0.3691,0.3905,0.3902,0.3905,0.3875,0.3842,0.3845,0.3861,0.3889,0.395,0.4009,0.4093,0.4093,0.4093,0.4093,0.4093,0.4093,0.4125,0.4479,0.4608,0.4672,0.5344,0.5633,0.5665,0.5985,0.6787,0.7714,0.7714,0.8417,0.9322,0.9224,0.8682,0.8062,0.8062,0.8106,0.8171,0.8225,0.8781,0.9335,0.9264,0.9737,1.0313,1.067,1.0668,1.0834,1.1498,1.1657,1.1751,1.2067,1.2591,1.2968,1.2968,1.3846,1.4638,1.4993,1.5308,1.5703,1.6219,1.629,1.6127,1.5639,1.6721,1.7611,1.7952,1.8672,1.9235,1.9526,1.9709,1.9878,2.0061,2.0314,2.0524,2.0664,2.0987,2.1369,2.1844,2.2153,2.2736,2.3492,2.384,2.4224,0.1592,0.1659,0.1704,0.1704,0.175,0.1878,0.213,0.199,0.1877,0.2129,0.2017,0.1849,0.1793,0.1789,0.1778,0.1789,0.18,0.1798,0.1816,0.1861,0.1907,0.1907,0.1911,0.1951,0.2005,0.2315,0.2529,0.259,0.3237,0.3559,0.3426,0.3658,0.3856,0.393,0.3941,0.3924,0.3875,0.3924,0.3948,0.3977,0.4336,0.452,0.4615,0.4907,0.5069,0.5069,0.5069,0.5069,0.5101,0.562,0.5847,0.5911,0.6429,0.6623,0.6623,0.6623,0.7426,0.8521,0.8586,0.9485,1.0582,1.0678,0.9838,0.8779,0.884,0.8948,0.9107,0.9192,1.0025,1.0847,1.0692,1.1392,1.2127,1.2088,1.2137,1.2259,1.2505,1.2338,1.2242,1.2497,1.332,1.3978,1.3978,1.5108,1.6177,1.6704,1.689,1.721,1.7765,1.779,1.7487,1.6727,1.7569,1.8327,1.8677,1.8894,1.9182,1.9555,1.9904,2.0135,2.0262,2.0553,2.0713,2.08,2.1148,2.1466,2.1798,2.2343,2.2902,2.3512,2.384,2.4363,0.1592,0.1659,0.1704,0.1704,0.175,0.2074,0.3192,0.3413,0.3692,0.4804,0.4999,0.4665,0.358,0.3341,0.2967,0.1953,0.1795,0.1817,0.187,0.1906,0.1939,0.1969,0.2003,0.2005,0.2008,0.2315,0.2621,0.2929,0.4619,0.5015,0.3571,0.353,0.3682,0.3988,0.4042,0.4066,0.4061,0.4066,0.4099,0.4191,0.5465,0.6132,0.6219,0.7578,0.8176,0.8176,0.8176,0.8176,0.8176,0.8242,0.8275,0.8275,0.8342,0.8375,0.8375,0.8375,0.8844,0.954,0.9891,1.0491,1.119,1.1552,1.1192,1.0704,1.087,1.1146,1.1445,1.1773,1.1944,1.2064,1.2171,1.2285,1.2562,1.3327,1.4203,1.4794,1.4651,1.4614,1.4581,1.4614,1.4562,1.4536,1.4536,1.4998,1.539,1.5452,1.5929,1.6312,1.6374,1.6909,1.7215,1.713,1.741,1.7726,1.806,1.8119,1.8336,1.8873,1.92,1.9645,2.0194,2.0539,2.084,2.117,2.147,2.1798,2.2051,2.2409,2.3388,2.4795,2.4009,2.4902,0.3826,0.3842,0.3862,0.3862,0.3929,0.4083,0.4582,0.4693,0.4832,0.5306,0.5389,0.525,0.4777,0.4668,0.4478,0.4,0.3952,0.3993,0.4104,0.4174,0.3935,0.3229,0.3328,0.3143,0.2375,0.3297,0.4337,0.5287,0.6053,0.6355,0.5978,0.6143,0.6321,0.6478,0.6601,0.6682,0.6682,0.6739,0.676,0.6795,0.7384,0.7697,0.7741,0.834,0.8607,0.8607,0.8607,0.8607,0.8607,0.8607,0.8607,0.8607,0.8607,0.8607,0.8607,0.8607,0.9305,1.0306,1.0432,1.1233,1.2198,1.233,1.2408,1.2328,1.1868,1.1721,1.1813,1.2307,1.2927,1.3366,1.3257,1.3561,1.3953,1.4082,1.4592,1.4993,1.4917,1.4898,1.4898,1.4898,1.4832,1.4785,1.4785,1.4935,1.5221,1.5637,1.5935,1.6222,1.6626,1.7139,1.7457,1.7457,1.7763,1.8094,1.8383,1.8413,1.8613,1.9016,1.9167,1.943,1.9863,2.0227,2.056,2.0893,2.1435,2.1765,2.1855,2.2556,2.3218,2.3863,2.4699,2.5522,0.5312,0.5299,0.5289,0.5289,0.5351,0.55,0.5834,0.5894,0.6005,0.6366,0.645,0.6339,0.5973,0.5894,0.5788,0.5393,0.5394,0.5479,0.5594,0.5692,0.5437,0.4603,0.4705,0.4521,0.3722,0.4855,0.6202,0.7515,0.7698,0.8089,0.8864,0.9168,0.8992,0.8239,0.8386,0.8447,0.8447,0.8503,0.8541,0.8547,0.8999,0.9205,0.9238,0.9637,0.9836,0.9836,0.9836,0.9836,0.9836,0.9836,0.9836,0.9836,0.9836,0.9836,0.9836,0.9836,1.0472,1.1339,1.1472,1.2132,1.3005,1.3095,1.3268,1.331,1.2932,1.2683,1.2651,1.3146,1.3914,1.4475,1.4294,1.4668,1.5035,1.4706,1.4819,1.4974,1.4908,1.4898,1.4898,1.4898,1.4898,1.4898,1.4898,1.4898,1.5094,1.5616,1.5681,1.5844,1.6321,1.6829,1.7199,1.739,1.7905,1.8302,1.8564,1.8582,1.8711,1.9031,1.9154,1.9389,1.9786,2.0512,2.1063,2.1399,2.2357,2.2841,2.2856,2.3718,2.4312,2.4736,2.5965,2.6657,0.5312,0.5299,0.5289,0.5289,0.5351,0.5695,0.6816,0.7071,0.7432,0.8602,0.8857,0.8491,0.7293,0.7071,0.6705,0.5584,0.5512,0.5601,0.5601,0.5782,0.5896,0.5896,0.5896,0.6018,0.632,0.6961,0.7911,0.9164,0.9589,1.0426,1.1896,1.2136,1.1097,0.8578,0.8574,0.8601,0.8601,0.8607,0.8607,0.8607,1.0001,1.0671,1.0737,1.214,1.2774,1.2774,1.2774,1.2774,1.2774,1.2774,1.2774,1.2774,1.2774,1.2774,1.2774,1.2774,1.2766,1.284,1.3235,1.3367,1.3433,1.3785,1.3654,1.3534,1.4273,1.4455,1.4534,1.4868,1.5123,1.5285,1.5276,1.544,1.5532,1.5247,1.52,1.5144,1.4946,1.4898,1.4898,1.4898,1.4898,1.4898,1.4898,1.4898,1.4898,1.4898,1.4898,1.4898,1.4931,1.5551,1.6256,1.6936,1.7615,1.8082,1.8274,1.83,1.8408,1.8693,1.9018,1.9487,2.0049,2.1699,2.2719,2.3062,2.4717,2.5562,2.5562,2.6186,2.7155,2.8451,2.7787,2.8516,0.775,0.7752,0.7761,0.7761,0.779,0.7875,0.8242,0.8325,0.8436,0.883,0.8912,0.8774,0.8408,0.8325,0.8267,0.8045,0.8045,0.8135,0.8319,0.8384,0.813,0.7357,0.6874,0.7149,0.8581,0.8915,0.9589,1.0914,1.1095,1.1415,1.1958,1.2054,1.1791,1.1129,1.1326,1.1414,1.1337,1.1414,1.1472,1.1472,1.1901,1.2132,1.2132,1.2601,1.2807,1.2807,1.2807,1.2807,1.2807,1.2807,1.2807,1.2807,1.2807,1.2807,1.2807,1.2807,1.2807,1.2807,1.2939,1.3005,1.3005,1.3095,1.3062,1.3046,1.3444,1.3815,1.4173,1.4666,1.4832,1.4823,1.4457,1.4479,1.4623,1.456,1.4599,1.4711,1.4842,1.4898,1.4898,1.4898,1.4898,1.4898,1.4898,1.4898,1.4898,1.4898,1.4898,1.4898,1.4898,1.5551,1.6071,1.6299,1.7958,1.8976,1.8874,1.8862,1.8899,1.8983,1.9732,2.034,2.0761,2.2404,2.345,2.3791,2.4979,2.5609,2.5609,2.602,2.6991,2.851,2.8492,2.9364,0.8912,0.8912,0.8912,0.8912,0.8912,0.8912,0.8912,0.8912,0.8912,0.8912,0.8912,0.8912,0.8912,0.8912,0.896,0.9158,0.9233,0.9384,0.9755,0.9831,0.966,0.9067,0.8739,0.9043,1.0263,1.0475,1.0914,1.1746,1.1806,1.1849,1.1989,1.2062,1.2159,1.2304,1.2588,1.271,1.267,1.275,1.2807,1.2807,1.2807,1.2807,1.2807,1.2807,1.2807,1.2807,1.2807,1.2807,0.0,1.2807,1.2807,1.2807,1.2807,1.2807,1.2807,1.2807,1.2807,1.2807,1.2807,1.2807,1.2807,1.2807,1.2848,1.2937,1.3149,1.3464,1.3861,1.4281,1.4456,1.444,1.4086,1.4122,1.4288,1.4288,1.4325,1.447,1.4669,1.4702,1.4717,1.4809,1.4823,1.4828,1.4885,1.4898,1.4898,1.4898,1.4898,1.5094,1.5606,1.6094,1.6667,1.7442,1.8844,1.9814,2.003,2.0144,2.024,2.024,2.0811,2.1317,2.1646,2.3153,2.4224,2.481,2.5928,2.6645,2.6887,2.722,2.8002,2.9224,2.9383,3.0119,0.0,0.8912,0.8912,0.8912,0.8912,0.8912,0.8912,0.8912,0.0,0.8912,0.8912,0.8912,0.8912,0.8919,0.8973,0.9172,0.9328,0.9566,1.0043,1.0245,1.0459,1.0785,1.1118,1.1299,1.1337,1.1617,1.1806,1.1806,1.1815,1.1857,1.1973,1.2199,1.2304,1.2304,1.2507,1.2645,1.2783,1.2783,1.2791,1.2807,1.2791,1.2791,1.2807,1.2807,1.2807,1.2807,1.2807,1.2807,1.2807,1.2807,1.2807,1.2807,1.2807,1.2807,1.2807,1.2807,1.2807,1.2807,1.2807,1.2807,1.2807,1.2807,1.2946,1.3108,1.3329,1.349,1.3642,1.3855,1.403,1.4177,1.4177,1.425,1.4353,1.4387,1.4379,1.437,1.4404,1.4404,1.4454,1.4638,1.4669,1.4706,1.4842,1.488,1.4913,1.4913,1.4992,1.5528,1.6839,1.7087,1.7882,1.9814,2.0132,2.0589,2.1506,2.1884,2.2073,2.2104,2.2167,2.2355,2.2668,2.3992,2.5133,2.605,2.7401,2.8379,2.9005,2.9331,2.9804,3.0362,3.0392,3.0713,0.8912,0.0,0.8912,0.8912,0.8912,0.8912,0.0,0.8912,0.8912,0.8912,0.8912,0.8912,0.8912,0.9028,0.9179,0.9335,0.9456,0.9724,1.0199,1.0491,1.0815,1.1148,1.1239,1.1398,1.1647,1.1746,1.1806,1.1806,1.1898,1.1931,1.1841,1.2134,1.2304,1.2304,1.2507,1.2621,1.2661,1.2661,1.2702,1.2799,1.2694,1.2702,1.2807,1.2807,1.2807,1.2807,1.2807,1.2807,1.2807,1.2807,1.2807,1.2807,1.2807,1.2807,1.2807,1.2807,1.2807,1.2807,1.2807,1.2807,1.2807,1.2807,1.2831,1.2896,1.3108,1.3384,1.3642,1.3855,1.3943,1.3981,1.3981,1.3885,1.3858,1.4162,1.4121,1.4096,1.4336,1.4404,1.4421,1.4445,1.447,1.4486,1.451,1.4772,1.4965,1.4965,1.5995,1.6865,1.7194,1.7995,1.8716,1.9196,2.0436,2.1335,2.1587,2.1664,2.1835,2.2073,2.2825,2.3261,2.3355,2.4903,2.6067,2.6753,2.808,2.8826,2.9005,2.9331,2.9686,3.001,3.0274,3.0597,0.8926,0.8912,0.8912,0.8912,0.8912,0.8912,0.8912,0.8912,0.8912,0.8912,0.896,0.9035,0.9035,0.9186,0.9335,0.9462,0.9557,0.9809,1.043,1.0944,1.1345,1.1526,1.1526,1.1587,1.1776,1.1849,1.189,1.189,1.2021,1.2117,1.2028,1.228,1.2426,1.2426,1.2596,1.2686,1.2686,1.2686,1.2775,1.2954,1.2856,1.2938,1.3084,1.3084,1.3084,1.3084,1.3084,1.3084,1.3084,1.3084,1.3035,1.2954,1.2954,1.2872,1.2807,1.2807,1.2807,1.2807,1.2807,1.2807,1.2807,1.2807,1.2807,1.284,1.3043,1.323,1.3449,1.3674,1.3839,1.3904,1.3904,1.3831,1.3793,1.4005,1.3966,1.3961,1.4144,1.4178,1.4179,1.4302,1.4837,1.5419,1.5623,1.6418,1.7084,1.7252,1.8017,1.8757,1.9385,1.9972,2.0631,2.1277,2.219,2.2812,2.2971,2.3099,2.3206,2.326,2.3883,2.4301,2.4301,2.5165,2.5931,2.6571,2.787,2.8528,2.8528,2.9035,2.9513,3.0016,3.0195,3.0617,0.9008,0.8946,0.894,0.8919,0.8926,0.8946,0.8946,0.8946,0.8953,0.8973,0.9103,0.9248,0.9248,0.9342,0.9456,0.9591,0.9715,1.0039,1.077,1.1405,1.1815,1.1839,1.1847,1.1825,1.1857,1.1987,1.2038,1.2038,1.224,1.2377,1.2345,1.2596,1.271,1.2678,1.2824,1.2888,1.2888,1.2831,1.2888,1.3092,1.3092,1.3223,1.3402,1.3402,1.3402,1.3402,1.3402,1.3402,1.3402,1.3402,1.3313,1.3133,1.3133,1.3043,1.2888,1.2888,1.2888,1.2888,1.2888,1.2888,1.2888,1.2888,1.2888,1.2913,1.3092,1.3157,1.3238,1.352,1.3714,1.3872,1.3896,1.3904,1.3904,1.3904,1.3904,1.3967,1.4181,1.4252,1.4344,1.4745,1.5851,1.6865,1.731,1.8474,1.945,1.9786,2.0084,2.0693,2.1819,2.2175,2.2785,2.3974,2.4118,2.4216,2.4508,2.4864,2.4974,2.4673,2.5045,2.5262,2.5262,2.5355,2.5664,2.6232,2.7514,2.8167,2.8167,2.8859,2.9522,3.0176,3.0176,3.0667,0.9152,0.9152,0.9117,0.894,0.9028,0.9152,0.9152,0.9152,0.9186,0.9286,0.9356,0.9376,0.9376,0.9469,0.9585,0.9605,1.0157,1.0763,1.1178,1.1557,1.1833,1.1971,1.1965,1.2052,1.2207,1.2247,1.2264,1.2264,1.254,1.2653,1.2564,1.302,1.3207,1.3019,1.3223,1.3321,1.3321,1.2953,1.2888,1.3092,1.3092,1.3223,1.3402,1.3402,1.3402,1.3402,1.3402,1.3402,1.3402,1.3402,1.3386,1.3362,1.3362,1.3345,1.3321,1.3321,1.3321,1.3321,1.3321,1.3321,1.3321,1.3321,1.3321,1.3295,1.3353,1.3441,1.3536,1.3593,1.3625,1.3682,1.3863,1.3904,1.3904,1.3904,1.3904,1.4252,1.5487,1.5761,1.6176,1.7498,1.7942,1.8106,1.8213,1.8699,1.9092,1.9127,2.0508,2.1608,2.1809,2.297,2.3844,2.4086,2.4118,2.4118,2.4183,2.4735,2.5077,2.5034,2.5674,2.6025,2.6025,2.6533,2.685,2.6945,2.8248,2.8933,2.8933,2.9663,3.0223,3.0617,3.0617,3.0808,0.9083,0.9218,0.9376,0.911,0.9192,0.9301,0.9301,0.9301,0.9328,0.9396,0.9449,0.9562,0.9738,0.9893,1.0051,1.0231,1.071,1.1126,1.1269,1.1667,1.1947,1.1989,1.2086,1.2215,1.2296,1.2393,1.2483,1.2556,1.2799,1.2986,1.3036,1.3272,1.337,1.328,1.3362,1.3402,1.3402,1.3303,1.3277,1.3358,1.3358,1.3482,1.366,1.366,1.366,1.366,1.366,1.366,1.366,1.366,1.3604,1.3514,1.3514,1.3457,1.3402,1.3402,1.3402,1.3402,1.3402,1.3402,1.3402,1.3402,1.3402,1.3402,1.3402,1.3433,1.3688,1.4571,1.441,1.3953,1.4034,1.4123,1.4188,1.4188,1.4871,1.5696,1.6373,1.7237,1.8052,1.8767,1.9515,2.0119,2.0368,2.1405,2.2262,2.2425,2.3367,2.408,2.408,2.4687,2.5066,2.4876,2.4862,2.4803,2.4661,2.5077,2.5454,2.5686,2.6024,2.6216,2.6216,2.6472,2.66,2.66,2.7537,2.82,2.8626,2.9284,3.0015,3.0766,3.0766,3.1033,0.9771,0.9745,0.9623,0.9766,0.9599,0.9435,0.9435,0.9749,1.0018,1.0054,1.0487,1.0823,1.0733,1.0553,1.0513,1.0846,1.1156,1.1362,1.1453,1.1826,1.2078,1.2119,1.228,1.2385,1.2394,1.2588,1.2726,1.2799,1.3076,1.3262,1.3402,1.3484,1.3533,1.3533,1.3533,1.3533,1.3533,1.3636,1.365,1.3609,1.365,1.3739,1.3904,1.3904,1.3904,1.3904,1.3904,1.3904,1.3904,1.3904,1.3823,1.3666,1.3666,1.362,1.3533,1.3533,1.3533,1.3533,1.3533,1.3732,1.4043,1.4043,1.4276,1.4587,1.4587,1.4587,1.4855,1.61,1.5895,1.5244,1.5191,1.5322,1.5417,1.5417,1.647,1.756,1.7889,1.8945,1.9924,2.0285,2.127,2.2156,2.243,2.3692,2.4734,2.4982,2.5419,2.5736,2.5736,2.5877,2.588,2.5632,2.5602,2.5554,2.5334,2.5502,2.5816,2.6292,2.6325,2.6358,2.6422,2.6422,2.6422,2.6422,2.7067,2.7645,2.8237,2.9014,2.9837,3.0683,3.0856,3.123,1.2091,1.1184,0.99,1.1213,1.0547,0.9591,0.9591,1.0753,1.1846,1.1962,1.3377,1.4187,1.2766,1.1555,1.0883,1.1209,1.1379,1.158,1.1919,1.2135,1.2345,1.2539,1.2572,1.2645,1.275,1.2954,1.2994,1.2815,1.3277,1.3539,1.341,1.3685,1.3863,1.3863,1.3863,1.3863,1.3863,1.3872,1.3763,1.3609,1.3807,1.3888,1.3904,1.3904,1.3904,1.3904,1.3904,1.3904,1.3904,1.3904,1.3896,1.388,1.388,1.3872,1.3863,1.3863,1.3863,1.3863,1.3863,1.4778,1.5901,1.5901,1.6877,1.8047,1.8047,1.8047,1.8057,1.8183,1.8305,1.8346,1.8149,1.8301,1.8471,1.8471,1.882,1.9489,2.0874,2.127,2.1749,2.3184,2.3554,2.3625,2.3661,2.3803,2.3874,2.391,2.4536,2.4982,2.4982,2.5596,2.5968,2.5988,2.5939,2.5996,2.6016,2.5771,2.5913,2.6622,2.6655,2.6788,2.7121,2.7121,2.7121,2.7121,2.785,2.8246,2.8295,2.9589,3.0257,3.034,3.1051,3.1391,1.1561,1.1512,1.1511,1.2758,1.2874,1.2443,1.1467,1.181,1.263,1.3506,1.4389,1.4902,1.4519,1.4207,1.4135,1.4422,1.451,1.4599,1.4723,1.4909,1.5066,1.5145,1.525,1.5417,1.5633,1.557,1.5678,1.6068,1.6128,1.624,1.6485,1.6617,1.6705,1.6705,1.6705,1.6705,1.6705,1.6705,1.6666,1.6553,1.4743,1.3904,1.3904,1.3904,1.3904,1.3904,1.3904,1.3904,1.3975,1.4884,1.5274,1.5345,1.6317,1.6705,1.6705,1.6705,1.6705,1.6705,1.6705,1.7057,1.7549,1.7549,1.7924,1.8414,1.8414,1.8414,1.8589,1.9507,1.9819,1.9667,1.8807,1.8706,1.8878,1.8878,1.9712,2.074,2.1522,2.2478,2.3388,2.4153,2.4302,2.4302,2.4302,2.4498,2.4752,2.5029,2.5486,2.5933,2.6186,2.6438,2.6544,2.6339,2.5959,2.5628,2.551,2.5362,2.5592,2.6264,2.6566,2.6867,2.72,2.72,2.72,2.72,2.7467,2.7832,2.8296,2.9218,2.9887,3.0328,3.1327,3.1634,1.2918,1.3045,1.323,1.4436,1.4716,1.458,1.3981,1.3996,1.4416,1.5424,1.5926,1.6282,1.6497,1.6416,1.6326,1.6382,1.6458,1.6501,1.6501,1.6676,1.6785,1.6785,1.7001,1.7185,1.7379,1.7379,1.7552,1.7997,1.795,1.8013,1.8296,1.8382,1.8414,1.8414,1.8414,1.8414,1.8414,1.8414,1.8414,1.8379,1.6384,1.5399,1.5301,1.4813,1.4608,1.4573,1.4176,1.3985,1.4065,1.5112,1.5883,1.6456,1.7506,1.8251,1.8676,1.8676,1.8676,1.8676,1.8676,1.8994,1.9383,1.9383,1.9711,2.0098,2.0098,2.0098,2.0309,2.135,2.1595,2.1422,2.0544,2.0292,2.0278,2.0278,2.1222,2.2147,2.237,2.329,2.4155,2.4399,2.4466,2.4492,2.4586,2.4821,2.5115,2.5359,2.5763,2.618,2.6582,2.6728,2.675,2.6676,2.6164,2.5754,2.5569,2.5452,2.5667,2.6383,2.6688,2.6952,2.7183,2.72,2.72,2.72,2.72,2.7434,2.7932,2.8856,2.9545,3.0003,3.1248,3.1653,1.6853,1.6145,1.4926,1.622,1.5791,1.5479,1.7079,1.7409,1.7522,1.7873,1.8382,1.8825,1.8825,1.7791,1.6832,1.6498,1.6619,1.674,1.674,1.6914,1.7044,1.7044,1.7282,1.7456,1.7423,1.7856,1.8074,1.797,1.8259,1.8352,1.8159,1.833,1.8449,1.8449,1.8449,1.8449,1.8449,1.8449,1.8449,1.846,1.8722,1.8676,1.8355,1.6821,1.6124,1.6063,1.4813,1.4253,1.4269,1.4396,1.545,1.6984,1.6984,1.7925,1.9344,1.9344,1.9344,1.9344,1.9344,2.0285,2.1522,2.1522,2.255,2.3803,2.3803,2.3803,2.3803,2.3803,2.3803,2.3803,2.3803,2.3554,2.3292,2.3292,2.3554,2.3803,2.3803,2.3803,2.3897,2.4155,2.4209,2.4302,2.4559,2.4599,2.4599,2.4599,2.4931,2.5336,2.5763,2.6166,2.6582,2.6947,2.6691,2.65,2.65,2.6193,2.6319,2.7037,2.7072,2.7127,2.7199,2.7216,2.7216,2.72,2.72,2.72,2.72,2.8626,2.9283,2.9349,3.0732,3.141,1.6373,1.6483,1.6626,1.8099,1.8419,1.8624,1.9532,1.8871,1.8377,1.9601,2.0014,2.0128,2.0128,1.9817,1.9606,1.9676,1.9764,1.9783,1.9783,1.9859,1.9877,1.9877,1.9953,2.0154,2.0578,2.059,2.0813,2.1352,2.1284,2.1288,2.147,2.1524,2.1562,2.1562,2.1562,2.1562,2.1562,2.1562,2.1562,2.1562,2.165,2.0612,1.8673,1.8441,1.8346,1.8346,1.7949,1.7798,1.7871,1.8949,2.0333,2.1762,2.1762,2.2049,2.2492,2.2492,2.2492,2.2492,2.2492,2.2742,2.3112,2.3112,2.3434,2.3803,2.3803,2.3803,2.3803,2.3803,2.3803,2.3803,2.3803,2.3736,2.3634,2.3634,2.375,2.387,2.4035,2.4075,2.4155,2.4412,2.4466,2.4559,2.4903,2.4943,2.5055,2.533,2.5511,2.5803,2.6229,2.6583,2.6787,2.6676,2.6354,2.6026,2.5807,2.552,2.5652,2.6367,2.6401,2.6756,2.7498,2.7804,2.777,2.7548,2.7532,2.7532,2.7532,2.8262,2.8856,2.9316,3.0546,3.123,1.7182,1.7698,1.834,1.9259,1.9824,2.0338,2.0927,2.0218,1.9714,2.0831,2.106,2.106,2.106,2.106,2.1074,2.1096,2.1109,2.1149,2.1269,2.1189,2.1203,2.143,2.1456,2.1643,2.2111,2.2144,2.2318,2.2853,2.2699,2.2672,2.288,2.2893,2.2893,2.2893,2.2893,2.2893,2.2893,2.2893,2.2893,2.2893,2.3027,2.2175,2.0556,2.0036,1.9959,2.0152,1.9624,1.943,1.9554,2.0447,2.174,2.3147,2.3147,2.3559,2.4115,2.4115,2.4115,2.4115,2.4115,2.4115,2.4115,2.4115,2.4115,2.4115,2.4115,2.4115,2.4115,2.4115,2.4115,2.4115,2.4115,2.4115,2.4062,2.3857,2.3803,2.3857,2.3995,2.4035,2.4115,2.4372,2.4426,2.4556,2.485,2.4903,2.4978,2.5239,2.5557,2.5912,2.62,2.6685,2.691,2.672,2.6515,2.6325,2.612,2.593,2.6106,2.6647,2.6835,2.7212,2.7878,2.7829,2.7725,2.7518,2.7484,2.7484,2.7484,2.8046,2.8494,2.8922,3.0132,3.0802,1.8795,1.9354,1.9813,1.9826,2.0294,2.094,2.1502,2.1408,2.1269,2.1569,2.1649,2.1649,2.1596,2.1582,2.1502,2.1189,2.1149,2.1256,2.1582,2.1363,2.139,2.1924,2.1991,2.2098,2.2358,2.2659,2.2867,2.2893,2.2893,2.2893,2.2893,2.2893,2.2893,2.2893,2.2893,2.2893,2.2893,2.2893,2.2893,2.2893,2.3153,2.3265,2.3244,2.1625,2.119,2.169,2.0461,2.0032,2.0226,2.0226,2.1089,2.2409,2.2409,2.3314,2.4599,2.4599,2.4599,2.4599,2.4599,2.4599,2.4599,2.4599,2.4599,2.4599,2.4599,2.4599,2.4599,2.4599,2.4599,2.4599,2.4599,2.4599,2.4466,2.3981,2.3884,2.3884,2.3884,2.3884,2.3928,2.4195,2.4249,2.4329,2.4586,2.4676,2.47,2.4747,2.5396,2.5859,2.5867,2.6531,2.6983,2.6983,2.6969,2.6939,2.6939,2.6925,2.7077,2.7533,2.7822,2.8059,2.8177,2.7663,2.7375,2.7343,2.7343,2.7343,2.7343,2.7947,2.8312,2.8478,2.9661,3.0296,1.9063,1.9543,1.9853,2.005,2.0762,2.1489,2.185,2.1844,2.1817,2.1917,2.2071,2.2098,2.1662,2.1582,2.1569,2.1502,2.1489,2.1596,2.189,2.183,2.1844,2.1964,2.1991,2.2098,2.2358,2.2472,2.2605,2.288,2.2893,2.2893,2.2893,2.2893,2.2893,2.2893,2.2893,2.2893,2.2893,2.2893,2.2893,2.2893,2.296,2.3086,2.3292,2.317,2.3304,2.3595,2.3321,2.3318,2.3574,2.3574,2.3772,2.4068,2.4068,2.4304,2.4599,2.4599,2.4599,2.4599,2.4599,2.4599,2.4599,2.4599,2.4599,2.4599,2.4599,2.4599,2.4599,2.4599,2.4599,2.4599,2.4599,2.4599,2.4572,2.4439,2.4412,2.4412,2.4412,2.4412,2.4439,2.4492,2.4506,2.4636,2.493,2.5245,2.5574,2.5952,2.6166,2.6299,2.6344,2.6728,2.6983,2.6983,2.6764,2.6603,2.6603,2.6369,2.6505,2.716,2.7266,2.7586,2.8171,2.8627,2.871,2.8475,2.8475,2.8475,2.8459,2.802,2.8407,2.9494,2.9502,3.0115,1.8992,1.9573,2.0147,2.0722,2.1309,2.1877,2.2124,2.2331,2.2439,2.2439,2.2298,2.2164,2.1991,2.189,2.1796,2.1796,2.1796,2.189,2.2151,2.2071,2.2131,2.2412,2.2285,2.2311,2.2605,2.2632,2.2699,2.288,2.2893,2.2893,2.2893,2.2893,2.2893,2.2893,2.2893,2.2893,2.2893,2.2893,2.2893,2.2893,2.2893,2.3033,2.3305,2.3634,2.3884,2.4008,2.4142,2.4332,2.4599,2.4599,2.4599,2.4599,2.4599,2.4599,2.4613,2.4796,2.485,2.4863,2.4973,2.5013,2.5013,2.5013,2.5013,2.5013,2.5013,2.5013,2.5013,2.5013,2.5013,2.5013,2.5013,2.4957,2.485,2.485,2.4706,2.4599,2.4599,2.4599,2.4599,2.4599,2.4599,2.4653,2.4836,2.5198,2.5529,2.5805,2.6143,2.6401,2.646,2.6772,2.6983,2.6983,2.6837,2.6735,2.6735,2.6574,2.6721,2.7291,2.7504,2.7859,2.8409,2.8984,2.9043,2.8519,2.8503,2.8503,2.8503,2.8138,2.8339,2.9056,3.0099,3.1007,1.8876,1.957,2.041,2.1368,2.1796,2.2058,2.2352,2.2645,2.2893,2.2893,2.2505,2.2191,2.2378,2.2218,2.2058,2.2058,2.2058,2.2164,2.2458,2.2285,2.2345,2.284,2.2645,2.2592,2.288,2.2893,2.2893,2.2893,2.2893,2.2893,2.2893,2.2893,2.2893,2.2893,2.2893,2.292,2.2974,2.2974,2.3,2.3054,2.3054,2.3153,2.3407,2.3661,2.383,2.3897,2.4102,2.4332,2.4599,2.4599,2.4599,2.4599,2.4599,2.4626,2.4706,2.4983,2.5117,2.5184,2.5424,2.5518,2.5518,2.5518,2.5518,2.5518,2.5518,2.5518,2.5518,2.5518,2.5518,2.5518,2.5518,2.5331,2.5157,2.5157,2.497,2.4719,2.4626,2.4599,2.4599,2.4599,2.4599,2.4636,2.4784,2.5079,2.5336,2.5483,2.607,2.6509,2.6509,2.6801,2.6983,2.6983,2.6983,2.6983,2.6983,2.6983,2.7165,2.755,2.7913,2.8274,2.8655,2.9066,2.9012,2.8389,2.8408,2.8408,2.8408,2.8344,2.8347,2.8521,3.0836,3.2013,1.913,1.976,2.041,2.1368,2.1796,2.2058,2.2352,2.2645,2.2893,2.2893,2.284,2.2706,2.2458,2.2392,2.2365,2.2365,2.2365,2.2458,2.28,2.28,2.2813,2.288,2.2867,2.2853,2.2893,2.2893,2.2893,2.2893,2.2893,2.2893,2.2893,2.2893,2.2893,2.2893,2.2893,2.3027,2.3225,2.326,2.3394,2.3683,2.3683,2.371,2.375,2.379,2.395,2.4155,2.4182,2.4332,2.4599,2.4599,2.4599,2.4599,2.4599,2.4796,2.5024,2.5064,2.5237,2.5464,2.5504,2.5518,2.5518,2.5518,2.5518,2.5518,2.5518,2.5518,2.5518,2.5518,2.5518,2.5518,2.5518,2.5478,2.5451,2.5451,2.5424,2.5251,2.4706,2.4599,2.4599,2.4599,2.4599,2.4821,2.5506,2.569,2.5946,2.6655,2.6838,2.691,2.691,2.6947,2.6983,2.6983,2.6983,2.6983,2.6983,2.6983,2.7165,2.755,2.7913,2.8274,2.8655,2.9066,2.925,2.9155,2.9155,2.9155,2.9155,2.8837,2.901,2.9623,3.0958,3.2049,1.957,2.001,2.041,2.1368,2.1796,2.2058,2.2352,2.2645,2.2893,2.2893,2.2893,2.2853,2.2733,2.2672,2.2672,2.2672,2.2672,2.2712,2.288,2.2893,2.2893,2.2893,2.2893,2.2893,2.2893,2.2893,2.2893,2.2893,2.2893,2.2974,2.3113,2.3322,2.3402,2.3402,2.3562,2.3607,2.3581,2.3581,2.3647,2.3803,2.3803,2.3897,2.4008,2.4008,2.4088,2.4209,2.4209,2.4332,2.4599,2.4599,2.4599,2.4613,2.4823,2.497,2.5155,2.5489,2.569,2.5785,2.5945,2.5999,2.5999,2.5999,2.5999,2.5999,2.5999,2.5999,2.5999,2.5999,2.5999,2.5999,2.5999,2.5879,2.5758,2.5758,2.5638,2.5438,2.5146,2.5093,2.5093,2.5093,2.5093,2.5281,2.5868,2.6168,2.6504,2.7116,2.7376,2.7488,2.7488,2.7488,2.7488,2.7488,2.7488,2.7488,2.7488,2.7488,2.7785,2.8414,2.8416,2.8675,2.9293,2.9321,2.9298,2.9298,2.9298,2.9298,2.9298,2.9139,2.9647,3.0778,3.2343,3.3737,1.981,2.0144,2.0384,2.1181,2.1636,2.1984,2.2245,2.2539,2.28,2.288,2.2893,2.2893,2.2893,2.2893,2.2893,2.2893,2.2893,2.2893,2.2893,2.2893,2.2893,2.2893,2.2893,2.2893,2.2893,2.2974,2.3054,2.3121,2.3188,2.334,2.3612,2.3794,2.391,2.391,2.4022,2.4022,2.3888,2.3955,2.3995,2.3995,2.3995,2.4102,2.4315,2.4315,2.4356,2.4422,2.4342,2.4476,2.4743,2.4743,2.4759,2.4839,2.5104,2.5237,2.5396,2.5837,2.6038,2.6131,2.6319,2.6386,2.6386,2.6386,2.6386,2.6386,2.6386,2.6386,2.6386,2.6386,2.6386,2.6386,2.6386,2.6265,2.6105,2.6105,2.5892,2.5692,2.5545,2.5518,2.5518,2.5518,2.5518,2.5671,2.6167,2.6496,2.6913,2.7458,2.7723,2.7911,2.7911,2.7911,2.7911,2.7911,2.7911,2.7911,2.7911,2.7911,2.8213,2.8927,2.8796,2.9029,2.9781,2.9622,2.9552,2.9552,2.9552,2.9472,2.9298,2.9298,3.0053,3.1543,3.3344,3.4998,1.9653,2.0027,2.0277,2.0672,2.1181,2.1689,2.197,2.2231,2.2525,2.284,2.2893,2.2893,2.2893,2.2893,2.2893,2.2893,2.2893,2.2893,2.2893,2.2893,2.2893,2.2893,2.2893,2.2893,2.2893,2.3126,2.342,2.3736,2.3981,2.4262,2.4519,2.4329,2.4182,2.4182,2.3964,2.395,2.4182,2.4412,2.4559,2.4559,2.4559,2.4559,2.4572,2.4572,2.477,2.5061,2.4743,2.4783,2.5064,2.5064,2.5224,2.5464,2.5478,2.5665,2.5957,2.5984,2.6172,2.6373,2.6386,2.6386,2.6386,2.6386,2.6386,2.6386,2.6386,2.6386,2.6386,2.6386,2.6386,2.6386,2.6386,2.6373,2.6373,2.6373,2.636,2.6186,2.5638,2.5518,2.5518,2.5518,2.5518,2.5734,2.652,2.6686,2.6989,2.776,2.7874,2.7911,2.7911,2.7911,2.7911,2.7911,2.7911,2.7911,2.7911,2.7911,2.81,2.8589,2.8912,2.9271,2.9756,3.0097,3.0267,3.0267,3.0267,2.9949,2.9298,2.9298,3.0053,3.1543,3.3013,3.4739,1.9305,1.9599,1.984,2.0539,2.1154,2.1609,2.1716,2.2251,2.2686,2.2592,2.276,2.2893,2.2893,2.2893,2.2893,2.2893,2.2893,2.2893,2.2893,2.2893,2.2974,2.314,2.3362,2.3549,2.3701,2.3995,2.4172,2.4315,2.4386,2.4492,2.4586,2.4716,2.4676,2.4452,2.4569,2.4569,2.4439,2.4546,2.4599,2.4599,2.4599,2.4599,2.4599,2.4599,2.4796,2.5077,2.497,2.509,2.5358,2.5358,2.5424,2.5531,2.5718,2.5904,2.6011,2.6198,2.6346,2.6386,2.6386,2.6386,2.6386,2.6386,2.6386,2.6386,2.6386,2.6386,2.6386,2.6386,2.6386,2.6386,2.6386,2.6386,2.6386,2.6386,2.6386,2.6333,2.6119,2.6079,2.6079,2.6079,2.6274,2.6625,2.7195,2.7544,2.7907,2.8472,2.8549,2.8549,2.8549,2.8549,2.8549,2.8549,2.8549,2.8549,2.8549,2.8549,2.8819,2.951,2.9465,2.976,3.0492,3.0367,3.0315,3.0315,3.0315,3.0203,2.9949,3.0993,3.2107,3.3356,3.514,3.6568,1.9038,1.9321,1.9575,2.0334,2.0927,2.1368,2.1662,2.2184,2.2626,2.2699,2.2792,2.2934,2.3027,2.2974,2.2893,2.2893,2.2987,2.302,2.302,2.3228,2.3394,2.3594,2.3888,2.4142,2.4329,2.4609,2.4783,2.4783,2.4839,2.4893,2.4893,2.5024,2.4943,2.4613,2.4823,2.4836,2.4599,2.4599,2.4599,2.4599,2.4693,2.4783,2.4783,2.4853,2.5144,2.5556,2.5556,2.5571,2.5665,2.5665,2.5718,2.5825,2.6065,2.6198,2.6266,2.6466,2.66,2.668,2.668,2.668,2.668,2.668,2.668,2.6667,2.656,2.6533,2.6533,2.6533,2.6533,2.656,2.6653,2.668,2.668,2.668,2.668,2.668,2.668,2.6533,2.6426,2.6584,2.6834,2.7175,2.7726,2.8079,2.8431,2.8847,2.8886,2.8886,2.8886,2.8886,2.8886,2.8886,2.8886,2.8886,2.8886,2.8886,2.9197,2.9873,2.9815,3.0115,3.0855,3.0732,3.068,3.068,3.068,3.068,3.068,3.204,3.3228,3.4348,3.6192,3.7617,0.0,0.0,0.0,2.0037,2.0441,2.0927,2.1783,2.1977,2.2245,2.3078,2.3073,2.3,2.3238,2.3086,2.2907,2.2907,2.3126,2.3278,2.3292,2.3821,2.4195,2.4209,2.4439,2.4626,2.4639,2.493,2.5141,2.5141,2.5358,2.5504,2.5504,2.5224,2.493,2.4613,2.4599,2.4599,2.4613,2.4626,2.4626,2.4639,2.497,2.5117,2.5155,2.5411,2.5852,2.6386,2.64,2.6292,2.6038,2.6038,2.6198,2.6413,2.6413,2.6587,2.68,2.68,2.7014,2.7309,2.7309,2.7309,2.7309,2.7309,2.7309,2.7255,2.6921,2.6827,2.6787,2.6787,2.6827,2.6894,2.7229,2.7309,2.7309,2.7309,2.7309,2.7309,2.7309,2.6854,2.6571,2.6927,2.7032,2.7307,2.8172,2.8328,2.8431,2.8847,2.8886,2.8886,2.8886,2.8886,2.8886,2.8886,2.8886,2.8886,2.8886,2.8886,2.908,2.9484,2.9873,3.0299,3.0794,3.1202,3.1433,3.1472,3.1472,3.1494,3.1533,3.2382,3.3335,3.4367,3.5958,3.7688,1.8236,0.0,0.0,0.0,0.0,0.0,2.1007,2.1697,2.2311,2.2352,2.2806,2.322,2.3278,2.326,2.3193,2.3193,2.3086,2.3073,2.3265,2.3647,2.4048,2.4426,2.4919,2.5358,2.5571,2.5703,2.5757,2.5757,2.5585,2.5424,2.5211,2.4917,2.4679,2.4599,2.4599,2.4706,2.4957,2.517,2.5384,2.5636,2.5892,2.5957,2.5757,2.6012,2.6239,2.64,2.6613,2.6774,2.6948,2.6948,2.6988,2.7068,2.7068,2.7108,2.7148,2.7148,2.7242,2.7309,2.7309,2.7309,2.7309,2.7309,2.7309,2.7296,2.7215,2.6987,2.6867,2.7081,2.6987,2.6894,2.7229,2.7309,2.7309,2.7309,2.7309,2.7309,2.7309,2.7378,2.7445,2.7401,2.7406,2.7608,2.8197,2.8549,2.8769,2.8886,2.8886,2.8886,2.8886,2.8886,2.8886,2.8886,2.8886,2.8886,2.8886,2.8886,2.908,2.9484,2.9873,3.0299,3.0794,3.1202,3.1938,3.3087,3.3142,3.3693,3.4804,3.5038,3.5175,3.521,3.7593,3.9171,1.8236,1.8236,1.8477,1.9214,0.0,0.0,2.094,2.1689,2.2298,2.2498,2.306,2.3474,2.3319,2.3292,2.3292,2.3292,2.318,2.3113,2.3265,2.3794,2.4302,2.477,2.5344,2.5812,2.6145,2.6065,2.5944,2.5824,2.5491,2.5211,2.4917,2.4693,2.4653,2.4823,2.4906,2.5144,2.5476,2.5732,2.5972,2.6185,2.6426,2.648,2.6333,2.6653,2.6814,2.6947,2.7121,2.7362,2.767,2.767,2.7536,2.7309,2.7309,2.7389,2.7483,2.7483,2.7563,2.767,2.767,2.767,2.767,2.767,2.759,2.7483,2.7483,2.7148,2.6881,2.7229,2.7134,2.7041,2.7269,2.7309,2.7309,2.7309,2.7525,2.7743,2.7743,2.8112,2.8302,2.7998,2.8111,2.8423,2.8914,2.9137,2.9335,2.9335,2.9335,2.9335,2.9335,2.9335,2.9335,2.9335,2.9335,2.9335,2.9335,2.9335,2.9414,2.9666,3.0067,3.0436,3.0724,3.115,3.184,3.2762,3.28,3.3881,3.6108,3.6774,3.7228,3.7477,3.8853,3.9751,1.8597,1.8289,1.8303,1.9147,1.9401,0.0,2.1087,2.1662,2.2111,2.2913,2.3367,2.3541,2.3238,2.3185,2.3198,2.3238,2.3265,2.3319,2.3385,2.4092,2.4756,2.509,2.565,2.6118,2.636,2.6172,2.5891,2.5585,2.5264,2.4983,2.4706,2.4693,2.4839,2.5208,2.5464,2.5758,2.6091,2.6386,2.6507,2.6533,2.6827,2.6947,2.6934,2.7269,2.7523,2.7696,2.7736,2.7938,2.8179,2.8179,2.7871,2.7403,2.7403,2.7563,2.7749,2.7749,2.7951,2.8179,2.8179,2.8179,2.8179,2.8179,2.7978,2.7696,2.7696,2.7295,2.6881,2.7148,2.7282,2.7309,2.7309,2.7309,2.7309,2.7309,2.7797,2.829,2.8331,2.8689,2.8975,2.8695,2.8977,2.9341,2.9826,2.9906,2.9906,2.9906,2.9906,2.9906,2.9906,2.9906,2.9906,2.9906,2.9906,2.9906,2.9906,2.9906,2.9906,2.9947,3.0385,3.0694,3.0733,3.1238,3.1622,3.176,3.2145,3.3791,3.6794,3.7934,3.9098,4.0268,3.9854,3.9875,1.8758,1.8624,1.877,1.8943,1.9372,0.0,2.008,2.0735,2.1336,2.151,2.2151,2.2659,2.2571,2.2592,2.2672,2.2913,2.3166,2.3452,2.3968,2.4346,2.4799,2.5371,2.5784,2.6118,2.636,2.6172,2.5971,2.5917,2.5422,2.5157,2.5331,2.5306,2.5478,2.581,2.6066,2.636,2.6653,2.6947,2.7215,2.7442,2.7777,2.7804,2.7535,2.7871,2.7911,2.7709,2.7991,2.8125,2.8179,2.8179,2.8112,2.8018,2.8018,2.8045,2.8098,2.8098,2.8138,2.8179,2.8179,2.8179,2.8179,2.8179,2.7978,2.7696,2.7696,2.7295,2.6787,2.6894,2.7081,2.7309,2.7309,2.7309,2.7309,2.7309,2.739,2.7607,2.7935,2.8384,2.8763,2.9032,2.9139,2.9341,2.9826,2.9906,2.9906,2.9906,2.9906,2.9906,2.9906,2.9906,2.9906,2.9906,2.9906,2.9906,2.9906,2.9906,3.0027,3.0364,3.0811,3.122,3.1563,3.1976,3.2796,3.411,3.6736,3.9064,4.1076,3.9343,3.9273,4.0737,4.0655,4.0675,1.9426,1.9038,0.0,1.9105,0.0,0.0,0.0,2.0468,2.0975,2.1301,2.1911,2.2378,2.2231,2.2325,2.2472,2.2619,2.2899,2.326,2.3701,2.4239,2.4706,2.4999,2.5344,2.5677,2.5919,2.5692,2.5556,2.5556,2.5384,2.5358,2.5504,2.5651,2.5904,2.6198,2.664,2.6961,2.7255,2.759,2.7817,2.7965,2.8112,2.8112,2.7965,2.8112,2.8098,2.7965,2.8125,2.8179,2.8179,2.8179,2.8179,2.8179,2.8179,2.8179,2.8179,2.8179,2.8179,2.8179,2.8179,2.8179,2.8179,2.8179,2.7978,2.7722,2.7924,2.7602,2.7228,2.7081,2.7148,2.735,2.7554,2.7595,2.7636,2.7689,2.7974,2.8286,2.8335,2.8823,2.9301,2.9503,2.9543,2.9682,3.0086,3.0273,3.0349,3.0349,3.0349,3.0349,3.0349,3.0349,3.0349,3.0349,3.0349,3.0349,3.0349,3.0349,3.0431,3.0635,3.1138,3.1492,3.1678,3.2148,3.3188,3.4859,3.812,4.0237,4.1116,4.0616,4.0695,4.125,4.125,4.1125,0.0,0.0,0.0,0.0,0.0,1.925,0.0,0.0,0.0,2.1154,2.163,2.1937,2.1764,2.1924,2.2084,2.2084,2.2472,2.2832,2.2966,2.3759,2.4386,2.4506,2.4917,2.5237,2.5411,2.5371,2.5331,2.5331,2.5545,2.5705,2.5758,2.5999,2.6319,2.6627,2.7202,2.759,2.7776,2.8072,2.8179,2.8179,2.8179,2.8179,2.8179,2.8179,2.8179,2.8179,2.8179,2.8179,2.8179,2.8179,2.8179,2.8179,2.8179,2.8179,2.8179,2.8179,2.8179,2.8179,2.8179,2.8179,2.8179,2.8179,2.7978,2.7736,2.7965,2.7844,2.7562,2.7376,2.7309,2.7391,2.7676,2.7758,2.7825,2.8008,2.851,2.8961,2.8905,2.9329,2.9785,2.9866,2.995,3.0068,3.0258,3.0466,3.0642,3.0642,3.0642,3.0642,3.0642,3.0642,3.0642,3.0642,3.07,3.0729,3.0729,3.0788,3.0817,3.0942,3.1448,3.1747,3.1828,3.2641,3.3899,3.5652,3.8593,4.0285,4.0625,4.1902,4.2265,4.1726,4.1726,4.154,0.0,0.0,0.0,0.0,2.0107,1.9733,0.0,0.0,1.992,1.9987,0.0,2.0517,2.0806,0.0,0.0,2.0882,2.1777,2.2298,2.185,2.2752,2.3639,2.4195,2.497,2.5371,2.5157,2.5798,2.6239,2.6239,2.6266,2.64,2.6653,2.6707,2.6974,2.7535,2.7911,2.8098,2.8138,2.8165,2.8179,2.8179,2.8179,2.8179,2.8179,2.8179,2.8179,2.8179,2.8179,2.8179,2.8179,2.8179,2.8179,2.8179,2.8179,2.8179,2.8179,2.8179,2.8179,2.8179,2.8179,2.8179,2.8179,2.8179,2.7978,2.7655,2.7469,2.7389,2.7349,2.7322,2.7309,2.7309,2.735,2.7391,2.7459,2.7839,2.7988,2.8246,2.8975,2.9205,2.9382,2.9826,3.0141,3.0258,2.9994,2.9994,3.0009,3.0009,3.0009,3.0009,3.0009,3.0009,3.0009,3.0009,3.0273,3.0448,3.0448,3.0656,3.0984,3.1399,3.1881,3.2278,3.2649,3.4554,3.6378,3.8086,4.0006,4.169,4.3183,4.3373,4.3014,4.2223,4.2223,4.2182,0.0,0.0,0.0,2.1435,2.0989,2.0521,2.0347,0.0,1.984,0.0,0.0,0.0,0.0,0.0,0.0,0.0,2.1122,2.1577,2.1336,2.2311,2.3287,2.3888,2.4128,2.4396,2.4783,2.5919,2.6507,2.6198,2.6653,2.6881,2.6787,2.6987,2.7268,2.7682,2.8031,2.8179,2.8179,2.8179,2.8179,2.8179,2.8179,2.8179,2.8179,2.8179,2.8179,2.8179,2.8179,2.8179,2.8179,2.8179,2.8179,2.8179,2.8179,2.8179,2.8179,2.8179,2.8179,2.8179,2.8179,2.8179,2.8179,2.8179,2.8098,2.7978,2.7857,2.7817,2.7817,2.7817,2.7984,2.8233,2.8524,2.8772,2.902,2.9289,2.9328,2.9408,2.9587,2.9624,2.9664,2.9866,3.0009,3.0068,2.9921,3.0173,3.0422,3.0422,3.0422,3.0422,3.0422,3.0302,3.0185,3.0185,3.0141,3.0111,3.0111,3.0432,3.0725,3.0929,3.2667,3.434,3.5686,3.7827,3.9146,3.9583,4.1556,4.2907,4.3615,4.3615,4.3408,4.3035,4.2766,4.2497,2.3215,2.2653,2.2111,2.2111,2.167,2.1176,2.0993,2.0498,0.0,0.0,2.012,0.0,0.0,0.0,0.0,0.0,0.0,2.0815,2.0655,2.1577,0.0,0.0,0.0,0.0,2.4399,2.5692,2.6293,2.5904,2.6693,2.7054,2.6787,2.7108,2.7483,2.7816,2.8072,2.8179,2.8179,2.8179,2.8179,2.8179,2.8179,2.8179,2.8179,2.8179,2.8179,2.8179,2.8179,2.8179,2.8179,2.8179,2.8179,2.8179,2.8179,2.8179,2.8179,2.8179,2.8179,2.8179,2.8179,2.8179,2.8179,2.8179,2.8179,2.8179,2.8179,2.8179,2.8179,2.8179,2.8487,2.8866,2.923,2.9663,3.0066,3.0292,3.0357,3.0299,3.0173,3.017,3.017,3.017,3.017,3.017,3.017,3.0364,3.0554,3.0554,3.0554,3.0554,3.0554,3.0405,3.0258,3.0258,3.0126,3.0241,3.067,3.1083,3.1542,3.2115,3.4223,3.6128,3.7641,3.9643,4.0567,4.0197,4.2327,4.3428,4.3428,4.3553,4.3615,4.3594,4.3263,4.2932,2.3777,2.3086,2.2405,2.2405,2.1964,2.1569,2.1555,2.11,2.0686,0.0,0.0,0.0,0.0,0.0,0.0,0.0,0.0,0.0,0.0,0.0,0.0,0.0,0.0,0.0,0.0,2.5024,2.5545,2.5531,2.6333,2.6787,2.6787,2.7108,2.7576,2.8152,2.8179,2.8179,2.8179,2.8179,2.8179,2.8179,2.8179,2.8179,2.8179,2.8179,2.8179,2.8179,2.8179,2.8179,2.8179,2.8179,2.8179,2.8179,2.8179,2.8179,2.8179,2.8179,2.8179,2.8179,2.8179,2.8179,2.8179,2.8179,2.8179,2.8179,2.8179,2.8179,2.8179,2.8179,2.8487,2.8782,2.8824,2.9146,2.9649,3.0123,3.0206,3.0317,3.0678,3.0746,3.0746,3.0746,3.0746,3.0746,3.0746,3.029,2.9936,2.9936,2.9936,2.9936,2.9936,2.9921,2.9921,2.9921,3.0199,3.1055,3.2687,3.3125,3.4172,3.6276,3.687,3.7138,3.7221,3.8842,3.9731,3.9711,4.1823,4.2915,4.2915,4.3387,4.3615,4.3615,4.3594,4.3573,2.4566,2.4128,2.3647,2.3799,2.3447,2.3,2.2766,2.1964,2.1341,2.1529,0.0,0.0,0.0,0.0,0.0,0.0,0.0,0.0,0.0,0.0,0.0,0.0,0.0,0.0,0.0,0.0,0.0,0.0,2.6841,2.7108,2.7108,2.7255,2.7483,2.7884,2.8085,2.8179,2.8179,2.8179,2.8179,2.8179,2.8179,2.8179,2.8179,2.8179,2.8179,2.8179,2.8179,2.8179,2.8179,2.8179,2.8179,2.8179,2.8179,2.8179,2.8179,2.8179,2.8179,2.8179,2.8179,2.8179,2.8179,2.8179,2.8179,2.8179,2.8179,2.8179,2.8263,2.8529,2.8908,2.9314,2.9663,3.0039,3.0401,3.0582,3.0582,3.0624,3.0776,3.0776,3.0776,3.0776,3.0776,3.0776,3.0776,3.0642,3.0495,3.0495,3.0495,3.0495,3.0495,3.0361,3.0229,3.0229,3.0126,3.0311,3.0861,3.125,3.3098,3.687,3.7261,3.8451,4.0879,4.1822,4.2023,4.1414,4.2385,4.2766,4.2513,4.2932,4.3159,4.3159,4.347,4.3615,2.485,2.4649,2.4382,2.4426,2.4275,2.4035,2.3799,2.3046,2.2465,2.2712,2.183,0.0,0.0,0.0,0.0,0.0,0.0,0.0,0.0,2.0548,0.0,0.0,0.0,0.0,0.0,0.0,0.0,0.0,0.0,0.0,0.0,2.7242,2.7443,2.7682,2.8031,2.8179,2.8179,2.8179,2.8179,2.8179,2.8179,2.8179,2.8179,2.8179,2.8179,2.8179,2.8179,2.8179,2.8179,2.8179,2.8179,2.8179,2.8179,2.8179,2.8179,2.8179,2.8179,2.8179,2.8179,2.8179,2.8179,2.8179,2.8179,2.8179,2.8179,2.8179,2.8263,2.8697,2.916,2.9607,3.0081,3.0499,3.0776,3.0776,3.0776,3.0776,3.0776,3.0776,3.0776,3.0776,3.0776,3.0776,3.0776,3.0776,3.0776,3.0776,3.0776,3.0776,3.0776,3.0642,3.0525,3.0525,3.0334,3.0717,3.1957,3.2986,3.505,3.8487,3.8989,4.0123,4.2347,4.2898,4.2824,4.2058,4.26,4.2704,4.2285,4.287,4.3159,4.318,4.347,4.3615]},{"header":{"parameterUnit":"m.s-1","parameterCategory":1,"la1":30.6,"la2":29.2853,"lo1":-89.7004,"lo2":-87.6739,"dx":0.0162,"dy":0.0183,"nx":112,"ny":82,"refTime":"2022-11-04T00:00:00:Z","depth":0,"parameterNumber":3,"parameterNumberName":"V-component_of_WINDS"},"data":[0.0,0.0,0.0,0.0,0.0,0.0,0.0,0.0,0.0,0.0,0.0,0.0,0.0,0.0,0.0,0.0,0.0,0.0,0.0,0.0,0.0,0.0,0.0,0.0,0.0,0.0,0.0,0.0,0.0,0.0,0.0,0.0,0.0,0.0,0.0,0.0,0.0,0.0,0.0,0.0,0.0,0.0,0.0,0.0,0.0,0.0,0.0,0.0,0.0,0.0,0.0,0.0,0.0,0.0,0.0,0.0,0.0,0.0,0.0,0.0,0.0,0.0,0.0,0.0,0.0,0.0,0.0,0.0,0.0,0.0,0.0,0.0,0.0,0.0,0.0,0.0,0.0,0.0,0.0,0.0,0.0,0.0,0.0,0.0,0.0,0.0,0.0,0.0,0.0,0.0,3.4862,3.587,3.5644,3.5813,3.684,3.5937,3.4319,3.2043,0.0,0.0,0.0,0.0,0.0,0.0,0.0,0.0,0.0,0.0,0.0,0.0,0.0,0.0,0.0,0.0,0.0,0.0,0.0,0.0,0.0,0.0,0.0,0.0,0.0,0.0,0.0,0.0,0.0,0.0,0.0,0.0,0.0,0.0,0.0,0.0,0.0,0.0,0.0,0.0,0.0,0.0,0.0,0.0,0.0,0.0,0.0,0.0,0.0,0.0,0.0,0.0,0.0,0.0,0.0,0.0,0.0,0.0,0.0,0.0,0.0,0.0,0.0,0.0,0.0,0.0,0.0,0.0,0.0,0.0,0.0,0.0,0.0,0.0,0.0,0.0,0.0,0.0,0.0,0.0,0.0,0.0,0.0,0.0,0.0,0.0,0.0,0.0,0.0,0.0,0.0,0.0,0.0,0.0,0.0,0.0,0.0,0.0,0.0,0.0,0.0,0.0,0.0,0.0,3.5346,3.7959,3.6758,3.6389,3.784,3.6318,3.4703,3.3306,0.0,0.0,0.0,0.0,0.0,0.0,0.0,0.0,0.0,0.0,0.0,0.0,0.0,0.0,0.0,0.0,0.0,0.0,0.0,0.0,0.0,0.0,0.0,0.0,0.0,0.0,0.0,0.0,0.0,0.0,0.0,0.0,0.0,0.0,0.0,0.0,0.0,0.0,0.0,0.0,0.0,0.0,0.0,0.0,0.0,0.0,0.0,0.0,0.0,0.0,0.0,0.0,0.0,0.0,0.0,0.0,0.0,0.0,0.0,0.0,0.0,0.0,0.0,0.0,0.0,0.0,0.0,0.0,0.0,0.0,0.0,0.0,0.0,0.0,0.0,0.0,0.0,0.0,0.0,0.0,0.0,0.0,0.0,0.0,0.0,0.0,0.0,0.0,0.0,0.0,0.0,0.0,0.0,0.0,0.0,0.0,0.0,0.0,0.0,0.0,0.0,0.0,0.0,3.4907,3.6365,3.8471,3.7113,3.6708,3.823,3.6571,3.488,3.354,3.2408,0.0,0.0,0.0,0.0,0.0,0.0,0.0,0.0,0.0,0.0,0.0,0.0,0.0,0.0,0.0,0.0,0.0,0.0,0.0,0.0,0.0,0.0,0.0,0.0,0.0,0.0,0.0,0.0,0.0,0.0,0.0,0.0,0.0,0.0,0.0,0.0,0.0,0.0,0.0,0.0,0.0,0.0,0.0,0.0,0.0,0.0,0.0,0.0,0.0,0.0,0.0,0.0,0.0,0.0,0.0,0.0,0.0,0.0,0.0,0.0,0.0,0.0,0.0,0.0,0.0,0.0,0.0,0.0,0.0,0.0,0.0,0.0,0.0,0.0,0.0,0.0,0.0,0.0,0.0,0.0,0.0,0.0,0.0,0.0,0.0,0.0,0.0,0.0,0.0,0.0,0.0,0.0,0.0,0.0,0.0,0.0,0.0,0.0,0.0,0.0,0.0,0.0,3.5968,3.6911,3.8555,3.7307,3.6915,3.8311,3.6758,3.5156,3.3759,3.2663,0.0,0.0,0.0,0.0,0.0,0.0,0.0,0.0,0.0,0.0,0.0,0.0,0.0,0.0,0.0,0.0,0.0,0.0,0.0,0.0,0.0,0.0,0.0,0.0,0.0,0.0,0.0,0.0,0.0,0.0,0.0,0.0,0.0,0.0,0.0,0.0,0.0,0.0,0.0,0.0,0.0,0.0,0.0,0.0,0.0,0.0,0.0,0.0,0.0,0.0,0.0,0.0,0.0,0.0,0.0,0.0,0.0,0.0,0.0,0.0,0.0,0.0,0.0,0.0,0.0,0.0,0.0,0.0,0.0,0.0,0.0,0.0,0.0,0.0,0.0,0.0,0.0,0.0,0.0,0.0,0.0,0.0,0.0,0.0,0.0,0.0,0.0,0.0,0.0,0.0,0.0,0.0,0.0,0.0,0.0,0.0,0.0,0.0,0.0,0.0,0.0,0.0,3.5363,3.6185,3.8527,3.7623,3.7211,3.8073,3.6919,3.5673,3.4515,3.3064,0.0,0.0,0.0,0.0,0.0,0.0,0.0,0.0,0.0,0.0,0.0,0.0,0.0,0.0,0.0,0.0,0.0,0.0,0.0,0.0,0.0,0.0,0.0,0.0,0.0,0.0,0.0,0.0,0.0,0.0,0.0,0.0,0.0,0.0,0.0,0.0,0.0,0.0,0.0,0.0,0.0,0.0,0.0,0.0,0.0,0.0,0.0,0.0,0.0,0.0,0.0,0.0,0.0,0.0,0.0,0.0,0.0,0.0,0.0,0.0,0.0,0.0,0.0,0.0,0.0,0.0,0.0,0.0,0.0,0.0,0.0,0.0,0.0,0.0,0.0,0.0,0.0,0.0,0.0,0.0,0.0,0.0,0.0,0.0,0.0,0.0,0.0,0.0,0.0,0.0,0.0,0.0,0.0,0.0,0.0,0.0,0.0,0.0,0.0,0.0,0.0,0.0,3.6349,3.7253,3.9173,3.8285,3.7917,3.8739,3.7484,3.6252,3.5357,0.0,0.0,0.0,0.0,0.0,0.0,0.0,0.0,0.0,0.0,0.0,0.0,0.0,0.0,0.0,0.0,0.0,0.0,0.0,0.0,0.0,0.0,0.0,0.0,0.0,0.0,0.0,0.0,0.0,0.0,0.0,0.0,0.0,0.0,0.0,0.0,0.0,0.0,0.0,0.0,0.0,0.0,0.0,0.0,0.0,0.0,0.0,0.0,0.0,0.0,0.0,0.0,0.0,0.0,0.0,0.0,0.0,0.0,0.0,0.0,0.0,0.0,0.0,0.0,0.0,0.0,0.0,0.0,0.0,0.0,0.0,0.0,0.0,0.0,0.0,0.0,0.0,0.0,0.0,0.0,0.0,0.0,0.0,0.0,0.0,0.0,0.0,0.0,0.0,0.0,0.0,0.0,0.0,0.0,0.0,0.0,0.0,0.0,0.0,0.0,0.0,0.0,3.6313,3.6762,3.7602,3.9171,3.8648,3.8344,3.8796,3.7836,3.6816,3.5852,0.0,0.0,0.0,0.0,0.0,0.0,0.0,0.0,0.0,0.0,0.0,0.0,0.0,0.0,0.0,0.0,0.0,0.0,0.0,0.0,0.0,0.0,0.0,0.0,0.0,0.0,0.0,0.0,0.0,0.0,0.0,0.0,0.0,0.0,0.0,0.0,0.0,0.0,0.0,0.0,0.0,0.0,0.0,0.0,0.0,0.0,0.0,0.0,0.0,0.0,0.0,0.0,0.0,0.0,0.0,0.0,0.0,0.0,0.0,0.0,0.0,0.0,0.0,0.0,0.0,0.0,0.0,0.0,0.0,0.0,0.0,0.0,0.0,0.0,0.0,0.0,0.0,0.0,0.0,0.0,0.0,0.0,0.0,0.0,0.0,0.0,0.0,0.0,0.0,0.0,0.0,0.0,0.0,0.0,0.0,0.0,0.0,0.0,0.0,0.0,0.0,0.0,3.6205,3.6398,3.6922,3.8441,3.8602,3.8431,3.8025,3.8027,3.7371,0.0,0.0,0.0,0.0,0.0,0.0,0.0,0.0,0.0,0.0,0.0,0.0,0.0,0.0,0.0,0.0,0.0,0.0,0.0,0.0,0.0,0.0,0.0,0.0,0.0,0.0,0.0,0.0,0.0,0.0,0.0,0.0,0.0,0.0,0.0,0.0,0.0,0.0,0.0,0.0,0.0,0.0,0.0,0.0,0.0,0.0,0.0,0.0,0.0,0.0,0.0,0.0,0.0,0.0,0.0,0.0,0.0,0.0,0.0,0.0,0.0,0.0,0.0,0.0,0.0,0.0,0.0,0.0,0.0,0.0,0.0,0.0,0.0,0.0,0.0,0.0,0.0,0.0,0.0,0.0,0.0,0.0,0.0,0.0,0.0,0.0,0.0,0.0,0.0,0.0,0.0,0.0,0.0,0.0,0.0,0.0,0.0,0.0,0.0,0.0,0.0,0.0,0.0,3.7772,3.7779,3.8019,3.9116,3.8949,3.8706,3.8583,3.8409,3.8001,3.738,0.0,0.0,0.0,0.0,0.0,0.0,0.0,0.0,0.0,0.0,0.0,0.0,0.0,0.0,0.0,0.0,0.0,0.0,0.0,0.0,0.0,0.0,0.0,0.0,0.0,0.0,0.0,0.0,0.0,0.0,0.0,0.0,0.0,0.0,0.0,0.0,0.0,0.0,0.0,0.0,0.0,0.0,0.0,0.0,0.0,0.0,0.0,0.0,0.0,0.0,0.0,0.0,0.0,0.0,0.0,0.0,0.0,0.0,0.0,0.0,0.0,0.0,0.0,0.0,0.0,0.0,0.0,0.0,0.0,0.0,0.0,0.0,0.0,0.0,0.0,0.0,0.0,0.0,0.0,0.0,0.0,0.0,0.0,0.0,0.0,0.0,0.0,0.0,0.0,0.0,0.0,0.0,0.0,0.0,0.0,0.0,0.0,0.0,0.0,0.0,0.0,0.0,3.8609,3.8558,3.8652,3.9504,3.9245,3.895,3.8803,3.8652,3.8457,3.8196,0.0,0.0,0.0,0.0,0.0,0.0,0.0,0.0,0.0,0.0,0.0,0.0,0.0,0.0,0.0,0.0,0.0,0.0,0.0,0.0,0.0,0.0,0.0,0.0,0.0,0.0,0.0,0.0,0.0,0.0,0.0,0.0,0.0,0.0,0.0,0.0,0.0,0.0,0.0,0.0,0.0,0.0,0.0,0.0,0.0,0.0,0.0,0.0,0.0,0.0,0.0,0.0,0.0,0.0,0.0,0.0,0.0,0.0,0.0,0.0,0.0,0.0,0.0,0.0,0.0,0.0,0.0,0.0,0.0,0.0,0.0,0.0,0.0,0.0,0.0,0.0,0.0,0.0,0.0,0.0,0.0,0.0,0.0,0.0,0.0,0.0,0.0,0.0,0.0,0.0,0.0,0.0,0.0,0.0,0.0,0.0,0.0,0.0,0.0,0.0,0.0,0.0,3.9001,3.8999,3.9059,3.9667,3.9513,3.9225,3.8892,3.8862,3.8751,3.8465,0.0,0.0,0.0,0.0,0.0,0.0,0.0,0.0,0.0,0.0,0.0,0.0,0.0,0.0,0.0,0.0,0.0,0.0,0.0,0.0,0.0,0.0,0.0,0.0,0.0,0.0,0.0,0.0,0.0,0.0,0.0,0.0,0.0,0.0,0.0,0.0,0.0,0.0,0.0,0.0,0.0,0.0,0.0,0.0,0.0,0.0,0.0,0.0,0.0,0.0,0.0,0.0,0.0,0.0,0.0,0.0,0.0,0.0,0.0,0.0,3.8656,3.7856,0.0,0.0,0.0,0.0,0.0,0.0,0.0,0.0,0.0,0.0,0.0,0.0,0.0,0.0,0.0,0.0,0.0,0.0,0.0,0.0,0.0,0.0,0.0,0.0,0.0,0.0,0.0,0.0,0.0,0.0,0.0,0.0,0.0,0.0,0.0,0.0,0.0,0.0,0.0,0.0,3.9921,3.9895,3.9847,4.0012,3.9808,3.9583,3.9382,3.9357,3.9171,3.8743,3.714,0.0,0.0,0.0,0.0,0.0,0.0,0.0,0.0,0.0,0.0,0.0,0.0,0.0,0.0,0.0,0.0,0.0,0.0,0.0,0.0,0.0,0.0,0.0,0.0,0.0,0.0,0.0,0.0,0.0,0.0,0.0,0.0,0.0,0.0,0.0,0.0,0.0,0.0,0.0,0.0,0.0,0.0,0.0,0.0,0.0,0.0,0.0,0.0,0.0,0.0,0.0,0.0,0.0,0.0,0.0,0.0,0.0,0.0,0.0,3.9282,3.8492,0.0,0.0,0.0,0.0,0.0,0.0,0.0,0.0,0.0,0.0,0.0,0.0,0.0,0.0,0.0,0.0,0.0,0.0,0.0,0.0,0.0,0.0,0.0,0.0,0.0,0.0,0.0,0.0,0.0,0.0,0.0,0.0,0.0,0.0,0.0,0.0,0.0,0.0,0.0,0.0,4.0484,4.0322,4.0194,4.0194,3.9949,3.9754,3.9661,3.9543,3.9401,3.9151,3.8136,0.0,0.0,0.0,0.0,0.0,0.0,0.0,0.0,0.0,0.0,0.0,0.0,0.0,0.0,0.0,0.0,0.0,0.0,0.0,0.0,0.0,0.0,0.0,0.0,0.0,0.0,0.0,0.0,0.0,0.0,0.0,0.0,0.0,0.0,0.0,0.0,0.0,0.0,0.0,0.0,0.0,0.0,0.0,0.0,0.0,0.0,0.0,0.0,0.0,0.0,0.0,0.0,0.0,4.1054,4.1367,4.1327,4.1367,4.1289,4.1053,3.9646,3.906,3.9021,3.8998,0.0,0.0,0.0,0.0,0.0,0.0,0.0,0.0,0.0,0.0,0.0,0.0,0.0,0.0,0.0,0.0,0.0,0.0,0.0,0.0,0.0,0.0,3.5975,3.6622,3.687,3.659,3.5142,0.0,0.0,0.0,0.0,0.0,0.0,0.0,0.0,0.0,0.0,0.0,4.0749,4.0515,4.0342,4.0342,4.0082,3.9908,3.9867,3.9724,3.9655,3.9751,3.9212,3.8685,0.0,0.0,0.0,0.0,0.0,0.0,0.0,0.0,0.0,0.0,0.0,0.0,0.0,0.0,0.0,0.0,0.0,0.0,0.0,0.0,0.0,0.0,0.0,0.0,0.0,0.0,0.0,0.0,0.0,0.0,0.0,0.0,3.6788,3.6987,0.0,0.0,0.0,0.0,0.0,0.0,0.0,0.0,0.0,0.0,0.0,0.0,0.0,3.972,3.9725,4.0545,4.1327,4.207,4.2187,4.2226,4.2226,4.2226,4.1875,4.1172,4.0937,0.0,4.0775,4.0762,0.0,0.0,0.0,0.0,0.0,0.0,0.0,0.0,0.0,0.0,0.0,0.0,0.0,0.0,0.0,0.0,0.0,0.0,0.0,0.0,0.0,0.0,3.7763,3.7848,3.843,3.8856,3.8635,3.7344,3.6316,3.6471,3.6654,3.7234,0.0,0.0,0.0,0.0,0.0,0.0,4.0647,4.0587,4.0546,4.0546,4.0488,4.0347,4.0143,4.0101,4.0324,4.0788,3.9865,3.9597,4.0198,3.8199,0.0,0.0,0.0,0.0,0.0,0.0,0.0,0.0,0.0,0.0,0.0,0.0,0.0,0.0,0.0,0.0,0.0,0.0,0.0,0.0,0.0,0.0,0.0,0.0,0.0,0.0,0.0,0.0,0.0,3.6223,3.6938,3.8344,3.8307,3.8216,0.0,0.0,0.0,0.0,0.0,0.0,0.0,0.0,0.0,3.9888,4.0311,4.0563,4.0625,4.0976,4.1367,4.1719,4.1719,4.1719,4.1719,4.1719,4.1523,4.1211,4.1211,4.1172,4.1131,4.1127,4.0891,4.054,0.0,0.0,0.0,0.0,3.9609,3.9845,3.9833,3.9504,3.9089,3.9046,0.0,0.0,0.0,0.0,0.0,0.0,0.0,3.8212,3.8212,3.813,3.8235,3.8727,3.9061,3.9293,3.9361,3.8712,3.8302,3.8807,3.8901,3.935,4.0639,4.052,0.0,0.0,0.0,4.0668,4.0598,4.0594,4.0607,4.0607,4.0535,4.0446,4.0368,4.0685,4.095,4.1215,4.1154,4.1008,4.0896,3.9329,3.7883,0.0,0.0,0.0,0.0,0.0,0.0,0.0,0.0,0.0,0.0,0.0,0.0,0.0,0.0,0.0,0.0,0.0,0.0,0.0,0.0,0.0,0.0,0.0,0.0,0.0,0.0,0.0,0.0,3.7226,3.7821,3.9657,3.9228,3.8818,0.0,0.0,0.0,0.0,0.0,0.0,3.9916,3.9978,4.0271,4.1031,4.1051,4.1107,4.1211,4.1211,4.1289,4.1523,4.1523,4.1523,4.1523,4.1523,4.1406,4.1211,4.1211,4.1211,4.1211,4.1132,4.1132,4.1172,4.0898,4.1093,4.1484,4.125,4.1243,4.1372,4.1602,4.112,4.0432,4.0578,4.0294,3.9826,3.9706,0.0,0.0,0.0,0.0,3.9609,3.9609,3.9573,3.9684,4.0302,4.059,4.0655,4.0468,4.0601,4.0577,4.0085,3.9988,4.0261,4.1187,4.0852,0.0,4.1524,4.1092,4.0651,4.057,4.0576,4.0554,4.0554,4.0531,4.0516,4.0516,4.1119,4.1604,4.1781,4.2214,4.2243,4.1803,4.0512,3.9314,3.8328,0.0,0.0,0.0,0.0,0.0,0.0,0.0,0.0,0.0,0.0,0.0,0.0,0.0,0.0,0.0,0.0,0.0,0.0,0.0,0.0,0.0,0.0,0.0,0.0,0.0,0.0,0.0,0.0,0.0,4.0822,4.0793,0.0,0.0,0.0,0.0,4.0667,4.0673,4.074,4.0928,4.093,4.0993,4.1172,4.1172,4.1172,4.1211,4.1211,4.1562,4.2344,4.2344,4.2344,4.2344,4.2344,4.1914,4.1211,4.1211,4.1211,4.1211,4.1211,4.1211,4.1133,4.0273,4.0937,4.2226,4.1405,4.1638,4.2457,4.327,4.2992,4.2404,4.3215,4.3452,4.3457,4.341,4.3413,0.0,0.0,4.3431,4.3409,4.3409,4.3386,4.332,4.3396,4.3919,4.4238,4.3461,4.3832,4.3159,3.9099,3.8325,3.8599,3.9462,0.0,3.9827,4.0567,4.0633,4.057,4.0492,4.0519,4.0519,4.0519,4.0516,4.0516,4.0516,4.1308,4.2125,4.2851,4.2723,4.2904,4.3618,4.1827,4.0463,3.9726,3.8512,0.0,0.0,0.0,0.0,0.0,0.0,0.0,0.0,0.0,0.0,0.0,0.0,0.0,0.0,0.0,0.0,0.0,0.0,0.0,0.0,0.0,0.0,0.0,0.0,0.0,0.0,0.0,0.0,4.0766,4.0844,0.0,4.082,4.0786,4.0802,4.0872,4.0863,4.0898,4.1016,4.1017,4.1044,4.1122,4.1123,4.1167,4.1211,4.1211,4.1328,4.1641,4.1641,4.1641,4.1641,4.1641,4.1484,4.1211,4.1211,4.1211,4.1211,4.1211,4.1211,4.1172,4.0859,4.1094,4.1601,4.1289,4.1327,4.1677,4.2574,4.265,4.253,4.3422,4.3691,4.3688,4.3686,4.3687,4.3688,4.3686,4.3714,4.3701,4.3691,4.3638,4.3619,4.3604,4.3774,4.3857,4.3547,4.3648,4.3321,4.1774,4.1039,4.0732,4.1045,4.0697,4.0604,4.1366,4.0991,4.0574,4.0557,4.0531,4.0516,4.0516,4.0516,4.0516,4.0516,4.1816,4.2769,4.306,4.4007,4.4201,4.3368,4.2466,4.126,3.9713,3.8546,3.7967,0.0,0.0,0.0,0.0,0.0,0.0,0.0,0.0,0.0,0.0,0.0,0.0,0.0,0.0,0.0,0.0,0.0,0.0,0.0,0.0,0.0,0.0,0.0,0.0,0.0,3.9935,4.0333,4.0766,4.0876,4.0896,4.0878,4.0908,4.0938,4.0961,4.0978,4.0992,4.1042,4.1042,4.1056,4.1119,4.1119,4.1126,4.1172,4.1172,4.1172,4.1211,4.1211,4.1211,4.1211,4.1211,4.1367,4.1601,4.1328,4.1367,4.1562,4.1328,4.1211,4.1211,4.1211,4.1367,4.1601,4.1601,4.1562,4.1679,4.2537,4.3042,4.3428,4.4283,4.4395,4.4192,4.4505,4.4583,4.4583,4.4583,4.4576,4.4565,4.4552,4.45,4.4486,4.4465,4.4448,4.431,4.3979,4.382,4.366,4.3366,4.2821,4.2434,4.2434,4.2009,4.1803,4.2332,4.1647,4.1036,4.1016,4.072,4.0516,4.0516,4.0516,4.0516,4.0516,4.2338,4.3363,4.3099,4.4628,4.4926,4.3538,4.2977,4.2085,4.0751,3.926,3.8894,3.9614,0.0,0.0,0.0,0.0,0.0,0.0,0.0,0.0,0.0,0.0,0.0,0.0,0.0,0.0,0.0,0.0,0.0,0.0,0.0,0.0,0.0,0.0,0.0,3.9833,4.0554,4.1056,4.0912,4.1031,4.1055,4.1001,4.1055,4.1118,4.1118,4.1085,4.1089,4.1091,4.1092,4.1092,4.1092,4.1092,4.1092,4.1092,4.1092,4.1132,4.1211,4.1211,4.1211,4.125,4.1211,4.1641,4.2383,4.1601,4.168,4.2344,4.1601,4.125,4.1211,4.1211,4.168,4.2344,4.2344,4.2383,4.2539,4.3358,4.4252,4.5141,4.5961,4.5721,4.5207,4.6027,4.6301,4.6301,4.6301,4.6293,4.6282,4.6231,4.6216,4.62,4.6183,4.6148,4.5868,4.4921,4.4747,4.4488,4.3566,4.3398,4.3359,4.3321,4.3282,4.3262,4.3191,4.2486,0.0,4.1862,4.1089,4.0593,4.0593,4.0593,4.0554,4.0554,4.2804,4.3849,4.3013,4.447,4.4978,4.4125,4.3287,4.2822,4.2774,4.0772,3.9439,3.8921,0.0,0.0,0.0,0.0,0.0,0.0,0.0,0.0,0.0,0.0,0.0,0.0,0.0,0.0,0.0,0.0,0.0,0.0,0.0,0.0,0.0,3.9613,4.0021,4.0638,4.0931,4.1096,4.1046,4.1061,4.1105,4.1055,4.1105,4.1114,4.1117,4.1081,4.1084,4.1089,4.1089,4.1089,4.1089,4.1089,4.1089,4.1089,4.1089,4.1129,4.1129,4.1129,4.1442,4.2066,4.1403,4.195,4.3316,4.2457,4.2183,4.2418,4.285,4.2264,4.1132,4.1172,4.1328,4.1523,4.1523,4.1914,4.2422,4.2656,4.3749,4.5035,4.5269,4.5616,4.5997,4.6231,4.6306,4.6301,4.6301,4.6293,4.6282,4.6231,4.6216,4.62,4.6183,4.6148,4.6024,4.5701,4.5603,4.5493,4.5163,4.5103,4.4724,4.3511,4.3282,4.3269,4.322,4.3002,4.2811,4.2757,4.2528,4.2393,4.2393,4.2393,4.2124,4.1508,4.3193,4.3632,4.2134,4.3625,4.3805,4.2166,4.1851,4.1233,4.0158,3.996,3.9749,0.0,0.0,0.0,0.0,0.0,0.0,0.0,0.0,0.0,0.0,0.0,0.0,0.0,0.0,0.0,0.0,0.0,0.0,0.0,0.0,0.0,0.0,4.0127,4.0535,4.1012,4.1102,4.1109,4.1109,4.1109,4.1109,4.1109,4.1109,4.1111,4.1114,4.1114,4.1117,4.1084,4.1084,4.1084,4.1084,4.1084,4.1084,4.1084,4.1084,4.1086,4.1088,4.1088,4.1751,4.2922,4.2415,4.3352,4.5305,4.4406,4.425,4.4602,4.4721,4.4175,4.316,0.0,0.0,0.0,0.0,4.1719,4.2383,4.2383,4.328,4.4528,4.4879,4.5342,4.5839,4.6191,4.6305,4.6301,4.6301,4.6296,4.6288,4.6232,4.6181,4.6209,4.6185,4.6162,4.6132,4.6044,4.5991,4.5926,4.5838,4.5831,0.0,4.452,4.4306,4.4309,4.4268,4.3937,4.3678,4.3592,4.3294,4.3085,4.3085,4.3085,4.2885,4.236,4.3815,0.0,0.0,0.0,4.309,4.1139,4.1052,0.0,0.0,0.0,3.9835,3.9386,3.9433,0.0,0.0,3.8716,3.9183,0.0,0.0,0.0,0.0,0.0,0.0,0.0,0.0,0.0,0.0,0.0,0.0,0.0,0.0,0.0,0.0,4.0665,4.1235,4.1256,4.1337,4.13,4.1108,4.1109,4.1109,4.1109,4.1109,4.1109,4.1109,4.1109,4.115,4.1234,4.1234,0.0,0.0,0.0,4.139,4.139,4.139,4.1394,4.1399,4.1399,4.2296,4.3975,4.3897,4.5264,4.7686,4.6826,4.6904,4.7531,4.6866,4.6514,4.6203,4.3788,4.2344,4.1641,4.1641,4.2148,4.2812,4.2734,0.0,0.0,4.4916,4.5143,4.5287,4.6069,4.6302,4.6301,4.6301,4.63,4.6295,4.6236,4.6228,4.6181,4.619,4.6181,4.6171,4.6126,4.6042,4.5991,4.5917,4.5854,4.5807,4.5793,4.5738,4.5719,4.5713,4.5046,4.4525,4.4479,4.3816,4.3393,4.3393,4.3393,0.0,4.318,4.4523,4.4834,4.3648,4.336,4.2453,4.0722,4.0533,4.0364,4.0138,4.0087,3.9645,3.8673,3.8658,3.8658,3.8695,3.9588,4.014,0.0,0.0,0.0,0.0,0.0,0.0,0.0,0.0,0.0,0.0,0.0,0.0,0.0,0.0,0.0,4.0637,4.1485,4.2055,4.2061,4.2686,4.2627,4.1261,4.1109,4.1109,4.1109,4.1109,4.1109,4.1109,4.1109,4.1422,4.2124,4.2163,4.2476,4.318,4.3219,4.3219,4.3219,4.3219,4.3181,4.3182,4.3182,0.0,4.5758,4.5055,4.6191,4.8617,4.7712,4.7444,4.7649,4.8112,4.7917,4.7219,4.6013,4.5038,4.4257,4.4258,4.4805,4.5469,4.4726,4.5078,4.582,4.5976,4.6052,4.6084,4.624,4.6311,0.0,4.6301,4.6294,4.6287,4.6283,4.6234,4.6184,4.6204,4.62,4.6187,4.6091,4.6108,4.603,4.5938,4.5896,4.5859,4.5727,4.5765,4.5762,4.5719,4.5567,4.5415,4.5368,4.5205,4.5128,4.5128,4.5128,4.4816,4.4111,4.4724,4.4467,4.283,4.16,4.0768,4.04,3.9534,3.9076,3.9008,3.8911,3.8768,3.8551,3.8488,3.8465,3.8501,3.9414,4.0182,0.0,0.0,0.0,0.0,0.0,0.0,0.0,0.0,0.0,0.0,0.0,4.0558,4.1415,0.0,4.1222,4.2097,4.2643,4.2942,4.2939,4.3344,4.3283,4.2438,4.2335,4.2342,4.2342,4.2391,4.2397,4.2397,4.2397,4.2592,4.3021,4.306,4.3255,4.3685,4.3685,4.3685,4.3685,4.3685,4.3685,4.3724,4.4153,4.5246,4.6963,4.6924,4.8101,5.0139,4.97,4.9509,4.952,4.9946,4.9596,4.8859,4.8864,4.7537,4.5662,4.5664,4.5937,4.625,4.5781,4.6211,4.6953,4.6953,4.7263,4.761,4.7607,4.7601,4.7594,4.7551,4.7546,4.7462,4.7027,4.6865,4.6738,4.6288,4.6204,4.6195,4.6158,4.6132,4.6097,4.5994,4.5968,4.5851,4.5738,4.5684,4.5699,4.5684,4.5691,4.5693,4.5667,4.5607,4.5594,4.5594,4.5594,4.5349,4.4758,4.4656,4.4051,4.2762,4.1838,4.0952,4.0111,3.959,3.9077,3.8627,3.8544,3.8468,3.8436,3.8433,3.8417,3.8417,3.9276,3.9876,0.0,0.0,0.0,0.0,0.0,0.0,0.0,4.083,4.1257,4.0788,4.1218,4.1879,4.258,4.258,4.267,4.3402,4.3677,4.3821,4.3824,4.3966,4.4094,4.4111,4.3827,4.3611,4.3611,4.3673,4.3685,4.3685,4.3685,4.3763,4.3958,4.3958,4.4036,4.4193,4.4193,4.4193,4.4193,4.4193,4.4193,4.4193,4.4933,4.6143,4.786,4.8486,4.9741,5.1389,5.1383,5.1383,5.1387,5.1389,5.1001,5.0419,5.1129,4.9724,4.7263,4.7109,4.7148,4.7266,4.7109,4.7539,4.8124,4.8124,4.8433,4.8855,4.8891,4.8886,4.8839,4.8799,4.8798,4.8638,4.7916,4.7714,4.7549,4.6805,4.6637,4.6631,4.6605,4.6571,4.6538,4.652,4.6398,4.6285,4.6175,4.61,4.5966,4.565,4.5625,4.5633,4.5633,4.5546,4.5543,4.5735,4.5716,4.5638,4.5466,4.4927,4.4311,4.3602,4.293,4.1981,4.0642,4.0312,3.9795,3.9027,3.8951,3.8911,3.8883,3.885,3.8798,3.8826,3.9434,3.9741,4.2718,4.1813,4.0829,4.1701,4.1313,4.0944,0.0,4.2578,4.3391,4.4093,4.4287,4.4404,4.4481,4.3899,4.3394,4.3476,4.4144,4.4671,4.4675,4.5347,4.5831,4.5902,4.453,4.3611,4.3611,4.3673,4.3685,4.3685,4.3685,4.4036,4.4815,4.4855,4.5207,4.5988,4.6027,4.6027,4.6027,4.6027,4.6027,4.6027,4.6105,4.7042,4.8681,4.8759,4.9741,5.139,5.1395,5.139,5.1417,5.1386,5.1346,5.1262,5.1356,5.1165,5.0736,5.0038,5.0234,5.0742,5.0,4.9844,4.9922,4.9922,4.9366,4.8751,4.8853,4.8833,4.8716,4.879,4.8798,4.875,4.8615,4.8557,4.8493,4.8214,4.8138,4.8123,4.8063,4.8043,4.8044,4.7975,4.7906,4.7837,4.7775,4.7707,4.7121,4.5563,4.5326,4.5329,4.5329,4.5197,4.5349,4.6132,4.6071,4.6152,4.6662,4.6532,4.6243,4.5867,4.4402,4.3416,4.3111,4.1735,4.0912,4.0793,4.0637,4.0552,4.0544,4.0335,4.0256,4.0256,4.0356,4.0445,4.1973,4.1816,4.1744,4.2114,4.1913,4.1881,4.2772,4.3627,4.4344,4.4714,4.5192,4.5558,4.5604,4.5339,4.5066,4.5066,4.5393,4.56,4.5565,4.5883,4.6165,4.6135,4.5524,4.5092,4.5098,4.5156,4.5208,4.5208,4.5208,4.5364,4.5753,4.5753,4.5909,4.6301,4.6301,4.6301,4.6301,4.6301,4.6301,4.6301,4.6807,4.7666,4.8837,4.9344,5.0245,5.1382,5.1391,5.139,5.1385,5.14,5.1403,5.1404,5.1405,5.1398,5.1316,5.1015,5.1094,5.1367,5.097,5.0848,5.0846,5.0786,5.0485,5.0185,5.0236,5.0215,5.0149,5.0199,5.0155,5.002,4.9471,4.9333,4.9186,4.8556,4.8415,4.8403,4.8357,4.8329,4.8305,4.8318,4.8217,4.8107,4.802,4.7951,4.7602,4.6767,4.6691,4.6734,4.6734,4.6664,4.6733,4.6988,4.6796,4.6698,4.6906,4.6642,4.6401,4.6262,4.554,4.4926,4.4376,4.3682,4.3043,4.2523,4.192,4.158,4.1431,4.087,4.0581,4.0519,4.0981,4.1225,4.2486,4.2473,4.2679,4.2908,4.2741,4.2819,4.3671,4.437,4.4894,4.5145,4.57,4.6142,4.6178,4.6184,4.6262,4.6496,4.6545,4.659,4.6824,4.6907,4.691,4.6834,4.6875,4.6912,4.6933,4.6548,4.628,4.628,4.628,4.628,4.628,4.6514,4.6632,4.6632,4.6866,4.6984,4.6984,4.6979,4.6979,4.6984,4.7641,4.85,4.9561,5.0654,5.1474,5.21,5.2104,5.2106,5.2106,5.207,5.2066,5.2061,5.2035,5.2009,5.1957,5.2009,5.1747,5.1355,5.129,5.1277,5.127,5.122,5.1185,5.1165,5.117,5.1193,5.1169,5.1162,5.1146,5.0967,5.0297,5.0112,4.9922,4.9188,4.9206,4.9346,4.9347,4.9471,4.9648,4.9652,4.9538,4.9442,4.9324,4.9045,4.8841,4.8679,4.8533,4.8252,4.7783,4.785,4.7889,4.7707,4.7662,4.7657,4.7545,4.7214,4.6997,4.6972,4.6726,4.6313,4.5676,4.5389,4.4853,4.3997,4.3457,4.2978,4.2561,4.1858,4.135,4.1142,4.1492,4.1626,4.596,4.482,4.3824,4.4627,4.4193,4.3805,4.466,4.4894,4.5128,4.5987,4.6182,4.6182,4.6183,4.6184,4.6457,4.7238,4.7356,4.7675,4.8587,4.8708,4.8711,4.8709,4.8705,4.8702,4.8702,4.7181,4.6205,4.6205,4.6205,4.6205,4.6205,4.6985,4.7454,4.7454,4.8273,4.8702,4.8702,4.8711,4.8711,4.8702,4.875,4.9648,5.1398,5.3038,5.3819,5.3818,5.3818,5.3818,5.3817,5.376,5.3711,5.3707,5.3662,5.3639,5.3635,5.3623,5.2608,5.1209,5.1207,5.1205,5.1205,5.1203,5.1179,5.1106,5.1188,5.1141,5.1098,5.1117,5.1094,5.1061,5.0893,5.0883,5.084,5.0653,5.1217,5.1774,5.1724,5.2366,5.2916,5.2805,5.2724,5.2652,5.2577,5.1866,5.1288,5.1281,5.0552,4.9423,4.7725,4.8025,4.8329,4.8183,4.8765,4.9147,4.9139,4.8927,4.8772,4.873,4.798,4.7492,4.7322,4.6495,4.581,4.5258,4.5532,4.5213,4.4245,4.3753,4.3255,4.2696,4.1879,4.1519,4.5534,4.4954,4.4412,4.4125,4.4238,4.4707,4.5564,4.6228,4.6858,4.7731,4.7458,4.7069,4.7107,4.7145,4.7223,4.7496,4.7965,4.8432,4.8776,4.8816,4.8813,4.8796,4.8796,4.8794,4.8788,4.8262,4.792,4.792,4.792,4.792,4.792,4.8194,4.8349,4.8349,4.8662,4.9091,4.9676,4.9643,4.9955,5.0534,5.1088,5.1362,5.1474,5.3153,5.3895,5.3895,5.3845,5.3838,5.3835,5.3777,5.3744,5.3738,5.3709,5.3655,5.3617,5.3647,5.3269,5.2738,5.2786,5.2772,5.28,5.2754,5.269,5.258,5.2041,5.1862,5.1706,5.1125,5.0952,5.0871,5.0804,5.1175,5.1553,5.1525,5.212,5.2769,5.2715,5.292,5.3086,5.308,5.3004,5.2941,5.2958,5.2653,5.2175,5.1548,5.0691,4.9867,4.9233,4.9357,4.9387,4.9226,4.9386,4.9491,4.9337,4.9273,4.9127,4.8901,4.8526,4.8171,4.7875,4.7272,4.6886,4.6706,4.6044,4.5516,4.5098,4.4394,4.3917,4.3603,4.3298,4.3089,4.5703,4.5429,4.5351,4.5078,4.5468,4.6093,4.6952,4.7577,4.8125,4.8669,4.8355,4.7883,4.7631,4.7587,4.7704,4.7978,4.8447,4.9031,4.9648,4.9728,4.9725,4.9749,4.975,4.9747,4.9739,4.9726,4.9466,4.8843,4.8804,4.8802,4.8798,4.9384,4.9693,4.9689,5.0313,5.0897,5.1442,5.1143,5.1266,5.1851,5.266,5.2968,5.2812,5.4218,5.4843,5.4842,5.4785,5.4775,5.477,5.4654,5.4601,5.4575,5.4573,5.4534,5.4464,5.4464,5.4432,5.4326,5.3772,5.3571,5.3557,5.3495,5.3502,5.3386,5.2844,5.2651,5.2526,5.1974,5.1747,5.1717,5.1668,5.2054,5.2444,5.2425,5.3036,5.3646,5.3669,5.3869,5.4045,5.4051,5.3997,5.3952,5.3931,5.3644,5.3071,5.2179,5.1501,5.0843,5.0114,4.9999,4.9933,4.9835,4.9743,4.9611,4.9299,4.9265,4.9077,4.8705,4.8559,4.8383,4.8124,4.7746,4.7474,4.7313,4.6726,4.6141,4.5611,4.4951,4.4577,4.4441,4.4113,4.3901,4.6588,4.6346,4.6495,4.7392,4.7626,4.786,4.8681,4.8915,4.8915,4.8915,4.8916,4.8642,4.786,4.7743,4.7978,4.8681,4.8876,4.9501,5.1102,5.1367,5.1399,5.1399,5.1386,5.1415,5.1415,5.1415,5.0714,4.9079,4.892,4.8911,4.8932,5.0491,5.1379,5.1359,5.2993,5.389,5.389,5.3088,5.268,5.268,5.3568,5.4396,5.5214,5.6115,5.6507,5.6507,5.6503,5.6503,5.6498,5.6368,5.6272,5.6207,5.6132,5.6052,5.6016,5.6008,5.6008,5.5776,5.4194,5.3618,5.3618,5.3618,5.3618,5.3618,5.3579,5.3579,5.3528,5.3443,5.3387,5.3417,5.3415,5.3445,5.3431,5.3379,5.3981,5.4587,5.457,5.5175,5.5692,5.5638,5.5621,5.556,5.5535,5.4845,5.4039,5.3184,5.2991,5.2273,5.0463,5.019,5.0151,5.0144,4.9948,4.9649,4.9209,4.9047,4.8769,4.8325,4.8163,4.8094,4.8075,4.7864,4.7542,4.7096,4.7428,4.7041,4.5876,4.549,4.5306,4.532,4.45,4.4078,4.7135,4.6776,4.6495,4.7392,4.8056,4.872,4.9578,5.0281,5.075,5.075,5.0209,4.9705,4.9501,4.9467,4.9314,4.8877,4.9891,5.0672,5.0476,5.0981,5.141,5.141,5.1408,5.1406,5.1406,5.1406,5.121,5.0781,5.0677,5.0654,5.0649,5.1686,5.2259,5.2253,5.3344,5.389,5.389,5.3672,5.3563,5.3563,5.4443,5.4981,5.5214,5.6115,5.6507,5.6505,5.6388,5.6332,5.6327,5.6269,5.623,5.6207,5.6132,5.6087,5.606,5.6033,5.6008,5.593,5.5505,5.535,5.535,5.535,5.535,5.5238,5.4658,5.4465,5.4302,5.3597,5.3387,5.3417,5.3415,5.383,5.4289,5.4275,5.4921,5.5528,5.5557,5.5643,5.5766,5.5751,5.5714,5.5665,5.5604,5.4907,5.4282,5.4006,5.3409,5.2771,5.2207,5.205,5.1986,5.194,5.168,5.1141,5.0371,5.0027,4.9424,4.8371,4.8163,4.7965,4.7673,4.7287,4.7007,4.6882,4.666,4.6729,4.6993,4.6883,4.6984,4.7201,4.6967,4.6708,4.7013,4.6968,4.7081,4.7938,4.8758,4.9617,5.0476,5.1065,5.1382,5.1382,5.0998,5.0532,5.0172,5.0097,4.9941,4.9463,5.0203,5.0788,5.0671,5.1101,5.1531,5.1921,5.1961,5.2117,5.2507,5.2541,5.2537,5.2537,5.1816,5.1487,5.1868,5.2709,5.3354,5.3734,5.4201,5.4084,5.3344,5.3344,5.3539,5.3929,5.4396,5.502,5.5801,5.6271,5.6507,5.6505,5.6439,5.6386,5.6383,5.6286,5.6242,5.6207,5.6132,5.6079,5.604,5.6029,5.6008,5.6008,5.6008,5.6008,5.6008,5.6008,5.6008,5.593,5.5466,5.5316,5.523,5.4701,5.4809,5.5113,5.5091,5.5743,5.6246,5.5836,5.6097,5.6353,5.5982,5.5865,5.5792,5.5792,5.5643,5.5499,5.5458,5.4961,5.4543,5.4543,5.4091,5.3733,5.366,5.2986,5.2496,5.242,5.2054,5.1565,5.0887,5.0617,5.0091,4.9218,4.9008,4.8773,4.8551,4.8238,4.8066,4.8066,4.7868,4.789,4.8143,4.8143,4.8317,4.8682,4.8682,4.8514,4.6498,4.6924,4.7782,4.8603,4.9461,5.0319,5.1219,5.1382,5.1388,5.1388,5.1393,5.1161,5.0412,5.0177,5.0097,5.0087,5.0085,5.0398,5.1297,5.1492,5.1882,5.2781,5.2859,5.3172,5.3912,5.4017,5.401,5.401,5.2603,5.2049,5.2735,5.3616,5.4455,5.5331,5.5253,5.4474,5.2954,5.2838,5.3266,5.424,5.424,5.5139,5.6819,5.6819,5.6819,5.6819,5.6819,5.6819,5.6814,5.6692,5.6603,5.6547,5.6513,5.644,5.6372,5.636,5.6386,5.6377,5.6377,5.6369,5.6317,5.6085,5.6008,5.6008,5.6008,5.6008,5.6008,5.6124,5.6704,5.7323,5.7439,5.8023,5.8401,5.7564,5.7356,5.7144,5.6333,5.6123,5.6087,5.6081,5.575,5.5479,5.5479,5.5102,5.4829,5.4829,5.4761,5.4708,5.4693,5.3482,5.2574,5.2537,5.2123,5.1674,5.1258,5.1038,5.0788,5.0354,5.0075,4.9965,4.9942,4.9818,4.9739,4.9716,4.9704,4.9566,4.9316,4.9316,4.9533,4.9921,4.9921,4.9775,4.6342,4.6924,4.7782,4.8603,4.9461,5.0319,5.1219,5.1415,5.1417,5.1417,5.1385,5.135,5.1184,5.0603,5.0097,5.0087,5.0085,5.0398,5.1297,5.2039,5.2781,5.3678,5.3756,5.3834,5.399,5.4017,5.401,5.401,5.3675,5.3541,5.3653,5.4492,5.5375,5.6232,5.5567,5.5059,5.4747,5.4046,5.4476,5.6037,5.6037,5.6933,5.857,5.857,5.857,5.857,5.857,5.857,5.857,5.8522,5.8513,5.8501,5.8446,5.8414,5.8399,5.8344,5.8276,5.8215,5.8215,5.8204,5.7912,5.6472,5.6008,5.6008,5.6008,5.6008,5.6162,5.6859,5.7168,5.7477,5.8178,5.8492,5.8538,5.8199,5.8125,5.8,5.7716,5.7588,5.7526,5.7468,5.6887,5.6365,5.6365,5.5569,5.4957,5.4957,5.4873,5.4761,5.47,5.442,5.4184,5.4168,5.3795,5.3217,5.2327,5.1972,5.1391,5.0435,5.0346,5.0282,5.021,5.0101,5.0001,4.9864,4.975,4.9935,5.0426,5.0426,5.0647,5.1021,5.1021,5.0863,4.6302,4.7237,4.833,4.8681,4.9813,5.0905,5.1297,5.1419,5.1383,5.1383,5.139,5.1393,5.1385,5.1074,5.0644,5.0165,5.0866,5.1453,5.1414,5.2546,5.3717,5.4576,5.4693,5.4849,5.5317,5.5305,5.5297,5.5297,5.5276,5.5062,5.4585,5.5385,5.584,5.5801,5.5409,5.4981,5.4513,5.4552,5.5217,5.6507,5.6933,5.7791,5.8999,5.8999,5.8999,5.8999,5.8999,5.8999,5.8996,5.8971,5.8961,5.8956,5.8859,5.8832,5.8829,5.8798,5.871,5.8596,5.8596,5.8499,5.8243,5.7428,5.7236,5.7366,5.7366,5.7675,5.8139,5.8526,5.9196,5.9783,5.9755,5.9996,6.0019,5.9004,5.8448,5.81,5.7972,5.7941,5.7921,5.7856,5.7385,5.702,5.702,5.6452,5.5969,5.5834,5.5789,5.5679,5.5531,5.5103,5.4663,5.4317,5.3953,5.3504,5.2979,5.2729,5.2402,5.1793,5.1682,5.1617,5.1588,5.1489,5.1363,5.1307,5.1219,5.1272,5.1538,5.1874,5.2133,5.2225,5.2539,5.232,4.6301,4.751,4.8798,4.8798,5.0126,5.1372,5.1362,5.1368,5.1333,5.1323,5.1327,5.1334,5.1336,5.1219,5.0906,5.0437,5.1531,5.2313,5.1999,5.3288,5.4615,5.5475,5.5592,5.5864,5.6527,5.6554,5.6506,5.6503,5.647,5.6176,5.5519,5.6287,5.647,5.576,5.5916,5.5682,5.4981,5.5682,5.6464,5.7323,5.7924,5.8654,5.9469,5.9446,5.9433,5.9433,5.9433,5.9433,5.943,5.9383,5.9361,5.9355,5.9301,5.9279,5.9279,5.9279,5.9145,5.8997,5.8988,5.885,5.8702,5.8685,5.8594,5.8525,5.8713,5.921,5.9818,6.0161,6.1136,6.1908,6.142,6.1652,6.167,6.0085,5.9158,5.8615,5.8363,5.8358,5.8378,5.8324,5.7982,5.7666,5.7666,5.7259,5.6885,5.6732,5.6678,5.6622,5.645,5.5787,5.5145,5.4605,5.397,5.3511,5.339,5.3355,5.3335,5.3366,5.3237,5.3233,5.3394,5.3283,5.3179,5.3145,5.3091,5.2964,5.287,5.3363,5.3466,5.32,5.3781,5.346,4.6301,4.751,4.8798,4.8798,5.0126,5.1364,5.1268,5.1214,5.1195,5.1063,5.1045,5.1076,5.1203,5.0554,5.0303,5.1134,5.1414,5.2038,5.3561,5.4576,5.5513,5.6372,5.6488,5.6527,5.6605,5.6554,5.6502,5.6486,5.6334,5.6261,5.6371,5.7196,5.7617,5.7479,5.8258,5.8609,5.8531,5.8609,5.9077,5.9932,5.9829,6.0235,6.109,6.0897,6.082,6.082,6.082,6.082,6.082,6.0811,6.0807,6.0807,6.0797,6.0793,6.0793,6.0793,6.0766,6.0661,6.0525,6.0464,6.0378,6.031,5.9305,5.8283,5.9007,5.9234,5.9574,6.1102,6.1626,6.1882,6.2617,6.2834,6.2619,6.1542,6.1065,6.0603,5.9874,5.9722,5.973,5.9722,5.9091,5.8575,5.8575,5.7732,5.7062,5.7046,5.6955,5.6887,5.6869,5.6631,5.6416,5.636,5.4801,5.3754,5.3684,5.3664,5.3921,5.4521,5.4407,5.4621,5.5295,5.5209,5.5097,5.4971,5.4854,5.4724,5.4665,5.4604,5.4192,5.3477,5.4005,5.3556,4.762,4.8481,4.9419,4.9419,5.0276,5.1165,5.1084,5.1074,5.1061,5.1014,5.1005,5.102,5.1066,5.0801,5.0544,5.0467,5.1293,5.2191,5.2888,5.4175,5.5407,5.6314,5.6425,5.6436,5.6513,5.6427,5.6278,5.6197,5.612,5.6322,5.6874,5.7249,5.7426,5.7409,5.8221,5.8644,5.8644,5.9148,5.9618,5.9928,6.041,6.0764,6.1113,6.1034,6.0997,6.0997,6.0997,6.0997,6.0997,6.0997,6.0997,6.0997,6.0997,6.0997,6.0997,6.0997,6.0895,6.0773,6.0712,6.0608,6.0461,6.0435,5.998,5.9597,6.0527,6.1192,6.1851,6.2949,6.3183,6.3052,6.2875,6.1971,6.1043,6.0692,6.0491,6.0273,5.9969,5.9893,5.9893,5.9893,5.9628,5.9439,5.9439,5.9079,5.8723,5.8614,5.8574,5.8495,5.8341,5.7744,5.7323,5.7323,5.6123,5.5278,5.5141,5.5131,5.5229,5.5422,5.537,5.5444,5.5705,5.5574,5.5452,5.5327,5.5119,5.499,5.4954,5.5219,5.5199,5.488,5.5151,5.4732,4.8499,4.9129,4.9798,4.9798,5.0381,5.0993,5.0956,5.0988,5.0976,5.0932,5.0921,5.0935,5.094,5.0988,5.0804,5.0258,5.1594,5.2684,5.2672,5.4155,5.5515,5.614,5.6249,5.6264,5.6322,5.6197,5.6064,5.5903,5.5878,5.6218,5.6971,5.7279,5.7583,5.7933,5.874,5.9166,5.9166,5.9789,6.006,6.0098,6.0664,6.091,6.0905,6.0843,6.0811,6.0811,6.0811,6.0811,6.0811,6.0811,6.0811,6.0811,6.0811,6.0811,6.0811,6.0811,6.0744,6.0628,6.0603,6.0475,6.0373,6.0313,6.0316,6.0506,6.1666,6.2515,6.3239,6.4255,6.4253,6.3808,6.3169,6.1839,6.0584,6.0383,6.0275,6.0197,5.9931,5.9893,5.9893,5.9893,5.9893,5.9893,5.9893,5.9893,5.9844,5.971,5.9693,5.965,5.9481,5.8811,5.8297,5.824,5.7552,5.6853,5.6193,5.6145,5.6226,5.6366,5.6324,5.6409,5.6561,5.626,5.6056,5.5929,5.551,5.5313,5.5349,5.5623,5.5664,5.5477,5.5603,5.5188,4.8499,4.9129,4.9798,4.9798,5.0381,5.0972,5.0913,5.0917,5.0866,5.0721,5.0717,5.074,5.0886,5.0917,5.0928,5.0984,5.2445,5.3575,5.3575,5.5009,5.6097,5.6097,5.6097,5.6084,5.6012,5.5936,5.5849,5.5696,5.5625,5.5911,5.6575,5.7403,5.8448,5.962,6.0528,6.0959,6.0959,6.0997,6.0997,6.0997,6.0784,6.071,6.0698,6.0513,6.0422,6.0422,6.0422,6.0422,6.0422,6.0422,6.0422,6.0422,6.0422,6.0422,6.0422,6.0422,6.0384,6.0408,6.0323,6.0294,6.0279,6.0159,6.0189,6.0577,6.2132,6.2611,6.2953,6.472,6.4541,6.382,6.3782,6.3099,6.2151,6.1296,6.1106,6.0879,6.0083,5.9893,5.9893,5.9893,5.9893,5.9893,5.9893,5.9893,5.9893,5.9893,5.9893,5.9893,5.9885,5.9727,5.9499,5.9309,5.9111,5.8234,5.6452,5.632,5.6655,5.7425,5.7359,5.7614,5.833,5.7653,5.7217,5.708,5.6425,5.609,5.609,5.5759,5.5293,5.4726,5.4978,5.456,4.9989,5.0186,5.0422,5.0422,5.0615,5.0799,5.0781,5.0767,5.0749,5.0721,5.0707,5.0731,5.0753,5.0767,5.0935,5.1524,5.2078,5.2854,5.4051,5.4673,5.5225,5.5885,5.5986,5.5951,5.575,5.5697,5.5625,5.5499,5.5463,5.5797,5.6562,5.6861,5.7475,5.8442,5.9836,6.0296,5.9714,6.0296,6.0603,6.0603,6.052,6.0475,6.0475,6.0418,6.0415,6.0415,6.0415,6.0415,6.0415,6.0415,6.0415,6.0415,6.0415,6.0415,6.0415,6.0415,6.0415,6.0415,6.0387,6.0373,6.0373,6.0313,6.032,6.0564,6.1597,6.2315,6.2955,6.4005,6.4087,6.3728,6.3251,6.2405,6.1649,6.1383,6.0811,6.0261,5.9948,5.9893,5.9893,5.9893,5.9893,5.9893,5.9893,5.9893,5.9893,5.9893,5.9893,5.9893,5.9893,5.9727,5.9589,5.9528,5.8967,5.8401,5.7982,5.7945,5.8056,5.8316,5.8026,5.794,5.8122,5.7425,5.6964,5.6822,5.6352,5.6112,5.6112,5.5879,5.5417,5.4695,5.466,5.4152,5.0707,5.0707,5.0707,5.0707,5.0707,5.0707,5.0707,5.0707,5.0707,5.0707,5.0707,5.0707,5.0707,5.0707,5.0976,5.1774,5.2197,5.2885,5.4287,5.4709,5.5137,5.5673,5.5765,5.5716,5.5544,5.5504,5.5499,5.5409,5.5396,5.5747,5.6556,5.6899,5.7358,5.7886,5.9224,5.9797,5.9606,6.0148,6.0415,6.0415,6.0415,6.0415,6.0415,6.0415,6.0415,6.0415,6.0415,6.0415,0.0,6.0415,6.0415,6.0415,6.0415,6.0415,6.0415,6.0415,6.0415,6.0415,6.0415,6.0415,6.0415,6.0415,6.0606,6.1027,6.186,6.2671,6.3505,6.4252,6.4213,6.3816,6.3375,6.2567,6.1888,6.1888,6.1438,6.1003,6.0955,6.0947,6.0863,6.0519,6.0435,6.0313,5.9977,5.9893,5.9893,5.9893,5.9893,5.9844,5.9673,5.9543,5.9344,5.9121,5.8648,5.8369,5.8378,5.8297,5.8264,5.8264,5.8063,5.7879,5.7798,5.7127,5.6639,5.6384,5.5922,5.5628,5.5511,5.5348,5.4957,5.4317,5.4187,5.3781,0.0,5.0707,5.0707,5.0707,5.0707,5.0707,5.0707,5.0707,0.0,5.0707,5.0707,5.0707,5.0707,5.0745,5.1053,5.1851,5.2736,5.3567,5.4353,5.511,5.5587,5.5485,5.5419,5.5382,5.5415,5.5396,5.5396,5.5396,5.5435,5.5785,5.6479,5.739,5.7886,5.7886,5.8682,5.9491,6.03,6.03,6.0339,6.0415,6.0339,6.0339,6.0415,6.0415,6.0415,6.0415,6.0415,6.0415,6.0415,6.0415,6.0415,6.0415,6.0415,6.0415,6.0415,6.0415,6.0415,6.0415,6.0415,6.0415,6.0415,6.0415,6.0905,6.1669,6.2541,6.3465,6.4351,6.5184,6.4787,6.4115,6.4115,6.3459,6.2794,6.2787,6.2749,6.271,6.2703,6.2703,6.2451,6.1565,6.1397,6.1107,6.0229,6.0099,6.0091,6.0091,5.9991,5.9774,5.9336,5.9225,5.8949,5.8369,5.826,5.8142,5.7809,5.7667,5.7595,5.7583,5.7559,5.7486,5.7363,5.678,5.6284,5.5865,5.5259,5.4807,5.4478,5.4303,5.4045,5.3734,5.3717,5.3534,5.0707,0.0,5.0707,5.0707,5.0707,5.0707,0.0,5.0707,5.0707,5.0707,5.0707,5.0707,5.0707,5.1202,5.189,5.2774,5.3626,5.4451,5.5198,5.5422,5.5479,5.5413,5.5395,5.5402,5.539,5.5409,5.5396,5.5396,5.5976,5.6129,5.5708,5.7084,5.7886,5.7886,5.8682,5.9217,5.9408,5.9408,5.9759,6.0377,5.972,5.9759,6.0415,6.0415,6.0415,6.0415,6.0415,6.0415,6.0415,6.0415,6.0415,6.0415,6.0415,6.0415,6.0415,6.0415,6.0415,6.0415,6.0415,6.0415,6.0415,6.0415,6.053,6.0835,6.1669,6.2968,6.4351,6.5184,6.5245,6.5077,6.5077,6.4459,6.3825,6.3718,6.3207,6.2773,6.2718,6.2703,6.2619,6.2413,6.2367,6.2283,6.2077,6.1975,6.1888,6.1888,6.1024,6.0303,6.021,5.9323,5.8689,5.8534,5.8113,5.7831,5.7737,5.775,5.7727,5.7595,5.7301,5.7125,5.7087,5.6429,5.5901,5.5619,5.4961,5.4573,5.4478,5.4303,5.411,5.3931,5.3783,5.3601,5.0784,5.0707,5.0707,5.0707,5.0707,5.0707,5.0707,5.0707,5.0707,5.0707,5.0976,5.1241,5.1241,5.1928,5.2774,5.3664,5.4203,5.4753,5.5433,5.5494,5.5453,5.5415,5.5415,5.5403,5.5403,5.5747,5.5938,5.5938,5.6708,5.7008,5.6587,5.7772,5.8459,5.8459,5.9262,5.9682,5.9682,5.9682,6.0102,6.0943,6.0485,6.0707,6.1554,6.1554,6.1554,6.1554,6.1554,6.1554,6.1554,6.1554,6.1325,6.0943,6.0943,6.0721,6.0415,6.0415,6.0415,6.0415,6.0415,6.0415,6.0415,6.0415,6.0415,6.0568,6.1363,6.2242,6.3274,6.4504,6.5108,6.5413,6.5413,6.507,6.4718,6.4673,6.4322,6.3963,6.3963,6.3955,6.3795,6.3367,6.3164,6.2863,6.237,6.2084,6.1864,6.1817,6.1192,6.0642,6.0444,5.98,5.9286,5.9058,5.8762,5.8566,5.8503,5.8453,5.8074,5.721,5.6868,5.6733,5.6733,5.6355,5.6007,5.5706,5.5068,5.473,5.473,5.4463,5.4427,5.4642,5.4543,5.4532,5.1087,5.0899,5.0861,5.0745,5.0784,5.0899,5.0899,5.0899,5.0938,5.1053,5.1625,5.2115,5.2115,5.2813,5.3626,5.4395,5.4572,5.4831,5.5408,5.544,5.5435,5.5549,5.5587,5.5632,5.5785,5.6396,5.6785,5.6785,5.774,5.823,5.8077,5.9102,5.9637,5.9484,6.0332,6.0797,6.0797,6.053,6.0797,6.1593,6.1593,6.2044,6.2884,6.2884,6.2884,6.2884,6.2884,6.2884,6.2884,6.2884,6.2464,6.1784,6.1784,6.1363,6.0797,6.0797,6.0797,6.0797,6.0797,6.0797,6.0797,6.0797,6.0797,6.0912,6.1593,6.1898,6.228,6.3778,6.4695,6.5261,6.5375,6.5413,6.5413,6.5413,6.5413,6.536,6.5314,6.5298,6.5038,6.4187,6.3722,6.3219,6.2288,6.1871,6.1571,6.1464,6.1244,6.0958,6.0564,6.031,6.0041,5.9618,5.9602,5.9562,5.9443,5.9295,5.8569,5.7084,5.6836,5.674,5.674,5.6698,5.6559,5.6255,5.5639,5.5355,5.5355,5.4997,5.5088,5.5578,5.5578,5.5755,5.1736,5.1736,5.1543,5.0861,5.1202,5.1736,5.1736,5.1736,5.1928,5.2664,5.289,5.3005,5.3005,5.3703,5.4357,5.4472,5.4968,5.537,5.5407,5.5409,5.567,5.632,5.6441,5.6702,5.7428,5.7619,5.7695,5.7695,5.9154,5.9689,5.8949,6.1089,6.1967,6.1249,6.2044,6.2502,6.2502,6.1103,6.0797,6.1593,6.1593,6.2044,6.2884,6.2884,6.2884,6.2884,6.2884,6.2884,6.2884,6.2884,6.2808,6.2693,6.2693,6.2617,6.2502,6.2502,6.2502,6.2502,6.2502,6.2502,6.2502,6.2502,6.2502,6.2548,6.2655,6.3236,6.3854,6.4122,6.4275,6.4542,6.5222,6.5413,6.5413,6.5413,6.5413,6.5298,6.4977,6.487,6.4728,6.4181,6.4018,6.3931,6.3778,6.3638,6.3562,6.3551,6.242,6.1552,6.1481,6.043,5.967,5.9615,5.9602,5.9602,5.9575,5.9349,5.9078,5.8799,5.8522,5.8367,5.8367,5.8138,5.7992,5.7948,5.7281,5.6938,5.6938,5.6605,5.6396,5.6317,5.6317,5.6302,5.151,5.2279,5.3005,5.1664,5.1967,5.2582,5.2582,5.2582,5.2736,5.3121,5.3587,5.3885,5.3853,5.454,5.5067,5.5034,5.5261,5.5457,5.5389,5.5785,5.6205,5.6556,5.7014,5.7466,5.7848,5.8307,5.8727,5.923,6.0377,6.1096,6.1165,6.2273,6.2732,6.2311,6.2693,6.2884,6.2884,6.2586,6.2631,6.3014,6.3014,6.3427,6.4267,6.4267,6.4267,6.4267,6.4267,6.4267,6.4267,6.4267,6.4,6.3579,6.3579,6.3312,6.2884,6.2884,6.2884,6.2884,6.2884,6.2884,6.2884,6.2884,6.2884,6.2884,6.2884,6.3197,6.3542,6.3746,6.4664,6.5643,6.6025,6.6445,6.6751,6.6751,6.6562,6.6332,6.6128,6.5908,6.5649,6.5448,6.5229,6.5045,6.4968,6.4675,6.4426,6.4328,6.3659,6.3142,6.3142,6.2572,6.2041,6.1571,6.1534,6.139,6.0942,6.0729,6.0148,5.8986,5.8795,5.8709,5.8709,5.8594,5.8537,5.8537,5.8058,5.7739,5.7573,5.7241,5.7126,5.7258,5.7258,5.738,5.1463,5.274,5.4231,5.3014,5.3084,5.351,5.351,5.3414,5.3404,5.3596,5.4269,5.4721,5.458,5.5092,5.5537,5.5473,5.5611,5.5689,5.567,5.639,5.6976,5.7167,5.7772,5.8268,5.8466,5.9224,5.9873,6.0377,6.1516,6.2395,6.2884,6.3266,6.3496,6.3496,6.3496,6.3496,6.3496,6.4153,6.4389,6.4198,6.4389,6.481,6.5413,6.5413,6.5413,6.5413,6.5413,6.5413,6.5413,6.5413,6.5031,6.4466,6.4466,6.4076,6.3496,6.3496,6.3496,6.3496,6.3496,6.3413,6.3345,6.3345,6.3253,6.3182,6.3182,6.3182,6.324,6.3539,6.4958,6.6357,6.6129,6.67,6.728,6.728,6.715,6.6995,6.6908,6.6616,6.633,6.622,6.5952,6.5742,6.5607,6.5204,6.4858,6.4763,6.4634,6.4509,6.4509,6.4452,6.4156,6.354,6.3468,6.315,6.2312,6.1948,6.1098,5.9402,5.9302,5.9288,5.9259,5.9259,5.9259,5.9259,5.8967,5.8699,5.8459,5.8034,5.8011,5.8319,5.8184,5.8427,5.2372,5.3332,5.4578,5.4961,5.4735,5.4395,5.4395,5.4058,5.3989,5.4803,5.532,5.548,5.5023,5.525,5.5505,5.5401,5.6084,5.6601,5.653,5.7243,5.8077,5.8835,5.8988,5.9331,6.0148,6.0943,6.1134,6.0453,6.2631,6.3694,6.2923,6.4382,6.5222,6.5222,6.5222,6.5222,6.5222,6.5261,6.4924,6.4198,6.4955,6.5337,6.5413,6.5413,6.5413,6.5413,6.5413,6.5413,6.5413,6.5413,6.5375,6.5299,6.5299,6.5261,6.5222,6.5222,6.5222,6.5222,6.5222,6.4981,6.4675,6.4675,6.4387,6.3988,6.3988,6.3988,6.4026,6.4071,6.4768,6.5324,6.4487,6.489,6.5492,6.5492,6.6042,6.6459,6.6078,6.5952,6.5836,6.5469,6.5379,6.5353,6.534,6.5288,6.5262,6.5249,6.4975,6.4763,6.4763,6.4565,6.4374,6.4323,6.4301,6.3941,6.3004,6.2217,6.1608,6.1135,6.112,6.1062,6.0915,6.0915,6.0915,6.0915,6.0585,6.0401,6.0421,5.9755,5.9463,5.9465,5.9097,5.8961,5.2012,5.3302,5.474,5.4182,5.4275,5.4576,5.4829,5.5116,5.5255,5.4806,5.5267,5.5616,5.5394,5.5435,5.5655,5.6146,5.6486,5.6705,5.6673,5.7392,5.7997,5.8299,5.8837,5.948,6.0311,6.0207,6.0623,6.1853,6.2362,6.2938,6.3601,6.4253,6.4593,6.4593,6.4593,6.4593,6.4593,6.4593,6.4442,6.4149,6.4989,6.5413,6.5413,6.5413,6.5413,6.5413,6.5413,6.5413,6.5398,6.5117,6.5027,6.501,6.4693,6.4593,6.4593,6.4593,6.4593,6.4593,6.4593,6.4501,6.4369,6.4369,6.4225,6.4086,6.4086,6.4086,6.4036,6.3803,6.3952,6.4326,6.4786,6.5506,6.6107,6.6107,6.6149,6.6284,6.6609,6.6457,6.6391,6.6699,6.6769,6.6769,6.6769,6.674,6.6646,6.65,6.6285,6.6153,6.6053,6.5953,6.57,6.5192,6.4251,6.3331,6.2452,6.209,6.1784,6.1501,6.1372,6.1241,6.1093,6.1093,6.1093,6.1093,6.0974,6.0808,6.0594,6.0155,5.9781,5.9602,5.9702,5.9495,5.1933,5.331,5.4712,5.3759,5.421,5.4893,5.5049,5.5489,5.5744,5.5149,5.5657,5.6205,5.6142,5.6206,5.6355,5.6664,5.6926,5.7076,5.7076,5.7799,5.8296,5.8296,5.9046,5.9807,6.036,6.036,6.0961,6.2377,6.2472,6.282,6.3673,6.3974,6.4086,6.4086,6.4086,6.4086,6.4086,6.4086,6.4086,6.4096,6.4958,6.5238,6.4981,6.5134,6.522,6.5228,6.5635,6.5796,6.5818,6.5786,6.5685,6.5544,6.519,6.4986,6.4865,6.4865,6.4865,6.4865,6.4865,6.4772,6.4657,6.4657,6.4599,6.4479,6.4479,6.4479,6.4413,6.4158,6.4076,6.4257,6.5158,6.5605,6.5814,6.5814,6.5803,6.5951,6.6494,6.6343,6.6366,6.715,6.7333,6.7407,6.7664,6.762,6.7511,6.7378,6.7224,6.7105,6.6947,6.6889,6.6627,6.6025,6.4758,6.3744,6.3187,6.2897,6.2641,6.2343,6.2212,6.18,6.1144,6.1093,6.1093,6.1093,6.1093,6.0989,6.0762,6.0329,5.9994,5.9767,5.9787,5.953,5.2354,5.3434,5.4396,5.4105,5.4842,5.558,5.5109,5.5006,5.5257,5.6047,5.6786,5.7299,5.7299,5.7629,5.7631,5.6833,5.7368,5.7902,5.7902,5.8624,5.9197,5.9197,5.99,6.0379,6.0388,6.1889,6.2518,6.1653,6.3156,6.3739,6.294,6.3663,6.4076,6.4076,6.4076,6.4076,6.4076,6.4076,6.4076,6.4114,6.4892,6.4865,6.4144,6.4604,6.4821,6.4877,6.6135,6.6697,6.6773,6.7545,6.7593,6.7183,6.7183,6.6898,6.6501,6.6501,6.6501,6.6501,6.6501,6.622,6.587,6.587,6.5608,6.5288,6.5288,6.5288,6.5288,6.5288,6.5288,6.5288,6.5288,6.4714,6.4103,6.4103,6.4714,6.5288,6.5288,6.5288,6.5545,6.6366,6.6512,6.6769,6.759,6.77,6.77,6.77,6.7579,6.7428,6.7224,6.7069,6.6947,6.6801,6.6062,6.5591,6.5591,6.483,6.4231,6.3889,6.3875,6.3044,6.1179,6.1129,6.1129,6.1093,6.1093,6.1093,6.1093,6.0439,6.0123,6.0091,5.9351,5.8995,5.2629,5.329,5.4064,5.4289,5.4553,5.5061,5.6029,5.6502,5.6665,5.6625,5.6812,5.6938,5.6938,5.7046,5.7243,5.755,5.7808,5.7967,5.7967,5.8189,5.8348,5.8348,5.8569,5.9161,6.0296,6.0333,6.0876,6.2343,6.2366,6.2489,6.2798,6.3069,6.318,6.318,6.318,6.318,6.318,6.318,6.318,6.318,6.3438,6.403,6.4987,6.5662,6.6014,6.6014,6.6406,6.6568,6.6548,6.6493,6.6247,6.5873,6.5873,6.5778,6.5669,6.5669,6.5669,6.5669,6.5669,6.5583,6.5494,6.5494,6.538,6.5288,6.5288,6.5288,6.5288,6.5288,6.5288,6.5288,6.5288,6.5105,6.4934,6.4934,6.5141,6.5472,6.6035,6.6145,6.6366,6.7187,6.7333,6.759,6.8421,6.8531,6.849,6.8431,6.778,6.7,6.6162,6.6526,6.6613,6.6025,6.5229,6.4519,6.3975,6.3164,6.2604,6.2307,6.2292,6.2183,6.1944,6.2449,6.2464,6.1965,6.1929,6.1929,6.1929,6.0954,6.0329,6.0107,6.0193,5.9753,5.2782,5.3475,5.4125,5.4386,5.4931,5.5783,5.7398,5.7693,5.7661,5.7723,5.7765,5.7765,5.7765,5.7765,5.7802,5.796,5.7997,5.8107,5.8437,5.8217,5.8253,5.8877,5.8951,5.9465,6.075,6.0737,6.1215,6.2683,6.2365,6.2291,6.2756,6.2793,6.2793,6.2793,6.2793,6.2793,6.2793,6.2793,6.2793,6.2793,6.316,6.3836,6.4827,6.5153,6.5666,6.6302,6.6786,6.7208,6.7498,6.7274,6.6908,6.6517,6.6517,6.6414,6.6256,6.6256,6.6256,6.6256,6.6256,6.6256,6.6256,6.6256,6.6256,6.6256,6.6256,6.6256,6.6256,6.6256,6.6256,6.6256,6.6256,6.6256,6.6109,6.5435,6.5288,6.5435,6.5925,6.6035,6.6256,6.7076,6.7223,6.7467,6.8274,6.8421,6.8394,6.8298,6.7679,6.6958,6.63,6.6569,6.6605,6.6134,6.5627,6.5156,6.4649,6.4178,6.3812,6.3545,6.3508,6.3433,6.3357,6.278,6.2271,6.1807,6.1822,6.1822,6.1822,6.1011,6.0501,6.0297,6.027,5.9886,5.2893,5.3813,5.4436,5.4473,5.5757,5.7435,5.8976,5.8719,5.8437,5.9159,5.938,5.938,5.9233,5.9196,5.8976,5.8217,5.8107,5.84,5.9196,5.8694,5.8767,6.0236,6.0419,6.0713,6.1533,6.2254,6.2719,6.2793,6.2793,6.2793,6.2793,6.2793,6.2793,6.2793,6.2793,6.2793,6.2793,6.2793,6.2793,6.2793,6.3613,6.4029,6.4079,6.3818,6.4499,6.602,6.7188,6.8172,6.897,6.897,6.8711,6.8333,6.8333,6.8071,6.77,6.77,6.77,6.77,6.77,6.77,6.77,6.77,6.77,6.77,6.77,6.77,6.77,6.77,6.77,6.77,6.77,6.77,6.7333,6.5888,6.5508,6.5508,6.5508,6.5508,6.5742,6.6476,6.6623,6.6843,6.7664,6.7797,6.7747,6.7647,6.7364,6.7146,6.7059,6.6925,6.6786,6.6786,6.675,6.6677,6.6677,6.6641,6.6495,6.6265,6.6145,6.5705,6.4803,6.2683,6.1486,6.1414,6.1414,6.1414,6.1414,6.097,6.0715,6.0638,5.9981,5.9619,5.3004,5.3786,5.4546,5.5181,5.7042,5.8939,5.993,6.0015,5.9942,6.0114,6.0639,6.0713,5.9416,5.9196,5.9159,5.8976,5.8939,5.9233,6.004,5.9979,6.0015,6.0346,6.0419,6.0713,6.1533,6.1741,6.2108,6.2756,6.2793,6.2793,6.2793,6.2793,6.2793,6.2793,6.2793,6.2793,6.2793,6.2793,6.2793,6.2793,6.2976,6.3429,6.4103,6.4645,6.5468,6.6401,6.6663,6.7243,6.7982,6.7982,6.7954,6.785,6.785,6.7807,6.77,6.77,6.77,6.77,6.77,6.77,6.77,6.77,6.77,6.77,6.77,6.77,6.77,6.77,6.77,6.77,6.77,6.77,6.7627,6.726,6.7187,6.7187,6.7187,6.7187,6.726,6.7407,6.7444,6.7687,6.8495,6.8546,6.8173,6.7277,6.7069,6.6765,6.6032,6.6468,6.6786,6.6786,6.6243,6.5844,6.5844,6.5265,6.4788,6.4474,6.4429,6.4208,6.374,6.4392,6.4483,6.3861,6.3861,6.3861,6.3825,6.2567,6.1619,6.1062,6.032,5.9667,5.2448,5.3775,5.5354,5.6932,5.8547,6.0003,6.0786,6.1251,6.1545,6.1545,6.1263,6.0896,6.0419,6.004,5.9783,5.9783,5.9783,6.004,6.086,6.0639,6.0701,6.1471,6.1227,6.13,6.2108,6.2181,6.2365,6.2756,6.2793,6.2793,6.2793,6.2793,6.2793,6.2793,6.2793,6.2793,6.2793,6.2793,6.2793,6.2793,6.2793,6.3282,6.4139,6.4934,6.5508,6.5962,6.6329,6.6966,6.77,6.77,6.77,6.77,6.77,6.77,6.7737,6.8128,6.8274,6.8311,6.8728,6.8839,6.8839,6.8839,6.8839,6.8839,6.8839,6.8839,6.8839,6.8839,6.8839,6.8839,6.8839,6.8568,6.8274,6.8274,6.7994,6.77,6.77,6.77,6.77,6.77,6.77,6.7847,6.8238,6.8188,6.794,6.7334,6.7119,6.6809,6.6323,6.6576,6.6786,6.6786,6.6424,6.617,6.617,6.5772,6.5417,6.5181,6.5092,6.4941,6.4659,6.5387,6.5233,6.4055,6.4019,6.4019,6.4019,6.3199,6.2637,6.2222,6.1202,6.0528,5.195,5.3859,5.6172,5.8609,5.9783,6.0603,6.141,6.2218,6.2793,6.2793,6.1728,6.097,6.1484,6.1043,6.0603,6.0603,6.0603,6.0896,6.1704,6.1227,6.1288,6.2646,6.2218,6.2071,6.2756,6.2793,6.2793,6.2793,6.2793,6.2793,6.2793,6.2793,6.2793,6.2793,6.2793,6.2866,6.3013,6.3013,6.3086,6.3233,6.3233,6.3613,6.431,6.5007,6.5362,6.5545,6.6219,6.6966,6.77,6.77,6.77,6.77,6.77,6.7774,6.7994,6.8641,6.9009,6.9192,6.9853,7.011,7.011,7.011,7.011,7.011,7.011,7.011,7.011,7.011,7.011,7.011,7.011,6.9596,6.9119,6.9119,6.8605,6.8031,6.7774,6.77,6.77,6.77,6.77,6.7687,6.7633,6.7524,6.7428,6.7373,6.7148,6.6976,6.6976,6.6859,6.6786,6.6786,6.6786,6.6786,6.6786,6.6786,6.6712,6.6512,6.6361,6.6207,6.6001,6.5863,6.5161,6.3856,6.3805,6.3805,6.3805,6.3663,6.3576,6.3498,6.2102,6.1415,5.2648,5.4289,5.6172,5.8609,5.9783,6.0603,6.141,6.2218,6.2793,6.2793,6.2646,6.2279,6.1704,6.152,6.1447,6.1447,6.1447,6.1704,6.2536,6.2536,6.2572,6.2756,6.2719,6.2683,6.2793,6.2793,6.2793,6.2793,6.2793,6.2793,6.2793,6.2793,6.2793,6.2793,6.2793,6.316,6.3919,6.3906,6.4273,6.4958,6.4958,6.5031,6.5141,6.5251,6.5692,6.6366,6.6439,6.6966,6.77,6.77,6.77,6.77,6.77,6.8128,6.8752,6.8862,6.9339,6.9963,7.0073,7.011,7.011,7.011,7.011,7.011,7.011,7.011,7.011,7.011,7.011,7.011,7.011,7.0,6.9926,6.9926,6.9853,6.9376,6.7994,6.77,6.77,6.77,6.77,6.762,6.7322,6.7252,6.7154,6.6918,6.6845,6.6815,6.6815,6.6801,6.6786,6.6786,6.6786,6.6786,6.6786,6.6786,6.6712,6.6512,6.6361,6.6207,6.6001,6.5863,6.5697,6.5482,6.5482,6.5482,6.5482,6.4769,6.4306,6.3983,6.2433,6.1484,5.3859,5.5071,5.6172,5.8609,5.9783,6.0603,6.141,6.2218,6.2793,6.2793,6.2793,6.2683,6.2352,6.2291,6.2291,6.2291,6.2291,6.2401,6.2756,6.2793,6.2793,6.2793,6.2793,6.2793,6.2793,6.2793,6.2793,6.2793,6.2793,6.3013,6.3503,6.3967,6.4187,6.4187,6.4628,6.4861,6.4787,6.4787,6.4971,6.5288,6.5288,6.5545,6.5962,6.5962,6.6182,6.6512,6.6512,6.6966,6.77,6.77,6.77,6.7737,6.8201,6.8605,6.8995,6.9912,7.0463,7.0844,7.1284,7.1431,7.1431,7.1431,7.1431,7.1431,7.1431,7.1431,7.1431,7.1431,7.1431,7.1431,7.1431,7.1101,7.077,7.077,7.044,6.9889,6.9206,6.9059,6.9059,6.9059,6.9059,6.899,6.873,6.8617,6.8488,6.829,6.8186,6.8141,6.8141,6.8141,6.8141,6.8141,6.8141,6.8141,6.8141,6.8141,6.8021,6.776,6.725,6.6843,6.6574,6.605,6.5804,6.5804,6.5804,6.5804,6.5804,6.5447,6.4961,6.4346,6.3135,6.2135,5.452,5.5438,5.6099,5.8095,5.9343,6.0297,6.1117,6.1924,6.2536,6.2756,6.2793,6.2793,6.2793,6.2793,6.2793,6.2793,6.2793,6.2793,6.2793,6.2793,6.2793,6.2793,6.2793,6.2793,6.2793,6.3013,6.3233,6.3417,6.36,6.4127,6.4984,6.5375,6.5582,6.5582,6.5999,6.5999,6.5632,6.5815,6.5925,6.5925,6.5925,6.6219,6.6806,6.6806,6.6916,6.71,6.688,6.7247,6.7981,6.7981,6.8141,6.8361,6.8972,6.9339,6.9655,7.0866,7.1417,7.1674,7.2312,7.2496,7.2496,7.2496,7.2496,7.2496,7.2496,7.2496,7.2496,7.2496,7.2496,7.2496,7.2496,7.2041,7.16,7.16,7.1138,7.0587,7.0183,7.011,7.011,7.011,7.011,7.0054,6.987,6.9704,6.9544,6.9373,6.9268,6.9192,6.9192,6.9192,6.9192,6.9192,6.9192,6.9192,6.9192,6.9192,6.9069,6.8773,6.815,6.7669,6.7384,6.6728,6.6375,6.6375,6.6375,6.6196,6.5804,6.5804,6.5376,6.4583,6.3628,6.2734,5.3995,5.5023,5.5805,5.6701,5.8095,5.949,6.026,6.108,6.1887,6.2646,6.2793,6.2793,6.2793,6.2793,6.2793,6.2793,6.2793,6.2793,6.2793,6.2793,6.2793,6.2793,6.2793,6.2793,6.2793,6.3539,6.4347,6.5105,6.5888,6.6659,6.748,6.6843,6.6439,6.6439,6.5729,6.5692,6.6439,6.7187,6.759,6.759,6.759,6.759,6.7627,6.7627,6.8054,6.8738,6.7981,6.8091,6.8862,6.8862,6.9302,6.9963,7.0,7.0513,7.1197,7.127,7.1784,7.2459,7.2496,7.2496,7.2496,7.2496,7.2496,7.2496,7.2496,7.2496,7.2496,7.2496,7.2496,7.2496,7.2496,7.2459,7.2459,7.2459,7.2422,7.1945,7.044,7.011,7.011,7.011,7.011,6.9989,6.9653,6.9632,6.9515,6.9252,6.9207,6.9192,6.9192,6.9192,6.9192,6.9192,6.9192,6.9192,6.9192,6.9192,6.9115,6.8914,6.8737,6.8543,6.8333,6.8098,6.798,6.798,6.798,6.7267,6.5804,6.5804,6.5376,6.4583,6.3757,6.2833,5.3041,5.3849,5.4509,5.6334,5.8022,5.9269,5.9563,6.1031,6.2328,6.2071,6.2426,6.2793,6.2793,6.2793,6.2793,6.2793,6.2793,6.2793,6.2793,6.2793,6.3013,6.3576,6.4077,6.4591,6.5118,6.5925,6.6526,6.6806,6.7113,6.7407,6.7664,6.7907,6.7797,6.7297,6.7504,6.7504,6.726,6.7554,6.77,6.77,6.77,6.77,6.77,6.77,6.8128,6.8898,6.8605,6.8935,6.9669,6.9669,6.9853,7.0146,7.066,7.105,7.1344,7.1857,7.2261,7.2496,7.2496,7.2496,7.2496,7.2496,7.2496,7.2496,7.2496,7.2496,7.2496,7.2496,7.2496,7.2496,7.2496,7.2496,7.2496,7.2496,7.2496,7.2349,7.1762,7.1651,7.1651,7.1651,7.158,7.145,7.1193,7.1059,7.0959,7.0692,7.0661,7.0661,7.0661,7.0661,7.0661,7.0661,7.0661,7.0661,7.0661,7.0661,7.0552,7.0266,6.9733,6.9268,6.8992,6.8406,6.8088,6.8088,6.8088,6.7838,6.7267,6.6749,6.5829,6.4591,6.4217,6.3099,5.2307,5.2994,5.3691,5.5868,5.7398,5.8609,5.9416,6.0848,6.2059,6.2365,6.2622,6.2903,6.316,6.3013,6.2793,6.2793,6.305,6.3246,6.3246,6.371,6.4273,6.4824,6.5632,6.6329,6.6843,6.7614,6.8091,6.8091,6.8361,6.8508,6.8508,6.8752,6.8531,6.7737,6.8201,6.8238,6.77,6.77,6.77,6.77,6.7958,6.8091,6.8091,6.8398,6.9082,7.0096,7.0096,7.0257,7.0513,7.0513,7.066,7.0954,7.149,7.1857,7.2165,7.2716,7.3083,7.3303,7.3303,7.3303,7.3303,7.3303,7.3303,7.3266,7.2973,7.2899,7.2899,7.2899,7.2899,7.2973,7.323,7.3303,7.3303,7.3303,7.3303,7.3303,7.3303,7.2899,7.2481,7.2423,7.2373,7.2204,7.1994,7.1857,7.1718,7.151,7.1494,7.1494,7.1494,7.1494,7.1494,7.1494,7.1494,7.1494,7.1494,7.1494,7.1368,7.113,7.0561,7.0094,6.9813,6.9227,6.8908,6.8908,6.8908,6.8908,6.8908,6.7552,6.6103,6.46,6.4214,6.3072,0.0,0.0,0.0,5.5144,5.6161,5.7398,5.9747,6.0382,6.1117,6.3515,6.3392,6.3086,6.3956,6.3429,6.2829,6.2829,6.3539,6.4066,6.4103,6.5448,6.6476,6.6512,6.726,6.7774,6.7811,6.8495,6.8958,6.8958,6.9669,7.0073,7.0073,6.9302,6.8495,6.7737,6.77,6.77,6.7737,6.7774,6.7774,6.7811,6.8605,6.9009,6.8995,6.9816,7.1027,7.2496,7.2532,7.2114,7.1417,7.1417,7.1857,7.2569,7.2569,7.3046,7.3758,7.3758,7.4221,7.4903,7.4903,7.4903,7.4903,7.4903,7.4903,7.4757,7.3964,7.3707,7.3722,7.3722,7.3707,7.3891,7.4683,7.4903,7.4903,7.4903,7.4903,7.4903,7.4903,7.3656,7.2511,7.238,7.2299,7.2195,7.1863,7.1801,7.1718,7.151,7.1494,7.1494,7.1494,7.1494,7.1494,7.1494,7.1494,7.1494,7.1494,7.1494,7.1415,7.1292,7.113,7.0949,7.0821,7.0599,7.0497,7.048,7.048,7.0427,7.041,6.8082,6.6136,6.4634,6.3718,6.2801,5.0188,0.0,0.0,0.0,0.0,0.0,5.7618,5.9612,6.13,6.141,6.2658,6.3796,6.4066,6.3906,6.3723,6.3723,6.3429,6.3392,6.4029,6.4971,6.6072,6.7223,6.8582,6.9669,7.0257,7.0499,7.0646,7.0646,7.0293,6.9853,6.9265,6.8458,6.7921,6.77,6.77,6.7994,6.8568,6.9155,6.9743,7.0316,7.1138,7.1197,7.0646,7.1468,7.2092,7.2532,7.312,7.356,7.3913,7.3913,7.4023,7.4243,7.4243,7.4353,7.4588,7.4588,7.472,7.4903,7.4903,7.4903,7.4903,7.4903,7.4903,7.4867,7.4647,7.4147,7.3817,7.4404,7.4147,7.3891,7.4683,7.4903,7.4903,7.4903,7.4903,7.4903,7.4903,7.4462,7.3896,7.3287,7.2576,7.2039,7.1811,7.1672,7.1542,7.1494,7.1494,7.1494,7.1494,7.1494,7.1494,7.1494,7.1494,7.1494,7.1494,7.1494,7.1415,7.1292,7.113,7.0949,7.0821,7.0599,7.0184,6.9563,6.958,6.9272,6.8676,6.803,6.7211,6.6221,6.422,6.3454,5.0188,5.0188,5.0765,5.27,0.0,0.0,5.7435,5.949,6.1263,6.1814,6.3356,6.4494,6.4176,6.4103,6.4103,6.4103,6.3686,6.3503,6.4029,6.5375,6.6769,6.8054,6.9633,7.0917,7.1711,7.149,7.116,7.083,7.0036,6.9265,6.8458,6.7958,6.7847,6.8201,6.8545,6.9082,6.9876,7.0697,7.1358,7.1821,7.2606,7.2753,7.2349,7.3105,7.367,7.4037,7.4515,7.5175,7.5894,7.5894,7.5527,7.4903,7.4903,7.5124,7.538,7.538,7.5601,7.5894,7.5894,7.5894,7.5894,7.5894,7.5674,7.538,7.538,7.4588,7.3854,7.4683,7.4551,7.4294,7.4793,7.4903,7.4903,7.4903,7.5115,7.5327,7.5327,7.519,7.4826,7.4022,7.3352,7.2855,7.2704,7.2572,7.2493,7.2493,7.2493,7.2493,7.2493,7.2493,7.2493,7.2493,7.2493,7.2493,7.2493,7.2493,7.246,7.24,7.1811,7.1486,7.1405,7.0793,7.0272,6.976,6.9742,6.918,6.8,6.7642,6.6902,6.5821,6.4106,6.3691,5.1096,5.0335,5.0372,5.2517,5.3214,0.0,5.7838,5.9416,6.075,6.2952,6.42,6.4677,6.3956,6.3809,6.3846,6.3956,6.4029,6.4176,6.436,6.6305,6.8017,6.8935,7.0353,7.1637,7.2422,7.1784,7.1013,7.0293,6.9412,6.8641,6.7994,6.7958,6.8361,6.9142,6.9963,7.077,7.1564,7.2371,7.2826,7.2899,7.3707,7.4037,7.4001,7.4793,7.5491,7.6093,7.6203,7.6628,7.7289,7.7289,7.6445,7.516,7.516,7.5601,7.624,7.624,7.6665,7.7289,7.7289,7.7289,7.7289,7.7289,7.6738,7.6093,7.6093,7.4992,7.3854,7.4588,7.483,7.4903,7.4903,7.4903,7.4903,7.4903,7.5348,7.5791,7.5775,7.5599,7.5238,7.4509,7.4274,7.4131,7.3937,7.3905,7.3905,7.3905,7.3905,7.3905,7.3905,7.3905,7.3905,7.3905,7.3905,7.3905,7.3905,7.3905,7.3905,7.3888,7.2906,7.231,7.2293,7.1309,7.0712,7.0607,7.0433,6.9571,6.7942,6.7133,6.5963,6.452,6.3857,6.389,5.1536,5.1169,5.1657,5.2134,5.3225,0.0,5.517,5.6969,5.8621,5.9098,6.086,6.2254,6.212,6.2071,6.2291,6.2952,6.3649,6.4543,6.5852,6.7003,6.8251,6.9706,7.072,7.1637,7.2422,7.1784,7.1233,7.1087,6.9729,6.9119,6.9596,6.9646,7.0,7.0793,7.1615,7.2422,7.323,7.4037,7.4771,7.5395,7.6188,7.6261,7.5652,7.6445,7.6555,7.613,7.6775,7.7142,7.7289,7.7289,7.7105,7.6848,7.6848,7.6922,7.7069,7.7069,7.7179,7.7289,7.7289,7.7289,7.7289,7.7289,7.6738,7.6093,7.6093,7.4992,7.3722,7.3891,7.4404,7.4903,7.4903,7.4903,7.4903,7.4903,7.4999,7.5085,7.4964,7.4795,7.4566,7.4295,7.4211,7.4131,7.3937,7.3905,7.3905,7.3905,7.3905,7.3905,7.3905,7.3905,7.3905,7.3905,7.3905,7.3905,7.3905,7.3905,7.3856,7.376,7.3363,7.3105,7.2915,7.2564,7.2068,7.1412,7.0009,6.8783,6.7691,6.7043,6.6177,6.5194,6.5061,6.5094,5.3371,5.2307,0.0,5.2491,0.0,0.0,0.0,5.6235,5.7629,5.8425,6.0199,6.1484,6.108,6.1337,6.1741,6.2144,6.2915,6.3906,6.5118,6.6709,6.7994,6.8802,6.9633,7.0426,7.1211,7.0587,7.0096,7.0096,6.9743,6.9669,7.0073,7.0477,7.105,7.1857,7.3068,7.4074,7.4882,7.5674,7.6298,7.6702,7.7105,7.7105,7.6702,7.7105,7.7069,7.6702,7.7142,7.7289,7.7289,7.7289,7.7289,7.7289,7.7289,7.7289,7.7289,7.7289,7.7289,7.7289,7.7289,7.7289,7.7289,7.7289,7.6738,7.6166,7.6592,7.5836,7.4808,7.4404,7.4588,7.4888,7.4814,7.4799,7.4659,7.418,7.4324,7.4415,7.3936,7.3999,7.4147,7.4067,7.4051,7.4163,7.4464,7.481,7.5116,7.5116,7.5116,7.5116,7.5116,7.5116,7.5116,7.5116,7.5116,7.5116,7.5116,7.5116,7.5083,7.5,7.4369,7.3965,7.3843,7.3171,7.2405,7.1571,6.9845,6.8737,6.8261,6.7513,6.6735,6.5933,6.5933,6.5734,0.0,0.0,0.0,0.0,0.0,5.2978,0.0,0.0,0.0,5.8022,5.9428,6.0272,5.9795,6.0236,6.0676,6.0676,6.1741,6.2732,6.3099,6.5388,6.7113,6.7444,6.8458,6.9339,6.9816,6.9706,6.9596,6.9596,7.0183,7.0624,7.077,7.1431,7.2188,7.3156,7.461,7.5674,7.6313,7.6995,7.7289,7.7289,7.7289,7.7289,7.7289,7.7289,7.7289,7.7289,7.7289,7.7289,7.7289,7.7289,7.7289,7.7289,7.7289,7.7289,7.7289,7.7289,7.7289,7.7289,7.7289,7.7289,7.7289,7.7289,7.6738,7.6203,7.6702,7.6371,7.5726,7.5087,7.4903,7.4874,7.4768,7.4738,7.4546,7.3684,7.391,7.4113,7.3379,7.3631,7.3954,7.3921,7.4013,7.4303,7.4774,7.5406,7.5841,7.5841,7.5841,7.5841,7.5841,7.5841,7.5841,7.5841,7.5985,7.6058,7.6058,7.6203,7.6275,7.6225,7.534,7.4791,7.4756,7.3637,7.2592,7.1703,7.0164,6.9252,6.9053,6.8378,6.7556,6.6695,6.6695,6.6397,0.0,0.0,0.0,0.0,5.5244,5.4216,0.0,0.0,5.473,5.4913,0.0,5.6466,5.7068,0.0,0.0,5.7373,5.9832,6.1263,5.993,6.2511,6.5057,6.6476,6.8605,6.9706,6.9119,7.0881,7.2092,7.2092,7.2165,7.2532,7.323,7.3377,7.4111,7.5652,7.6555,7.7069,7.7179,7.7252,7.7289,7.7289,7.7289,7.7289,7.7289,7.7289,7.7289,7.7289,7.7289,7.7289,7.7289,7.7289,7.7289,7.7289,7.7289,7.7289,7.7289,7.7289,7.7289,7.7289,7.7289,7.7289,7.7289,7.7289,7.6738,7.5983,7.5344,7.5124,7.5014,7.494,7.4903,7.4903,7.4888,7.4874,7.4807,7.4583,7.461,7.4555,7.4149,7.4142,7.4115,7.3937,7.4484,7.4774,7.4122,7.4122,7.4158,7.4158,7.4158,7.4158,7.4158,7.4158,7.4158,7.4158,7.481,7.5244,7.5244,7.5877,7.6208,7.6038,7.5795,7.5584,7.5424,7.4312,7.3262,7.2389,7.1435,7.0511,6.9699,6.9581,6.8837,6.7489,6.7489,6.7423,0.0,0.0,0.0,5.8792,5.7666,5.6381,5.5904,0.0,5.4509,0.0,0.0,0.0,0.0,0.0,0.0,0.0,5.8033,5.9281,5.8621,6.13,6.398,6.5632,6.6292,6.7026,6.8091,7.1211,7.2826,7.1857,7.3105,7.3854,7.3722,7.4147,7.4918,7.6056,7.6885,7.7289,7.7289,7.7289,7.7289,7.7289,7.7289,7.7289,7.7289,7.7289,7.7289,7.7289,7.7289,7.7289,7.7289,7.7289,7.7289,7.7289,7.7289,7.7289,7.7289,7.7289,7.7289,7.7289,7.7289,7.7289,7.7289,7.7289,7.7069,7.6738,7.6408,7.6298,7.6298,7.6298,7.6237,7.6145,7.6037,7.5943,7.5723,7.5075,7.4934,7.4776,7.4159,7.4018,7.4002,7.3921,7.4158,7.4303,7.3941,7.4682,7.5297,7.5297,7.5297,7.5297,7.5297,7.4882,7.4593,7.4593,7.4484,7.4412,7.4412,7.4619,7.4752,7.4668,7.4351,7.3852,7.3167,7.2569,7.191,7.1135,7.0636,7.019,6.9798,6.9798,6.9467,6.8871,6.844,6.8009,6.3673,6.2132,6.075,6.075,5.9538,5.818,5.7581,5.6223,0.0,0.0,5.528,0.0,0.0,0.0,0.0,0.0,0.0,5.7189,5.6748,5.9281,0.0,0.0,0.0,0.0,6.715,7.0587,7.2239,7.105,7.3215,7.4331,7.3722,7.4478,7.538,7.6423,7.6995,7.7289,7.7289,7.7289,7.7289,7.7289,7.7289,7.7289,7.7289,7.7289,7.7289,7.7289,7.7289,7.7289,7.7289,7.7289,7.7289,7.7289,7.7289,7.7289,7.7289,7.7289,7.7289,7.7289,7.7289,7.7289,7.7289,7.7289,7.7289,7.7289,7.7289,7.7289,7.7289,7.7289,7.7217,7.7077,7.6897,7.6773,7.6449,7.5687,7.5492,7.5347,7.4682,7.4556,7.4556,7.4556,7.4556,7.4556,7.4556,7.5152,7.5623,7.5623,7.5623,7.5623,7.5623,7.5136,7.4774,7.4774,7.4448,7.4148,7.393,7.4011,7.3859,7.3313,7.2872,7.2165,7.1166,7.0788,7.0353,6.9799,6.9582,6.95,6.95,6.9699,6.9798,6.9765,6.9235,6.8705,6.5215,6.3429,6.1557,6.1557,6.0346,5.9159,5.9123,5.7875,5.6737,0.0,0.0,0.0,0.0,0.0,0.0,0.0,0.0,0.0,0.0,0.0,0.0,0.0,0.0,0.0,0.0,6.8752,7.0183,7.0146,7.2349,7.3722,7.3722,7.4478,7.5637,7.7215,7.7289,7.7289,7.7289,7.7289,7.7289,7.7289,7.7289,7.7289,7.7289,7.7289,7.7289,7.7289,7.7289,7.7289,7.7289,7.7289,7.7289,7.7289,7.7289,7.7289,7.7289,7.7289,7.7289,7.7289,7.7289,7.7289,7.7289,7.7289,7.7289,7.7289,7.7289,7.7289,7.7289,7.7289,7.7217,7.7108,7.7092,7.6929,7.6737,7.6594,7.6561,7.6475,7.6289,7.622,7.622,7.622,7.622,7.622,7.622,7.4971,7.3977,7.3977,7.3977,7.3977,7.3977,7.3941,7.3941,7.3941,7.4629,7.4742,7.3958,7.4618,7.4231,7.2265,7.1876,7.1342,7.0372,6.9535,6.9076,6.9042,6.8838,6.8762,6.8762,6.9434,6.9798,6.9798,6.9765,6.9732,6.738,6.6292,6.4971,6.5498,6.442,6.3086,6.2548,6.0346,5.8535,5.9049,0.0,0.0,0.0,0.0,0.0,0.0,0.0,0.0,0.0,0.0,0.0,0.0,0.0,0.0,0.0,0.0,0.0,0.0,7.3744,7.4478,7.4478,7.4757,7.538,7.6481,7.7032,7.7289,7.7289,7.7289,7.7289,7.7289,7.7289,7.7289,7.7289,7.7289,7.7289,7.7289,7.7289,7.7289,7.7289,7.7289,7.7289,7.7289,7.7289,7.7289,7.7289,7.7289,7.7289,7.7289,7.7289,7.7289,7.7289,7.7289,7.7289,7.7289,7.7289,7.7289,7.7258,7.7202,7.7061,7.6866,7.6773,7.6627,7.6442,7.6412,7.6412,7.6395,7.6292,7.6292,7.6292,7.6292,7.6292,7.6292,7.6292,7.5841,7.5478,7.5478,7.5478,7.5478,7.5478,7.5027,7.4701,7.4701,7.4448,7.4204,7.3935,7.4068,7.3475,7.1876,7.1674,7.091,6.9312,6.9432,6.9082,6.808,6.8493,6.844,6.7953,6.8705,6.9069,6.9069,6.9566,6.9798,6.8274,6.7724,6.699,6.7223,6.6696,6.6035,6.5498,6.3319,6.1618,6.2401,5.9979,0.0,0.0,0.0,0.0,0.0,0.0,0.0,0.0,5.6455,0.0,0.0,0.0,0.0,0.0,0.0,0.0,0.0,0.0,0.0,0.0,7.472,7.527,7.6056,7.6885,7.7289,7.7289,7.7289,7.7289,7.7289,7.7289,7.7289,7.7289,7.7289,7.7289,7.7289,7.7289,7.7289,7.7289,7.7289,7.7289,7.7289,7.7289,7.7289,7.7289,7.7289,7.7289,7.7289,7.7289,7.7289,7.7289,7.7289,7.7289,7.7289,7.7289,7.7289,7.7258,7.7139,7.6966,7.6753,7.661,7.6445,7.6292,7.6292,7.6292,7.6292,7.6292,7.6292,7.6292,7.6292,7.6292,7.6292,7.6292,7.6292,7.6292,7.6292,7.6292,7.6292,7.6292,7.5841,7.5551,7.5551,7.508,7.4502,7.3936,7.344,7.2564,7.1068,7.0793,7.0022,6.8516,6.8818,6.845,6.7224,6.8175,6.8341,6.7589,6.8606,6.9069,6.9103,6.9566,6.9798]}]]